[[{"header":{"parameterUnit":"m.s-1","parameterCategory":1,"la1":31.0,"la2":29.5877,"lo1":-88.7671,"lo2":-86.6584,"dx":0.0162,"dy":0.0185,"nx":115,"ny":88,"refTime":"2022-12-05T18:00:00:Z","depth":0,"parameterNumber":2,"parameterNumberName":"U-component_of_WINDS"},"data":[0.0,0.0,0.0,0.0,0.0,0.0,0.0,0.0,0.0,0.0,0.0,0.0,0.0,0.0,0.0,0.0,0.0,0.0,0.0,0.0,0.0,0.0,0.0,0.0,0.0,0.0,0.0,0.0,0.0,0.0,0.0,0.0,0.0,0.0,0.0,0.0,0.0,0.0,0.0,0.0,0.0,0.0,0.0,0.0,0.0,0.0,0.0,0.0,0.0,0.0,0.0,0.0,0.0,0.0,0.0,0.0,0.0,0.0,0.0,0.0,0.0,0.0,0.0,0.0,0.0,0.0,0.0,0.0,0.0,0.0,0.0,0.0,0.0,0.0,0.0,0.0,0.0,0.0,0.0,0.0,0.0,0.0,0.0,0.0,0.0,0.0,0.0,0.0,0.0,0.0,0.0,0.0,0.0,0.0,0.0,0.0,0.0,0.0,0.0,0.0,0.0,0.0,0.0,0.0,0.0,0.0,0.0,0.0,0.0,0.0,0.0,0.0,0.0,0.0,0.0,0.0,0.0,0.0,0.0,0.0,0.0,0.0,0.0,0.0,0.0,0.0,0.0,0.0,0.0,0.0,0.0,0.0,0.0,0.0,0.0,0.0,0.0,0.0,0.0,0.0,0.0,0.0,0.0,0.0,0.0,0.0,0.0,0.0,0.0,0.0,0.0,0.0,0.0,0.0,0.0,0.0,0.0,0.0,0.0,0.0,0.0,0.0,0.0,0.0,0.0,0.0,0.0,0.0,0.0,0.0,0.0,0.0,0.0,0.0,0.0,0.0,0.0,0.0,0.0,0.0,0.0,0.0,0.0,0.0,0.0,0.0,0.0,0.0,0.0,0.0,0.0,0.0,0.0,0.0,0.0,0.0,0.0,0.0,0.0,0.0,0.0,0.0,0.0,0.0,0.0,0.0,0.0,0.0,0.0,0.0,0.0,0.0,0.0,0.0,0.0,0.0,0.0,0.0,0.0,0.0,0.0,0.0,0.0,0.0,0.0,0.0,0.0,0.0,0.0,0.0,0.0,0.0,0.0,0.0,0.0,0.0,0.0,0.0,0.0,0.0,0.0,0.0,0.0,0.0,0.0,0.0,0.0,0.0,0.0,0.0,0.0,0.0,0.0,0.0,0.0,0.0,0.0,0.0,0.0,0.0,0.0,0.0,0.0,0.0,0.0,0.0,0.0,0.0,0.0,0.0,0.0,0.0,0.0,0.0,0.0,0.0,0.0,0.0,0.0,0.0,0.0,0.0,0.0,0.0,0.0,0.0,0.0,0.0,0.0,0.0,0.0,0.0,0.0,0.0,0.0,0.0,0.0,0.0,0.0,0.0,0.0,0.0,0.0,0.0,0.0,0.0,0.0,0.0,0.0,0.0,0.0,0.0,0.0,0.0,0.0,0.0,0.0,0.0,0.0,0.0,0.0,0.0,0.0,0.0,0.0,0.0,0.0,0.0,0.0,0.0,0.0,0.0,0.0,0.0,0.0,0.0,0.0,0.0,0.0,0.0,0.0,0.0,0.0,0.0,0.0,0.0,0.0,0.0,0.0,0.0,0.0,0.0,0.0,0.0,0.0,0.0,0.0,0.0,0.0,0.0,0.0,0.0,0.0,0.0,0.0,0.0,0.0,0.0,0.0,0.0,0.0,0.0,0.0,0.0,0.0,0.0,0.0,0.0,0.0,0.0,0.0,0.0,0.0,0.0,0.0,0.0,0.0,0.0,0.0,0.0,0.0,0.0,0.0,0.0,0.0,0.0,0.0,0.0,0.0,0.0,0.0,0.0,0.0,0.0,0.0,0.0,0.0,0.0,0.0,0.0,0.0,0.0,0.0,0.0,0.0,0.0,0.0,0.0,0.0,0.0,0.0,0.0,0.0,0.0,0.0,0.0,0.0,0.0,0.0,0.0,0.0,0.0,0.0,0.0,0.0,0.0,0.0,0.0,0.0,0.0,0.0,0.0,0.0,0.0,0.0,0.0,0.0,0.0,0.0,0.0,0.0,0.0,0.0,0.0,0.0,0.0,0.0,0.0,0.0,0.0,0.0,0.0,0.0,0.0,0.0,0.0,0.0,0.0,0.0,0.0,0.0,0.0,0.0,0.0,0.0,0.0,0.0,0.0,0.0,0.0,0.0,0.0,0.0,0.0,0.0,0.0,0.0,0.0,0.0,0.0,0.0,0.0,0.0,0.0,0.0,0.0,0.0,0.0,0.0,0.0,0.0,0.0,0.0,0.0,0.0,0.0,0.0,0.0,0.0,0.0,0.0,0.0,0.0,0.0,0.0,0.0,0.0,0.0,0.0,0.0,0.0,0.0,0.0,0.0,0.0,0.0,0.0,0.0,0.0,0.0,0.0,0.0,0.0,0.0,0.0,0.0,0.0,0.0,0.0,0.0,0.0,0.0,0.0,0.0,0.0,0.0,0.0,0.0,0.0,0.0,0.0,0.0,0.0,0.0,0.0,0.0,0.0,0.0,0.0,0.0,0.0,0.0,0.0,0.0,0.0,0.0,0.0,0.0,0.0,0.0,0.0,0.0,0.0,0.0,0.0,0.0,0.0,0.0,0.0,0.0,0.0,0.0,0.0,0.0,0.0,0.0,0.0,0.0,0.0,0.0,0.0,0.0,0.0,0.0,0.0,0.0,0.0,0.0,0.0,0.0,0.0,0.0,0.0,0.0,0.0,0.0,0.0,0.0,0.0,0.0,0.0,0.0,0.0,0.0,0.0,0.0,0.0,0.0,0.0,0.0,0.0,0.0,0.0,0.0,0.0,0.0,0.0,0.0,0.0,0.0,0.0,0.0,0.0,0.0,0.0,0.0,0.0,0.0,0.0,0.0,0.0,0.0,0.0,0.0,0.0,0.0,0.0,0.0,0.0,0.0,0.0,0.0,0.0,0.0,0.0,0.0,0.0,0.0,0.0,0.0,0.0,0.0,0.0,0.0,0.0,0.0,0.0,0.0,0.0,0.0,0.0,0.0,0.0,0.0,0.0,0.0,0.0,0.0,0.0,0.0,0.0,0.0,0.0,0.0,0.0,0.0,0.0,0.0,0.0,0.0,0.0,0.0,0.0,0.0,0.0,0.0,0.0,0.0,0.0,0.0,0.0,0.0,0.0,0.0,0.0,0.0,0.0,0.0,0.0,0.0,0.0,0.0,0.0,0.0,0.0,0.0,0.0,0.0,0.0,0.0,0.0,0.0,0.0,0.0,0.0,0.0,0.0,0.0,0.0,0.0,0.0,0.0,0.0,0.0,0.0,0.0,0.0,0.0,0.0,0.0,0.0,0.0,0.0,0.0,0.0,0.0,0.0,0.0,0.0,0.0,0.0,0.0,0.0,0.0,0.0,0.0,0.0,0.0,0.0,0.0,0.0,0.0,0.0,0.0,0.0,0.0,0.0,0.0,0.0,0.0,0.0,0.0,0.0,0.0,0.0,0.0,0.0,0.0,0.0,0.0,0.0,0.0,0.0,0.0,0.0,0.0,0.0,0.0,0.0,0.0,0.0,0.0,0.0,0.0,0.0,0.0,0.0,0.0,0.0,0.0,0.0,0.0,0.0,0.0,0.0,0.0,0.0,0.0,0.0,0.0,0.0,0.0,0.0,0.0,0.0,0.0,0.0,0.0,0.0,0.0,0.0,0.0,0.0,0.0,0.0,0.0,0.0,0.0,0.0,0.0,0.0,0.0,0.0,0.0,0.0,0.0,0.0,0.0,0.0,0.0,0.0,0.0,0.0,0.0,0.0,0.0,0.0,0.0,0.0,0.0,0.0,0.0,0.0,0.0,0.0,0.0,0.0,0.0,0.0,0.0,0.0,0.0,0.0,0.0,0.0,0.0,0.0,0.0,0.0,0.0,0.0,0.0,0.0,0.0,0.0,0.0,0.0,0.0,0.0,0.0,0.0,0.0,0.0,0.0,0.0,0.0,0.0,0.0,0.0,0.0,0.0,0.0,0.0,0.0,0.0,0.0,0.0,0.0,0.0,0.0,0.0,0.0,0.0,0.0,0.0,0.0,0.0,0.0,0.0,0.0,0.0,0.0,0.0,0.0,0.0,0.0,0.0,0.0,0.0,0.0,0.0,0.0,0.0,0.0,0.0,0.0,0.0,0.0,0.0,0.0,0.0,0.0,0.0,0.0,0.0,0.0,0.0,0.0,0.0,0.0,0.0,0.0,0.0,0.0,0.0,0.0,0.0,0.0,0.0,0.0,0.0,0.0,0.0,0.0,0.0,0.0,0.0,0.0,0.0,0.0,0.0,0.0,-2.2887,0.0,0.0,0.0,-1.8369,0.0,0.0,0.0,0.0,0.0,0.0,0.0,0.0,0.0,0.0,0.0,0.0,0.0,0.0,0.0,0.0,0.0,0.0,0.0,0.0,0.0,0.0,0.0,0.0,0.0,0.0,0.0,0.0,0.0,0.0,0.0,0.0,0.0,0.0,0.0,0.0,0.0,0.0,0.0,0.0,0.0,0.0,0.0,0.0,0.0,0.0,0.0,0.0,0.0,0.0,0.0,0.0,0.0,0.0,0.0,0.0,0.0,0.0,0.0,0.0,0.0,0.0,0.0,0.0,0.0,0.0,0.0,0.0,0.0,0.0,0.0,0.0,0.0,0.0,0.0,0.0,0.0,0.0,0.0,0.0,0.0,0.0,0.0,0.0,0.0,0.0,0.0,0.0,0.0,0.0,0.0,0.0,0.0,0.0,0.0,0.0,0.0,0.0,0.0,0.0,0.0,0.0,0.0,0.0,0.0,0.0,0.0,0.0,0.0,0.0,-2.2893,-2.0442,-2.2423,-2.1735,-1.7888,0.0,0.0,0.0,0.0,0.0,0.0,0.0,0.0,0.0,0.0,0.0,0.0,0.0,0.0,0.0,0.0,0.0,0.0,0.0,0.0,0.0,0.0,0.0,0.0,0.0,0.0,0.0,0.0,0.0,0.0,0.0,0.0,0.0,0.0,0.0,0.0,0.0,0.0,0.0,0.0,0.0,0.0,0.0,0.0,0.0,0.0,0.0,0.0,0.0,0.0,0.0,0.0,0.0,0.0,0.0,0.0,0.0,0.0,0.0,0.0,0.0,0.0,0.0,0.0,0.0,0.0,0.0,0.0,0.0,0.0,0.0,0.0,0.0,0.0,0.0,0.0,0.0,0.0,0.0,0.0,0.0,0.0,0.0,0.0,0.0,0.0,0.0,0.0,0.0,0.0,0.0,0.0,0.0,0.0,0.0,0.0,0.0,0.0,0.0,0.0,0.0,0.0,0.0,0.0,0.0,0.0,0.0,0.0,0.0,0.0,0.0,0.0,-2.3003,-2.2309,-1.844,0.0,0.0,0.0,0.0,0.0,0.0,0.0,0.0,0.0,0.0,0.0,0.0,0.0,0.0,0.0,0.0,0.0,0.0,0.0,0.0,0.0,0.0,0.0,0.0,0.0,0.0,0.0,0.0,0.0,0.0,0.0,0.0,0.0,0.0,0.0,0.0,0.0,0.0,0.0,0.0,0.0,0.0,0.0,0.0,0.0,0.0,0.0,0.0,0.0,0.0,0.0,0.0,0.0,0.0,0.0,0.0,0.0,0.0,0.0,0.0,0.0,0.0,0.0,0.0,0.0,0.0,0.0,0.0,0.0,0.0,0.0,0.0,0.0,0.0,0.0,0.0,0.0,0.0,0.0,0.0,0.0,0.0,0.0,0.0,0.0,0.0,0.0,0.0,0.0,0.0,0.0,0.0,0.0,0.0,0.0,0.0,0.0,0.0,0.0,0.0,0.0,0.0,0.0,0.0,0.0,0.0,0.0,0.0,0.0,0.0,-1.9674,-2.2541,-2.1447,0.0,-1.9752,0.0,0.0,0.0,0.0,0.0,0.0,0.0,0.0,0.0,0.0,0.0,0.0,0.0,0.0,0.0,0.0,0.0,0.0,0.0,0.0,0.0,0.0,0.0,0.0,0.0,0.0,0.0,0.0,0.0,0.0,0.0,0.0,0.0,0.0,0.0,0.0,0.0,0.0,0.0,0.0,0.0,0.0,0.0,0.0,0.0,0.0,0.0,0.0,0.0,0.0,0.0,0.0,0.0,0.0,0.0,0.0,0.0,0.0,0.0,0.0,0.0,0.0,0.0,0.0,0.0,0.0,0.0,0.0,0.0,0.0,0.0,0.0,0.0,0.0,0.0,0.0,0.0,0.0,0.0,0.0,0.0,0.0,0.0,0.0,0.0,0.0,0.0,0.0,0.0,0.0,0.0,0.0,0.0,0.0,0.0,0.0,0.0,0.0,0.0,0.0,0.0,0.0,0.0,0.0,0.0,0.0,0.0,0.0,0.0,0.0,-2.0943,-2.2866,-2.1675,-2.066,0.0,0.0,0.0,0.0,0.0,0.0,0.0,0.0,0.0,0.0,0.0,0.0,0.0,0.0,0.0,0.0,0.0,0.0,0.0,0.0,0.0,0.0,0.0,0.0,0.0,0.0,0.0,0.0,0.0,0.0,0.0,0.0,0.0,0.0,0.0,0.0,0.0,0.0,0.0,0.0,0.0,0.0,0.0,0.0,0.0,0.0,0.0,0.0,0.0,0.0,0.0,0.0,0.0,0.0,0.0,0.0,0.0,0.0,0.0,0.0,0.0,0.0,0.0,0.0,0.0,0.0,0.0,0.0,0.0,0.0,0.0,0.0,0.0,0.0,0.0,0.0,0.0,0.0,0.0,0.0,0.0,0.0,0.0,0.0,0.0,0.0,0.0,0.0,0.0,0.0,0.0,0.0,0.0,0.0,0.0,0.0,0.0,0.0,0.0,0.0,0.0,0.0,0.0,0.0,0.0,0.0,0.0,0.0,0.0,0.0,-2.0713,-2.1912,-2.3139,-2.2224,-2.1003,-1.9598,0.0,0.0,0.0,0.0,0.0,0.0,0.0,0.0,0.0,0.0,0.0,0.0,0.0,0.0,0.0,0.0,0.0,0.0,0.0,0.0,0.0,0.0,0.0,0.0,0.0,0.0,0.0,0.0,0.0,0.0,0.0,0.0,0.0,0.0,0.0,0.0,0.0,0.0,0.0,0.0,0.0,0.0,0.0,0.0,0.0,0.0,0.0,0.0,0.0,0.0,0.0,0.0,0.0,0.0,0.0,0.0,0.0,0.0,0.0,0.0,0.0,0.0,0.0,0.0,0.0,0.0,0.0,0.0,0.0,0.0,0.0,0.0,0.0,0.0,0.0,0.0,0.0,0.0,0.0,0.0,0.0,0.0,0.0,0.0,0.0,0.0,0.0,0.0,0.0,0.0,0.0,0.0,0.0,0.0,0.0,0.0,0.0,0.0,0.0,0.0,0.0,0.0,0.0,0.0,0.0,0.0,0.0,0.0,-2.3511,-2.1642,-2.1639,-2.4057,-2.2802,-2.1023,0.0,0.0,0.0,0.0,0.0,0.0,0.0,0.0,0.0,0.0,0.0,0.0,0.0,0.0,0.0,0.0,0.0,0.0,0.0,0.0,0.0,0.0,0.0,0.0,0.0,0.0,0.0,0.0,0.0,0.0,0.0,0.0,0.0,0.0,0.0,0.0,0.0,0.0,0.0,0.0,0.0,0.0,0.0,0.0,0.0,0.0,0.0,0.0,0.0,0.0,0.0,0.0,0.0,0.0,0.0,0.0,0.0,0.0,0.0,0.0,0.0,0.0,0.0,0.0,0.0,0.0,0.0,0.0,0.0,0.0,0.0,0.0,0.0,0.0,0.0,0.0,0.0,0.0,0.0,0.0,0.0,0.0,0.0,0.0,0.0,0.0,0.0,0.0,0.0,0.0,0.0,0.0,0.0,0.0,0.0,0.0,0.0,0.0,0.0,0.0,0.0,0.0,0.0,0.0,0.0,0.0,0.0,0.0,0.0,-1.8467,-2.023,-2.2843,-2.6094,-2.3317,-2.1637,0.0,0.0,0.0,0.0,0.0,0.0,0.0,0.0,0.0,0.0,0.0,0.0,0.0,0.0,0.0,0.0,0.0,0.0,0.0,0.0,0.0,0.0,0.0,0.0,0.0,0.0,0.0,0.0,0.0,0.0,0.0,0.0,0.0,0.0,0.0,0.0,0.0,0.0,0.0,0.0,0.0,0.0,0.0,0.0,0.0,0.0,0.0,0.0,0.0,0.0,0.0,0.0,0.0,0.0,0.0,0.0,0.0,0.0,0.0,0.0,0.0,0.0,0.0,0.0,0.0,0.0,0.0,0.0,0.0,0.0,0.0,0.0,0.0,0.0,0.0,0.0,0.0,0.0,0.0,0.0,0.0,0.0,0.0,0.0,0.0,0.0,0.0,0.0,0.0,0.0,0.0,0.0,0.0,0.0,0.0,0.0,0.0,0.0,0.0,0.0,0.0,0.0,0.0,0.0,0.0,0.0,0.0,0.0,0.0,-1.8605,-2.2165,-2.5124,-2.7056,-2.424,-2.2091,0.0,0.0,0.0,0.0,0.0,0.0,0.0,0.0,0.0,0.0,0.0,0.0,0.0,0.0,0.0,0.0,0.0,0.0,0.0,0.0,0.0,0.0,0.0,0.0,0.0,0.0,0.0,0.0,0.0,0.0,0.0,0.0,0.0,0.0,0.0,0.0,0.0,0.0,0.0,0.0,0.0,0.0,0.0,0.0,0.0,0.0,0.0,0.0,0.0,0.0,0.0,0.0,0.0,0.0,0.0,0.0,0.0,0.0,0.0,0.0,0.0,0.0,0.0,0.0,0.0,0.0,0.0,0.0,0.0,0.0,0.0,0.0,0.0,0.0,0.0,0.0,0.0,0.0,0.0,0.0,0.0,0.0,0.0,0.0,0.0,0.0,0.0,0.0,0.0,0.0,0.0,0.0,0.0,0.0,0.0,0.0,0.0,0.0,0.0,0.0,0.0,0.0,0.0,0.0,0.0,0.0,0.0,0.0,-1.8608,-2.5027,-2.7636,-2.8187,-2.6821,-2.5559,-2.2309,0.0,0.0,0.0,0.0,0.0,0.0,0.0,0.0,0.0,0.0,0.0,0.0,0.0,0.0,0.0,0.0,0.0,0.0,0.0,0.0,0.0,0.0,0.0,0.0,0.0,0.0,0.0,0.0,0.0,0.0,0.0,0.0,0.0,0.0,0.0,0.0,0.0,0.0,0.0,0.0,0.0,0.0,0.0,0.0,0.0,0.0,0.0,0.0,0.0,0.0,0.0,0.0,0.0,0.0,0.0,0.0,0.0,0.0,0.0,0.0,0.0,0.0,0.0,0.0,0.0,0.0,0.0,0.0,0.0,0.0,0.0,0.0,0.0,0.0,0.0,0.0,0.0,0.0,0.0,0.0,0.0,0.0,0.0,0.0,0.0,0.0,0.0,0.0,0.0,0.0,0.0,0.0,0.0,0.0,0.0,0.0,0.0,0.0,0.0,0.0,0.0,0.0,0.0,0.0,0.0,0.0,0.0,0.0,0.0,-2.2036,-2.557,-2.8235,-2.9667,-2.62,-2.4123,0.0,0.0,0.0,0.0,0.0,0.0,0.0,0.0,0.0,0.0,0.0,0.0,0.0,0.0,0.0,0.0,0.0,0.0,0.0,0.0,0.0,0.0,0.0,0.0,0.0,0.0,0.0,0.0,0.0,0.0,0.0,0.0,0.0,0.0,0.0,0.0,0.0,0.0,0.0,0.0,0.0,0.0,0.0,0.0,0.0,0.0,0.0,0.0,0.0,0.0,0.0,0.0,0.0,0.0,0.0,0.0,0.0,0.0,0.0,0.0,0.0,0.0,0.0,0.0,0.0,0.0,0.0,0.0,0.0,0.0,0.0,0.0,0.0,0.0,0.0,0.0,0.0,0.0,0.0,0.0,0.0,0.0,0.0,0.0,0.0,0.0,0.0,0.0,0.0,0.0,0.0,0.0,0.0,0.0,0.0,0.0,0.0,0.0,0.0,0.0,0.0,0.0,0.0,0.0,0.0,0.0,0.0,0.0,0.0,-2.4918,-2.8811,-3.1428,-3.2357,-2.8132,-2.5909,-2.5983,0.0,0.0,0.0,0.0,0.0,0.0,0.0,0.0,0.0,0.0,0.0,0.0,0.0,0.0,0.0,0.0,0.0,0.0,0.0,0.0,0.0,0.0,0.0,0.0,0.0,0.0,0.0,0.0,0.0,0.0,0.0,0.0,0.0,0.0,0.0,0.0,0.0,0.0,0.0,0.0,0.0,0.0,0.0,0.0,0.0,0.0,0.0,0.0,0.0,0.0,0.0,0.0,0.0,0.0,0.0,0.0,0.0,0.0,0.0,0.0,0.0,0.0,0.0,0.0,0.0,0.0,0.0,0.0,0.0,0.0,0.0,0.0,0.0,0.0,0.0,0.0,0.0,0.0,0.0,0.0,0.0,0.0,0.0,0.0,0.0,0.0,0.0,0.0,0.0,0.0,0.0,0.0,0.0,0.0,0.0,0.0,0.0,0.0,0.0,0.0,0.0,0.0,0.0,0.0,0.0,0.0,0.0,0.0,-3.2214,-3.6232,-3.7046,-3.4552,-3.1012,-2.7703,0.0,0.0,0.0,0.0,0.0,0.0,0.0,0.0,0.0,0.0,0.0,0.0,0.0,0.0,0.0,0.0,0.0,0.0,0.0,0.0,0.0,0.0,0.0,0.0,0.0,0.0,0.0,0.0,0.0,0.0,0.0,0.0,0.0,0.0,0.0,0.0,0.0,0.0,0.0,0.0,0.0,0.0,0.0,0.0,0.0,0.0,0.0,0.0,0.0,0.0,0.0,0.0,0.0,0.0,0.0,0.0,0.0,0.0,0.0,0.0,0.0,0.0,0.0,0.0,0.0,0.0,0.0,0.0,0.0,0.0,0.0,0.0,0.0,0.0,0.0,0.0,0.0,0.0,0.0,0.0,0.0,0.0,0.0,0.0,0.0,0.0,0.0,0.0,0.0,0.0,0.0,0.0,0.0,0.0,0.0,0.0,0.0,0.0,0.0,0.0,0.0,0.0,0.0,0.0,0.0,0.0,0.0,0.0,0.0,-3.6346,-3.8839,-3.9373,-3.7906,-3.2833,-2.9654,0.0,0.0,0.0,0.0,0.0,0.0,0.0,0.0,0.0,0.0,0.0,0.0,0.0,0.0,0.0,0.0,0.0,0.0,0.0,0.0,0.0,0.0,0.0,0.0,0.0,0.0,0.0,0.0,0.0,0.0,0.0,0.0,0.0,0.0,0.0,0.0,0.0,0.0,0.0,0.0,0.0,0.0,0.0,0.0,0.0,0.0,0.0,0.0,0.0,0.0,0.0,0.0,0.0,0.0,0.0,0.0,0.0,0.0,0.0,0.0,0.0,0.0,0.0,0.0,0.0,0.0,0.0,0.0,0.0,0.0,0.0,0.0,0.0,0.0,0.0,0.0,0.0,0.0,0.0,0.0,0.0,0.0,0.0,0.0,0.0,0.0,0.0,0.0,0.0,0.0,0.0,0.0,0.0,0.0,0.0,0.0,0.0,0.0,0.0,0.0,0.0,0.0,0.0,0.0,0.0,0.0,0.0,0.0,-3.4878,-3.91,-4.055,-4.0971,-4.0354,-3.5295,-3.2019,0.0,0.0,0.0,0.0,0.0,0.0,0.0,0.0,0.0,0.0,0.0,0.0,0.0,0.0,0.0,0.0,0.0,0.0,0.0,0.0,0.0,0.0,0.0,0.0,0.0,0.0,0.0,0.0,0.0,0.0,0.0,0.0,0.0,0.0,0.0,0.0,0.0,0.0,0.0,0.0,0.0,0.0,0.0,0.0,0.0,0.0,0.0,0.0,0.0,0.0,0.0,0.0,0.0,0.0,0.0,0.0,0.0,0.0,0.0,0.0,0.0,0.0,0.0,0.0,0.0,0.0,0.0,0.0,0.0,0.0,0.0,0.0,0.0,0.0,0.0,0.0,0.0,0.0,0.0,0.0,0.0,0.0,0.0,0.0,0.0,0.0,0.0,0.0,0.0,0.0,0.0,0.0,0.0,0.0,0.0,0.0,0.0,0.0,0.0,0.0,0.0,0.0,0.0,0.0,0.0,0.0,0.0,0.0,-3.7525,-4.0726,-4.1667,-4.2046,-4.1816,-3.7827,-3.4423,0.0,0.0,0.0,0.0,0.0,0.0,0.0,0.0,0.0,0.0,0.0,0.0,0.0,0.0,0.0,0.0,0.0,0.0,0.0,0.0,0.0,0.0,0.0,0.0,0.0,0.0,0.0,0.0,0.0,0.0,0.0,0.0,0.0,0.0,0.0,0.0,0.0,0.0,0.0,0.0,0.0,0.0,0.0,0.0,0.0,0.0,0.0,0.0,0.0,0.0,0.0,0.0,0.0,0.0,0.0,0.0,0.0,0.0,0.0,0.0,0.0,0.0,0.0,0.0,0.0,0.0,0.0,0.0,0.0,0.0,0.0,0.0,0.0,0.0,0.0,0.0,0.0,0.0,0.0,0.0,0.0,0.0,0.0,0.0,0.0,0.0,0.0,0.0,0.0,0.0,0.0,0.0,0.0,0.0,0.0,0.0,0.0,0.0,0.0,0.0,0.0,0.0,0.0,0.0,0.0,0.0,0.0,0.0,-3.8878,-4.1486,-4.2418,-4.2837,-4.2816,-3.8681,-3.5257,0.0,0.0,0.0,0.0,0.0,0.0,0.0,0.0,0.0,0.0,0.0,0.0,0.0,0.0,0.0,0.0,0.0,0.0,0.0,0.0,0.0,0.0,0.0,0.0,0.0,0.0,0.0,0.0,0.0,0.0,0.0,0.0,0.0,0.0,0.0,0.0,0.0,0.0,0.0,0.0,0.0,0.0,0.0,0.0,0.0,0.0,0.0,0.0,-1.7767,0.0,0.0,0.0,0.0,0.0,0.0,0.0,0.0,0.0,0.0,0.0,0.0,0.0,0.0,0.0,0.0,0.0,0.0,0.0,0.0,0.0,0.0,0.0,0.0,0.0,0.0,0.0,0.0,0.0,0.0,0.0,0.0,0.0,0.0,0.0,0.0,0.0,0.0,0.0,0.0,0.0,0.0,0.0,0.0,0.0,0.0,0.0,0.0,0.0,0.0,0.0,0.0,0.0,0.0,0.0,0.0,0.0,0.0,0.0,-3.9882,-4.2335,-4.3239,-4.3662,-4.3566,-4.1104,-3.7757,0.0,0.0,0.0,0.0,0.0,0.0,0.0,0.0,0.0,0.0,0.0,0.0,0.0,0.0,0.0,0.0,0.0,0.0,0.0,0.0,0.0,0.0,0.0,0.0,0.0,0.0,0.0,0.0,0.0,0.0,0.0,0.0,0.0,0.0,0.0,0.0,0.0,0.0,0.0,0.0,0.0,0.0,0.0,0.0,0.0,0.0,0.0,0.0,0.0,0.0,0.0,0.0,0.0,0.0,0.0,0.0,0.0,0.0,0.0,0.0,0.0,0.0,0.0,0.0,0.0,0.0,0.0,0.0,0.0,0.0,0.0,0.0,0.0,0.0,0.0,0.0,0.0,0.0,0.0,0.0,0.0,0.0,0.0,0.0,0.0,0.0,0.0,0.0,0.0,0.0,0.0,0.0,0.0,0.0,0.0,0.0,0.0,0.0,0.0,0.0,0.0,0.0,0.0,0.0,0.0,0.0,0.0,-3.6603,-4.0585,-4.3181,-4.4085,-4.4498,-4.4489,-4.3585,-4.0296,-3.4436,0.0,0.0,0.0,0.0,0.0,0.0,0.0,0.0,0.0,0.0,0.0,0.0,0.0,0.0,0.0,0.0,0.0,0.0,0.0,0.0,0.0,0.0,0.0,0.0,0.0,0.0,0.0,0.0,0.0,0.0,0.0,0.0,0.0,0.0,0.0,0.0,0.0,0.0,-1.7638,-2.1177,0.0,0.0,0.0,0.0,0.0,0.0,0.0,0.0,-1.9794,0.0,0.0,0.0,0.0,0.0,0.0,0.0,0.0,0.0,0.0,0.0,0.0,0.0,0.0,0.0,0.0,0.0,0.0,0.0,0.0,0.0,0.0,0.0,0.0,0.0,0.0,0.0,0.0,0.0,0.0,0.0,0.0,0.0,0.0,0.0,0.0,0.0,0.0,0.0,0.0,0.0,0.0,0.0,0.0,0.0,0.0,0.0,0.0,0.0,0.0,0.0,0.0,0.0,0.0,0.0,0.0,-3.5577,-3.8065,-4.0854,-4.4008,-4.494,-4.5383,-4.5344,-4.3912,-4.0315,-3.4494,0.0,0.0,0.0,0.0,0.0,0.0,0.0,0.0,0.0,0.0,0.0,0.0,0.0,0.0,0.0,0.0,0.0,0.0,0.0,0.0,0.0,0.0,0.0,0.0,0.0,0.0,0.0,0.0,0.0,0.0,0.0,0.0,0.0,0.0,0.0,0.0,0.0,0.0,0.0,-2.5717,-2.6799,0.0,0.0,0.0,0.0,0.0,0.0,0.0,0.0,-2.093,0.0,0.0,0.0,0.0,0.0,0.0,0.0,0.0,0.0,0.0,0.0,0.0,0.0,0.0,0.0,0.0,0.0,0.0,0.0,0.0,0.0,0.0,0.0,0.0,0.0,0.0,0.0,0.0,0.0,0.0,0.0,0.0,0.0,0.0,0.0,0.0,0.0,0.0,0.0,0.0,0.0,0.0,0.0,0.0,0.0,0.0,0.0,0.0,0.0,0.0,0.0,0.0,0.0,0.0,0.0,-3.4699,-3.8604,-4.1797,-4.4201,-4.4729,-4.5124,-4.5537,-4.3989,-4.0527,0.0,0.0,0.0,0.0,0.0,0.0,0.0,0.0,0.0,0.0,0.0,0.0,0.0,0.0,0.0,0.0,0.0,0.0,0.0,0.0,0.0,0.0,0.0,0.0,0.0,0.0,0.0,0.0,0.0,0.0,0.0,0.0,0.0,0.0,0.0,0.0,0.0,0.0,0.0,0.0,-2.7499,-2.9051,-3.0344,0.0,0.0,0.0,0.0,0.0,0.0,-2.2951,-2.187,0.0,0.0,0.0,0.0,0.0,0.0,0.0,0.0,0.0,0.0,0.0,0.0,0.0,0.0,0.0,0.0,0.0,0.0,0.0,0.0,0.0,0.0,0.0,0.0,0.0,0.0,0.0,0.0,0.0,0.0,0.0,0.0,0.0,0.0,0.0,0.0,0.0,0.0,0.0,0.0,0.0,0.0,0.0,0.0,0.0,0.0,0.0,0.0,0.0,0.0,0.0,0.0,0.0,0.0,0.0,-3.3487,-3.845,-4.2104,-4.4162,-4.4143,-4.4393,-4.5056,-4.3643,-4.0373,0.0,0.0,0.0,0.0,0.0,0.0,0.0,0.0,0.0,0.0,0.0,0.0,0.0,0.0,0.0,0.0,0.0,0.0,0.0,0.0,0.0,0.0,0.0,0.0,0.0,0.0,0.0,0.0,0.0,0.0,0.0,0.0,0.0,0.0,0.0,0.0,0.0,0.0,0.0,0.0,0.0,-3.11,-3.3339,-3.0681,0.0,0.0,0.0,0.0,-2.6034,-2.5279,0.0,0.0,0.0,0.0,0.0,0.0,0.0,0.0,0.0,0.0,0.0,0.0,0.0,0.0,0.0,0.0,0.0,0.0,0.0,0.0,0.0,0.0,0.0,0.0,0.0,0.0,0.0,0.0,0.0,0.0,0.0,0.0,0.0,0.0,0.0,0.0,0.0,0.0,0.0,0.0,0.0,0.0,0.0,0.0,0.0,0.0,0.0,0.0,0.0,0.0,0.0,0.0,0.0,0.0,0.0,0.0,-3.5038,-3.7315,-4.0335,-4.4047,-4.3605,-4.3297,-4.3374,-4.2442,-3.92,0.0,0.0,0.0,0.0,0.0,0.0,0.0,0.0,0.0,0.0,0.0,0.0,0.0,0.0,0.0,0.0,0.0,0.0,0.0,0.0,0.0,0.0,0.0,0.0,0.0,0.0,0.0,0.0,0.0,0.0,0.0,0.0,0.0,0.0,0.0,0.0,0.0,0.0,0.0,0.0,0.0,-3.3352,-3.2158,-3.1013,-3.0442,0.0,0.0,-2.9588,-3.257,-3.1698,0.0,0.0,0.0,0.0,0.0,0.0,0.0,0.0,0.0,0.0,0.0,0.0,0.0,0.0,0.0,0.0,0.0,0.0,0.0,0.0,0.0,0.0,0.0,0.0,0.0,0.0,0.0,0.0,0.0,0.0,0.0,0.0,0.0,0.0,0.0,0.0,0.0,0.0,0.0,0.0,0.0,0.0,0.0,0.0,0.0,0.0,0.0,0.0,0.0,0.0,0.0,0.0,0.0,0.0,0.0,-3.1237,-3.4737,-3.8315,-4.1296,-4.3489,-4.2797,-4.2604,-4.3085,-4.2258,-3.9008,0.0,0.0,0.0,0.0,0.0,0.0,0.0,0.0,0.0,0.0,0.0,0.0,0.0,0.0,0.0,0.0,0.0,0.0,0.0,0.0,0.0,0.0,0.0,0.0,0.0,0.0,0.0,0.0,0.0,0.0,0.0,0.0,0.0,0.0,0.0,0.0,0.0,0.0,0.0,0.0,0.0,0.0,-3.5053,-3.342,0.0,0.0,0.0,-3.2624,-3.413,0.0,0.0,0.0,0.0,0.0,0.0,0.0,0.0,0.0,0.0,0.0,0.0,0.0,0.0,0.0,0.0,0.0,0.0,0.0,0.0,0.0,0.0,0.0,0.0,0.0,0.0,0.0,0.0,0.0,0.0,0.0,0.0,0.0,0.0,0.0,0.0,0.0,0.0,0.0,0.0,0.0,0.0,0.0,0.0,0.0,0.0,0.0,0.0,0.0,0.0,0.0,0.0,0.0,0.0,0.0,0.0,0.0,-3.4545,-3.9315,-4.2104,-4.272,-4.1931,-4.1797,-4.2412,-4.1797,0.0,0.0,0.0,0.0,0.0,0.0,0.0,0.0,0.0,0.0,0.0,0.0,0.0,0.0,0.0,0.0,0.0,0.0,0.0,0.0,0.0,0.0,0.0,0.0,0.0,0.0,0.0,-1.1791,0.0,0.0,0.0,0.0,0.0,0.0,0.0,0.0,0.0,0.0,0.0,0.0,0.0,0.0,-3.33,-3.7145,-3.5786,-3.5432,0.0,0.0,-3.56,-3.6284,-3.5963,-3.4277,0.0,0.0,0.0,0.0,0.0,0.0,0.0,0.0,0.0,0.0,0.0,0.0,0.0,0.0,0.0,0.0,0.0,0.0,0.0,0.0,0.0,0.0,0.0,0.0,0.0,0.0,0.0,0.0,0.0,0.0,0.0,0.0,0.0,0.0,0.0,0.0,0.0,0.0,0.0,0.0,0.0,0.0,0.0,0.0,0.0,0.0,0.0,0.0,0.0,0.0,0.0,0.0,0.0,0.0,-3.2929,-3.5442,-3.9615,-4.1854,-4.1865,-4.1027,-4.0612,-4.0669,-4.0631,-3.7841,0.0,0.0,0.0,0.0,0.0,0.0,0.0,0.0,0.0,0.0,0.0,0.0,0.0,0.0,0.0,0.0,0.0,0.0,0.0,0.0,0.0,0.0,0.0,0.0,0.0,0.0,0.0,0.0,0.0,0.0,0.0,0.0,0.0,0.0,0.0,0.0,0.0,0.0,0.0,0.0,0.0,-3.3106,-3.6337,-3.7422,-3.8493,0.0,0.0,-3.8777,-4.121,-4.0145,-3.7109,-3.1441,0.0,0.0,0.0,0.0,0.0,0.0,0.0,0.0,0.0,0.0,0.0,0.0,0.0,0.0,0.0,0.0,0.0,0.0,0.0,0.0,0.0,0.0,0.0,0.0,0.0,0.0,0.0,0.0,0.0,0.0,0.0,0.0,0.0,0.0,0.0,0.0,0.0,0.0,0.0,0.0,0.0,0.0,0.0,0.0,0.0,0.0,0.0,0.0,0.0,0.0,0.0,0.0,0.0,-3.3277,-3.4744,-4.0467,-4.2937,-4.1862,-4.2008,-4.1854,-4.1296,-4.1316,-3.9258,0.0,0.0,0.0,0.0,0.0,0.0,0.0,0.0,0.0,0.0,0.0,0.0,0.0,0.0,0.0,0.0,0.0,0.0,0.0,0.0,0.0,0.0,0.0,0.0,0.0,0.0,0.0,0.0,-1.9004,-1.9081,-1.7834,0.0,0.0,0.0,0.0,0.0,0.0,0.0,0.0,0.0,0.0,-3.5786,-3.804,-3.9233,0.0,0.0,-4.1484,-4.1459,-4.3567,-4.0972,-3.7797,-3.5026,-3.1002,0.0,0.0,0.0,0.0,0.0,0.0,0.0,0.0,0.0,0.0,0.0,0.0,0.0,0.0,0.0,0.0,0.0,0.0,0.0,0.0,0.0,0.0,0.0,0.0,0.0,0.0,0.0,0.0,0.0,0.0,0.0,0.0,0.0,0.0,0.0,0.0,0.0,0.0,0.0,0.0,0.0,0.0,0.0,0.0,0.0,0.0,0.0,0.0,0.0,0.0,0.0,0.0,-3.3461,-3.4956,-4.0997,-4.3503,-4.222,-4.2797,-4.2816,-4.2212,-4.1931,-4.0212,0.0,0.0,0.0,0.0,0.0,0.0,0.0,0.0,0.0,0.0,0.0,0.0,0.0,0.0,0.0,0.0,0.0,0.0,0.0,0.0,0.0,0.0,0.0,0.0,0.0,0.0,0.0,0.0,-2.0235,-1.9465,-1.7215,0.0,0.0,0.0,0.0,0.0,0.0,0.0,0.0,0.0,0.0,-3.8343,-4.025,-4.0951,-4.1643,-4.267,-4.2079,-4.19,-4.2929,-4.0806,-3.8426,-3.6618,0.0,0.0,0.0,0.0,0.0,0.0,0.0,0.0,0.0,0.0,0.0,0.0,0.0,0.0,0.0,0.0,0.0,0.0,0.0,0.0,0.0,0.0,0.0,0.0,0.0,0.0,0.0,0.0,0.0,0.0,-1.8027,0.0,0.0,0.0,0.0,0.0,0.0,0.0,0.0,0.0,0.0,0.0,0.0,0.0,0.0,0.0,0.0,0.0,0.0,0.0,0.0,0.0,0.0,-3.3451,-3.6629,-4.1055,-4.3232,-4.3082,-4.3104,-4.3124,-4.3066,-4.2277,-4.0212,-3.6834,0.0,0.0,0.0,0.0,0.0,0.0,0.0,0.0,0.0,0.0,0.0,0.0,0.0,0.0,0.0,0.0,0.0,0.0,0.0,0.0,0.0,0.0,0.0,0.0,0.0,0.0,-1.6872,-1.7372,-1.7215,0.0,0.0,0.0,0.0,0.0,0.0,0.0,0.0,0.0,0.0,-3.7695,-4.0272,-4.2716,-4.2515,-4.1905,-4.1244,-4.043,-3.9605,-3.912,-3.9891,-3.933,0.0,0.0,0.0,0.0,0.0,0.0,0.0,0.0,0.0,0.0,0.0,0.0,0.0,0.0,0.0,0.0,0.0,0.0,0.0,0.0,0.0,0.0,0.0,0.0,0.0,0.0,0.0,-2.4727,-2.3144,0.0,0.0,0.0,0.0,0.0,0.0,0.0,0.0,0.0,0.0,0.0,-3.1413,-3.3319,0.0,0.0,0.0,0.0,0.0,0.0,0.0,0.0,0.0,0.0,0.0,0.0,-3.4486,-3.7816,-4.2539,-4.468,-4.4051,-4.4514,-4.4489,-4.3912,-4.3605,-4.1604,-3.77,0.0,0.0,0.0,0.0,0.0,0.0,0.0,0.0,0.0,0.0,0.0,0.0,0.0,0.0,0.0,0.0,0.0,0.0,0.0,0.0,0.0,0.0,0.0,0.0,0.0,-1.9331,0.0,0.0,0.0,0.0,0.0,0.0,0.0,0.0,0.0,0.0,0.0,-3.3139,-3.6895,-4.0081,-4.2404,-4.3353,-4.3715,-4.3619,0.0,0.0,0.0,0.0,0.0,0.0,0.0,0.0,0.0,0.0,0.0,0.0,0.0,0.0,-3.3545,-3.0198,-2.8871,-2.8467,-2.9019,0.0,0.0,0.0,0.0,0.0,0.0,0.0,0.0,0.0,0.0,0.0,0.0,0.0,0.0,-3.0625,0.0,-2.8691,0.0,0.0,0.0,0.0,0.0,0.0,0.0,0.0,-3.3983,-3.5596,-3.5475,-3.7923,-3.8334,0.0,-3.5948,-3.3652,0.0,0.0,0.0,0.0,0.0,0.0,0.0,0.0,-3.5607,-4.0016,-4.3631,-4.5313,-4.4989,-4.5383,-4.5479,-4.5201,-4.5201,-4.3758,-4.0719,-4.0054,-3.8277,0.0,0.0,0.0,0.0,0.0,0.0,0.0,0.0,0.0,0.0,0.0,0.0,0.0,0.0,0.0,0.0,0.0,0.0,0.0,0.0,0.0,0.0,0.0,-2.1735,0.0,0.0,0.0,0.0,0.0,0.0,0.0,0.0,0.0,-2.6593,-3.2399,-3.7642,-4.0622,-4.3445,-4.5267,-4.5362,0.0,0.0,0.0,0.0,0.0,0.0,0.0,-3.9639,-3.9256,-3.7026,-3.4986,-3.401,-3.5749,-3.6963,-3.5809,0.0,0.0,-3.375,-3.2314,-3.1885,-3.2481,-3.2827,-3.3115,-3.343,-3.4318,-3.4948,0.0,0.0,0.0,0.0,0.0,0.0,0.0,0.0,-3.7168,-3.6992,0.0,-3.6094,0.0,0.0,0.0,0.0,0.0,-3.2334,0.0,0.0,-4.1069,-4.2789,-4.2167,-4.2895,-4.3432,-4.3515,-4.2579,-4.0978,-3.8574,-3.4545,0.0,0.0,0.0,0.0,0.0,0.0,-3.6877,-4.313,-4.4285,-4.5104,-4.5764,-4.5708,-4.6056,-4.6874,-4.6932,-4.649,-4.5594,-4.2497,-4.0323,-3.9323,-3.3051,0.0,0.0,0.0,0.0,0.0,0.0,0.0,0.0,0.0,0.0,0.0,0.0,0.0,0.0,0.0,0.0,0.0,0.0,0.0,0.0,-2.4187,0.0,0.0,0.0,0.0,0.0,0.0,0.0,0.0,0.0,0.0,-3.3638,-3.6512,-4.0371,-4.5367,0.0,0.0,0.0,0.0,-4.5078,-4.5058,-4.2969,-4.1152,-4.0312,-4.266,-4.3784,-4.1439,0.0,0.0,-3.6842,-3.862,-3.9809,-3.6703,-3.8748,-4.023,-3.8443,-3.6136,-3.5026,-3.6462,-3.6308,-3.6642,-3.8873,-4.0392,-4.1895,-4.3197,0.0,0.0,0.0,0.0,-3.7545,-3.9552,-4.312,-4.277,-4.2215,-4.1465,-4.0727,0.0,0.0,0.0,0.0,0.0,0.0,-3.7773,-4.0669,-4.1833,-4.2916,-4.3934,-4.358,-4.3471,-4.3595,-4.3342,-4.3206,-4.3125,-4.1933,-3.6874,-2.8495,0.0,0.0,0.0,0.0,-4.0524,-4.3485,-4.4994,-4.5796,-4.6004,-4.6389,-4.697,-4.7721,-4.7759,-4.7644,-4.7375,-4.5874,-4.3835,-4.1162,-3.8084,0.0,0.0,0.0,0.0,0.0,0.0,0.0,0.0,0.0,0.0,0.0,0.0,0.0,0.0,0.0,0.0,0.0,0.0,0.0,-2.197,-2.6082,-2.7712,0.0,0.0,0.0,0.0,0.0,0.0,0.0,0.0,0.0,-3.8787,-4.1307,-4.3816,0.0,0.0,-4.818,-4.6325,-4.6503,-4.6621,-4.6016,-4.5293,0.0,0.0,-4.3199,-4.2947,-4.2734,-4.328,-4.3106,-4.1457,-4.1984,-4.2354,-4.131,-4.1903,-4.2304,-4.1757,-4.0099,-3.915,-4.0085,-4.0615,-4.1316,-4.2604,-4.3758,-4.4543,-4.8866,-4.5492,-4.2634,-4.2259,-4.3492,-4.2795,-4.4608,-4.8041,-4.7552,-4.7128,-4.6699,-4.5771,-4.3456,-4.0132,-3.8149,0.0,0.0,0.0,-4.1533,-4.4262,-4.4546,-4.4911,-4.5297,-4.5163,-4.4924,-4.4654,-4.4323,-4.4624,-4.5508,-4.5176,-4.1094,-3.375,0.0,0.0,-3.6855,-3.9707,-4.2558,-4.5137,-4.5802,-4.6108,-4.6126,-4.7072,-4.796,-4.8735,-4.9068,-4.9037,-4.869,-4.8179,-4.6778,-4.4385,-4.1739,-3.9207,0.0,0.0,0.0,0.0,0.0,0.0,0.0,0.0,0.0,0.0,0.0,-1.9212,-1.6195,0.0,0.0,0.0,-2.3928,-2.5332,-2.7346,-3.0481,0.0,0.0,0.0,0.0,0.0,0.0,0.0,-3.4427,-3.7454,-4.0449,-4.334,-4.5034,-4.6419,-4.7695,-4.9023,-4.9316,-4.7773,0.0,-4.8457,-4.791,-4.7558,-4.7011,-4.6123,-4.5401,-4.4826,-4.449,-4.4209,-4.388,-4.3523,-4.3482,-4.3519,-4.3509,-4.3382,-4.3396,-4.3746,-4.2807,-4.2143,-4.2701,-4.3489,-4.4335,-4.5163,-4.5759,-4.6223,-5.3491,-5.3112,-4.762,-4.6626,-4.8585,-4.798,-4.9047,-5.1252,-5.1279,-5.1328,-5.1348,-5.0605,-4.8495,-4.5311,-4.2076,0.0,-4.4229,-4.4845,-4.603,-4.7736,-4.8476,-4.799,-4.6562,-4.7246,-4.7148,-4.6289,-4.5547,-4.5605,-4.6328,-4.5605,-4.4101,-4.1953,-4.1699,-4.2246,-4.3379,-4.2305,-4.3613,-4.7383,-4.6644,-4.6288,-4.644,-4.7852,-4.9026,-4.9877,-5.0565,-5.0502,-4.9746,-4.9502,-4.899,-4.8029,-4.4327,-4.1816,-4.0804,0.0,0.0,0.0,0.0,0.0,0.0,0.0,0.0,0.0,0.0,0.0,0.0,0.0,0.0,-2.9357,-3.416,0.0,-3.6538,-3.5962,0.0,0.0,0.0,-3.0737,-3.1255,-3.4085,-3.6403,-3.7484,0.0,0.0,-4.7187,-4.7715,-4.8418,-5.0078,-5.0937,-5.1348,-5.1211,-5.0586,-5.0273,-5.0058,-4.9473,-4.8691,-4.7793,-4.8125,-4.7947,-4.6404,-4.5658,-4.4958,-4.4139,-4.3937,-4.3926,-4.4004,-4.3817,-4.3988,-4.4762,-4.4814,-4.4701,-4.4778,-4.5306,-4.6047,-4.6894,-4.724,-4.775,-5.5421,-5.513,-5.3116,-5.2208,-5.202,-5.197,-5.1979,-5.205,-5.2135,-5.1896,-5.1387,-5.108,-5.0474,-4.9574,-4.8181,-4.8237,-4.9367,-4.8945,-4.9362,-5.0387,-4.9915,-4.9199,-4.8281,-4.7812,-4.7148,-4.6367,-4.6758,-4.709,-4.7266,-4.709,-4.7363,-4.793,-4.6074,-4.3984,-4.1973,-4.4629,-4.623,-4.6601,-4.703,-4.784,-4.9035,-4.943,-4.9994,-5.0787,-5.0849,-5.0792,-5.0598,-4.9811,-4.9009,-4.8125,-4.6538,-4.5297,-4.4363,-3.6526,0.0,0.0,0.0,0.0,0.0,0.0,0.0,0.0,0.0,-2.7684,-2.3225,0.0,-2.8423,0.0,-3.8,-3.9,-3.5187,-3.5776,0.0,0.0,-3.3385,-3.3467,-3.8632,-3.8352,-3.8834,-4.1737,-4.4014,-4.5937,-4.7422,-4.8769,-4.9941,-5.0976,-5.1269,-5.0957,-4.9746,-5.0488,-5.0898,-5.0332,-5.0019,-4.959,-4.8808,-4.875,-4.8516,-4.742,-4.709,-4.6679,-4.5801,-4.5664,-4.5683,-4.5723,-4.6038,-4.634,-4.6556,-4.7407,-4.8094,-4.8144,-4.7836,-4.7759,-4.8625,-4.9298,-4.9885,-5.6181,-5.608,-5.5573,-5.5031,-5.4478,-5.3649,-5.3146,-5.2884,-5.2957,-5.2811,-5.2539,-5.2083,-5.1632,-5.1213,-5.0814,-5.0864,-5.1255,-5.0825,-5.0912,-5.1367,-5.0852,-5.0228,-4.9473,-4.8984,-4.8301,-4.748,-4.7949,-4.8183,-4.8183,-4.8183,-4.8691,-4.959,-4.8555,-4.6894,-4.4805,-4.6601,-4.7168,-4.6308,-4.7539,-4.8788,-5.0045,-5.0103,-4.9887,-4.9507,-5.047,-5.0242,-4.8715,-4.9491,-4.8875,-4.6547,-4.597,-4.5182,-4.3893,-3.8642,-3.5968,0.0,0.0,0.0,0.0,0.0,0.0,0.0,0.0,0.0,0.0,0.0,-3.316,-3.5327,-3.9673,-4.0758,-3.6841,-3.7969,-3.9123,-3.9508,-3.7925,-3.8343,-4.213,-4.1416,-4.1559,-4.3901,-4.5423,-4.6797,-4.8027,-4.9355,-5.0488,-5.1289,-5.1387,-5.1074,-5.0312,-5.0859,-5.123,-5.0801,-5.0723,-5.043,-4.9609,-4.9141,-4.8613,-4.7812,-4.7617,-4.7422,-4.6973,-4.6875,-4.6992,-4.7363,-4.764,-4.7898,-4.8293,-4.8859,-4.9481,-4.9817,-4.9606,-4.9471,-4.9875,-5.0385,-5.0683,-5.6313,-5.6403,-5.6264,-5.6207,-5.6078,-5.434,-5.365,-5.3784,-5.3822,-5.3886,-5.3965,-5.3203,-5.2441,-5.1719,-5.1601,-5.1562,-5.1562,-5.1445,-5.1387,-5.1387,-5.1387,-5.0976,-5.0215,-5.0195,-4.9746,-4.8906,-4.9004,-4.9082,-4.9062,-4.916,-4.9277,-4.9414,-5.0039,-4.998,-4.9219,-4.8457,-4.7676,-4.6836,-4.8086,-4.916,-5.0019,-5.0039,-4.9256,-4.7772,-4.9779,-4.9508,-4.6557,-4.8935,-4.8623,-4.4913,-4.4643,-4.3932,-4.2354,-4.1046,-3.9053,0.0,-3.5462,0.0,0.0,0.0,0.0,0.0,0.0,0.0,0.0,-3.9181,-3.9277,-3.6558,-4.0623,-4.2508,-4.0323,-4.1239,-4.2266,-4.2991,-4.3174,-4.3239,-4.3366,-4.361,-4.4163,-4.51,-4.6048,-4.7266,-4.8848,-4.9824,-5.0644,-5.1269,-5.1387,-5.1348,-5.1348,-5.1348,-5.1387,-5.1387,-5.1387,-5.1055,-5.0449,-4.9746,-4.9023,-4.8223,-4.8066,-4.7871,-4.7793,-4.7773,-4.7988,-4.8613,-4.8705,-4.8949,-4.9775,-4.9803,-5.0067,-5.0894,-5.1048,-5.0933,-5.0702,-5.0654,-5.0721,-5.6463,-5.6389,-5.6374,-5.6285,-5.6172,-5.5785,-5.5331,-5.483,-5.4942,-5.4607,-5.4004,-5.3828,-5.3672,-5.3457,-5.2754,-5.2461,-5.2422,-5.1719,-5.1387,-5.1387,-5.1387,-5.0976,-5.0234,-5.0195,-4.9746,-4.8984,-4.9629,-4.9941,-4.9961,-5.0605,-5.1289,-5.1953,-5.1426,-5.1094,-5.0918,0.0,0.0,0.0,-4.8398,-4.8262,-4.9101,-4.916,-4.8965,-4.8651,-4.9653,0.0,-4.9114,-4.8865,-4.8055,-4.6518,-4.6413,0.0,0.0,0.0,0.0,0.0,0.0,0.0,0.0,0.0,0.0,0.0,-3.9335,-3.9681,-3.9892,-4.3835,-4.4816,-4.1123,-4.3374,-4.494,-4.444,-4.3431,-4.2927,-4.3143,-4.3195,-4.3513,-4.4287,-4.4565,-4.5217,-4.6757,-4.7786,-4.8789,-4.9766,-5.0664,-5.1191,-5.1348,-5.1387,-5.1387,-5.1387,-5.1387,-5.1387,-5.1387,-5.1387,-5.1348,-5.1211,-5.0996,-5.0586,-4.9922,-4.9707,-4.9453,-4.8906,-4.8711,-4.8652,-4.8903,-4.9191,-4.9817,-5.0526,-5.1031,-5.1635,-5.2529,-5.2683,-5.2318,-5.0991,-5.0712,-5.0894,-5.656,0.0,-5.649,-5.6458,0.0,-5.6411,-5.6194,-5.5825,-5.5845,-5.5385,-5.4648,-5.4629,-5.4414,-5.3984,-5.3535,-5.334,-5.332,-5.2891,-5.2441,-5.2051,-5.2031,-5.1601,-5.0781,-5.0781,-5.0566,-5.0156,-5.0566,-5.0801,-5.084,-5.1641,-5.2266,-5.2695,-5.3105,-5.3125,-5.2695,-5.2266,-5.1621,-5.0801,-4.9922,-4.9902,-5.0723,-5.0371,-4.9706,-4.8861,0.0,0.0,0.0,0.0,0.0,0.0,0.0,0.0,0.0,0.0,0.0,-4.1066,-3.9142,-3.795,-3.7969,-3.8726,-4.0277,-4.2824,-4.4586,-4.5374,-4.4913,-4.6874,-4.7394,-4.5759,-4.6009,-4.6413,-4.674,-4.5336,-4.4501,-4.4959,-4.4724,-4.4749,-4.525,-4.585,-4.6552,-4.7412,-4.8689,-4.9746,-5.0137,-5.0527,-5.0976,-5.1308,-5.1035,-5.0957,-5.1308,-5.1387,-5.1387,-5.1387,-5.1387,-5.1562,-5.1933,-5.2031,-5.1933,-5.1523,-5.1426,-5.125,-5.0859,-5.0781,-5.0857,-5.113,-5.1495,-5.18,-5.2007,-5.2345,-5.2683,-5.3087,-5.3203,-5.2991,-5.2087,-5.1933,-5.2029,-5.6621,-5.6621,-5.6621,-5.6621,-5.6621,-5.6621,-5.6621,-5.6582,0.0,0.0,0.0,-5.5527,-5.5137,-5.4473,-5.4297,-5.4238,-5.4219,-5.4062,-5.3613,-5.293,-5.2773,-5.2324,-5.1641,-5.1621,-5.1641,-5.1641,-5.1777,-5.1855,-5.1894,-5.2734,-5.3164,-5.332,-5.4746,-5.5039,-5.4023,-5.3301,-5.25,-5.166,-5.1191,-5.1387,-5.2207,-5.1543,-5.0524,-4.9169,-4.976,-4.8612,-4.5583,-4.7017,-4.6249,-4.2739,-4.3162,-4.2893,-4.1516,-4.142,-4.2056,-4.3401,-4.355,-4.3569,-4.3574,-4.4297,-4.5201,-4.6191,-4.8336,-4.9625,-4.9625,-4.8971,-4.8856,-4.9567,-4.824,-4.7625,-4.824,-4.6836,-4.6123,-4.6831,-4.6325,-4.5884,-4.5979,-4.6752,-4.7324,-4.7715,-4.8789,-4.9805,-4.9902,-4.9961,-5.0273,-5.0898,-5.0644,-5.0508,-5.1191,-5.1387,-5.1387,-5.1387,-5.1562,-5.1933,-5.248,-5.2871,-5.291,-5.2871,-5.2891,-5.293,-5.293,-5.293,-5.3144,-5.337,-5.3665,-5.3538,-5.3546,-5.3494,-5.3482,-5.3626,-5.3664,-5.3645,-5.3645,-5.3645,-5.3606,-5.6621,-5.6621,-5.6621,-5.6621,-5.6621,-5.6621,-5.6621,-5.6621,-5.6582,-5.6523,-5.6406,-5.6406,-5.6367,-5.6191,-5.5449,-5.5098,-5.5058,-5.4336,-5.3926,0.0,-5.3047,-5.2656,-5.2519,-5.2519,-5.2519,-5.2578,-5.3262,-5.3633,-5.373,-5.4492,-5.4941,-5.5019,-5.5937,-5.5586,-5.4121,-5.3867,-5.3398,-5.25,-5.0351,-4.9668,-5.0527,-5.043,-5.0541,-5.085,-5.1059,-5.0486,-4.8968,-4.7872,-4.6629,-4.5158,-4.5171,-4.5114,-4.491,-4.4904,-4.5112,-4.5235,-4.536,-4.5382,-4.5265,-4.6047,-4.7201,-4.8721,-4.9904,-5.0519,-5.051,-5.0414,-5.0385,-5.0462,-4.9548,-4.9086,-4.9125,-4.7721,-4.6829,-4.69,-4.6344,-4.5936,-4.6042,-4.6406,-4.6875,-4.7519,-4.7773,-4.8398,-4.9043,-4.9121,-4.9433,-5.0137,-5.0508,-5.0566,-5.1269,-5.1387,-5.1387,-5.1504,-5.2051,-5.2519,-5.291,-5.3379,-5.3769,-5.3808,-5.3867,-5.3926,-5.3926,-5.3926,-5.3926,-5.3712,-5.3794,-5.3903,-5.4245,-5.433,-5.453,-5.4991,-5.5126,-5.5184,-5.5145,-5.5184,-5.503,-5.6621,-5.6621,-5.6621,-5.6621,-5.6621,-5.6621,-5.6621,-5.6621,-5.6621,-5.6621,-5.6621,-5.6621,-5.6621,-5.6562,-5.6172,-5.6015,-5.5976,-5.5605,-5.5176,-5.4687,-5.4297,-5.3867,-5.3437,-5.3398,-5.3418,-5.3437,-5.3808,-5.3984,-5.4062,-5.4863,-5.5293,-5.5332,-5.5703,-5.5254,-5.4082,-5.3984,-5.3789,-5.3379,-5.1797,-5.1621,-5.291,-5.2433,-5.2561,-5.3386,-5.2075,-5.0777,-4.9837,-4.8107,-4.6693,-4.5734,-4.5662,-4.5594,-4.5603,-4.5737,-4.5782,-4.5723,-4.5802,-4.582,-4.5703,-4.6868,-4.8298,-4.9952,-5.0462,-5.0683,-5.0683,-5.0683,-5.0683,-5.0683,-5.0327,-4.9894,-4.9452,-4.8702,-4.792,-4.7023,-4.6655,-4.6367,-4.6196,-4.7032,-4.759,-4.7715,-4.8437,-4.8984,-4.8906,-4.8476,-4.875,-4.9941,-5.0879,-5.168,-5.207,-5.25,-5.2617,-5.2266,-5.2441,-5.3125,-5.3906,-5.4414,-5.4863,-5.5293,-5.539,-5.541,-5.541,-5.539,-5.5273,-5.5067,-5.4985,-5.5029,-5.5152,-5.5145,-5.5338,-5.5511,-5.5684,-5.5684,-5.5684,-5.5684,-5.5549,-5.6621,-5.6621,-5.6621,-5.6621,-5.6621,-5.6621,-5.6621,-5.6621,-5.6621,-5.6621,-5.6621,-5.6621,-5.6621,-5.6621,-5.6621,-5.6601,-5.6621,-5.6621,-5.623,-5.5605,-5.539,-5.4941,-5.4355,-5.4277,-5.4297,-5.4297,-5.4297,-5.4297,-5.4355,-5.4785,-5.5,-5.5019,-5.5019,-5.4668,-5.4004,-5.3984,-5.4082,-5.4238,-5.3613,-5.3945,-5.5215,-5.4515,-5.4589,-5.5306,-5.3306,-5.1681,-5.079,-4.9041,-4.7621,-4.672,-4.6356,-4.629,-4.6459,-4.66,-4.6681,-4.6674,-4.6726,-4.6629,-4.6426,-4.7615,-4.8971,-5.0289,-5.0596,-5.0683,-5.0683,-5.0683,-5.0683,-5.0683,-5.0664,-5.0404,-4.9817,-4.9471,-4.8798,-4.7384,-4.7059,-4.6655,-4.6163,-4.7226,-4.7902,-4.7515,-4.8496,-4.8945,-4.8418,-4.791,-4.8437,-5.0254,-5.1933,-5.293,-5.3066,-5.3594,-5.3672,-5.3496,-5.3301,-5.3789,-5.5098,-5.5469,-5.582,-5.6543,-5.6543,-5.6445,-5.6465,-5.6543,-5.6465,-5.6147,-5.6114,-5.5941,-5.5731,-5.5665,-5.5665,-5.5684,-5.5684,-5.5684,-5.5684,-5.5684,-5.5684,-5.6621,-5.6621,-5.6621,-5.6621,-5.6621,-5.6621,-5.6621,-5.6621,-5.6621,-5.6621,-5.6621,-5.6621,-5.6621,-5.6621,-5.6621,-5.6621,-5.6621,-5.6621,-5.6543,-5.6367,-5.5664,-5.5254,-5.5176,-5.5156,-5.5176,-5.5156,-5.5098,-5.5019,-5.5,-5.4453,-5.4121,-5.4121,-5.4121,-5.4082,-5.3984,-5.3984,-5.4394,-5.5156,-5.5117,-5.5137,-5.5273,-5.5215,-5.552,-5.6246,-5.5381,-5.4389,-5.3163,-5.1746,-5.0381,-4.9324,-4.8468,-4.8346,-4.8929,-4.9272,-4.9354,-4.9239,-4.9315,-4.9004,-4.8088,-4.8769,-4.9336,-4.9548,-5.0289,-5.0683,-5.0683,-5.0683,-5.0683,-5.0693,-5.0693,-5.0558,-5.0558,-4.9837,-4.8971,-4.7922,-4.738,-4.6687,-4.6111,-4.6115,-4.6308,-4.6251,-4.7044,-4.666,-4.7129,-4.7598,-4.8808,-5.0996,-5.2793,-5.3887,-5.3906,-5.4121,-5.4473,-5.4844,-5.5039,-5.5058,-5.543,-5.5996,-5.6367,-5.6601,-5.6621,-5.6621,-5.6621,-5.6601,-5.6514,-5.6284,-5.6211,-5.609,-5.5836,-5.5684,-5.5684,-5.5684,-5.5684,-5.5684,-5.5684,-5.5684,-5.5684,-5.6621,-5.6621,-5.6621,-5.6621,-5.6621,-5.6621,-5.6621,-5.6621,-5.6621,-5.6621,-5.6621,-5.6621,-5.6621,-5.6621,-5.6621,-5.6621,-5.6621,-5.6621,-5.6621,-5.6582,-5.6211,-5.6055,-5.6035,-5.5527,-5.5293,-5.5234,-5.4785,-5.4512,-5.4473,-5.416,-5.373,-5.334,-5.373,-5.375,-5.3359,-5.4238,-5.4961,-5.5312,-5.582,-5.6074,-5.6055,-5.6007,-5.6137,-5.6377,-5.5649,-5.4786,-5.3836,-5.2681,-5.1593,-5.0564,-5.0054,-4.9943,-5.0144,-5.031,-5.0428,-5.0458,-5.0038,-4.9771,-4.9702,-4.9526,-4.9625,-5.0125,-5.05,-5.0683,-5.0683,-5.0683,-5.0683,-5.0635,-5.025,-4.9913,-4.9913,-4.9606,-4.8856,-4.773,-4.7512,-4.7341,-4.6615,-4.7037,-4.7445,-4.7672,-4.8566,-4.8976,-4.8906,-4.9785,-5.0957,-5.2226,-5.3672,-5.4707,-5.4785,-5.5195,-5.5664,-5.5957,-5.6074,-5.6055,-5.6094,-5.6328,-5.6582,-5.6621,-5.6621,-5.6621,-5.6601,-5.6601,-5.6504,-5.623,-5.6191,-5.6077,-5.5749,-5.5705,-5.5684,-5.5684,-5.5684,-5.5684,-5.5684,-5.5684,-5.5684,-5.6621,-5.6621,-5.6621,-5.6621,-5.6621,-5.6621,-5.6621,-5.6621,-5.6621,-5.6621,-5.6621,-5.6621,-5.6621,-5.6621,-5.6621,-5.6621,-5.6621,-5.6621,-5.6621,-5.6621,-5.6621,-5.6465,-5.6191,-5.5625,-5.5176,-5.4824,-5.4062,-5.3516,-5.332,-5.3281,-5.2969,-5.2519,-5.2969,-5.3203,-5.3223,-5.4394,-5.5195,-5.5683,-5.6308,-5.6621,-5.6582,-5.6492,-5.651,-5.6523,-5.5886,-5.526,-5.4707,-5.3839,-5.2972,-5.2193,-5.1837,-5.166,-5.1742,-5.1827,-5.1927,-5.1991,-5.127,-5.0985,-5.1415,-5.0604,-5.0452,-5.1202,-5.102,-5.0808,-5.0943,-5.0846,-5.0712,-5.0635,-4.9913,-4.949,-4.974,-4.976,-4.9106,-4.7855,-4.8144,-4.812,-4.7461,-4.7935,-4.8314,-4.8686,-4.9613,-5.0951,-5.1074,-5.2031,-5.3027,-5.3535,-5.4687,-5.5644,-5.5723,-5.6172,-5.6562,-5.6621,-5.6601,-5.6582,-5.6621,-5.6601,-5.6621,-5.6621,-5.6601,-5.6601,-5.656,-5.6543,-5.6445,-5.615,-5.6152,-5.6037,-5.5789,-5.5695,-5.5684,-5.5684,-5.5684,-5.5684,-5.5684,-5.5684,-5.5684,-5.6621,-5.6621,-5.6621,-5.6621,-5.6621,-5.6621,-5.6621,-5.6621,-5.6621,-5.6621,-5.6621,-5.6621,-5.6621,-5.6621,-5.6621,-5.6621,-5.6621,-5.6621,-5.6621,-5.6621,-5.6621,-5.6152,-5.5371,-5.5293,-5.4844,-5.4023,-5.3164,-5.2383,-5.166,-5.1601,-5.1504,-5.1523,-5.1758,-5.2461,-5.375,-5.418,-5.4941,-5.6308,-5.6543,-5.6621,-5.6601,-5.6601,-5.6601,-5.6582,-5.6523,-5.6426,-5.6308,-5.5605,-5.4999,-5.4733,-5.391,-5.3721,-5.4227,-5.4403,-5.4409,-5.4359,-5.3654,-5.3133,-5.2964,-5.2212,-5.2038,-5.2626,-5.1625,-5.1048,-5.1596,-5.1164,-5.0818,-5.0731,-5.001,-4.9779,-5.0394,-5.0385,-5.0106,-4.9375,-4.9279,-4.8951,-4.8239,-4.8438,-4.8324,-4.8664,-4.9761,-5.1201,-5.248,-5.3379,-5.4297,-5.5019,-5.5937,-5.6445,-5.6406,-5.6543,-5.6582,-5.6601,-5.6582,-5.6582,-5.6601,-5.6621,-5.6621,-5.6621,-5.6601,-5.6562,-5.6481,-5.6367,-5.6213,-5.6058,-5.601,-5.5919,-5.5759,-5.5684,-5.5684,-5.5684,-5.5684,-5.5684,-5.5684,-5.5684,-5.5684,-5.6621,-5.6621,-5.6621,-5.6621,-5.6621,-5.6621,-5.6621,-5.6621,-5.6621,-5.6621,-5.6621,-5.6621,-5.6621,-5.6621,-5.6621,-5.6621,-5.6621,-5.6621,-5.6621,-5.6621,-5.6621,-5.6133,-5.5312,-5.4746,-5.4023,-5.3144,-5.2305,-5.1719,-5.1445,-5.1387,-5.1699,-5.2285,-5.2793,-5.3691,-5.4726,-5.539,-5.6015,-5.6523,-5.6621,-5.6621,-5.6621,-5.6621,-5.6621,-5.6621,-5.6621,-5.6621,-5.6621,-5.6289,-5.6045,-5.5863,-5.5463,-5.5294,-5.5384,-5.5429,-5.5432,-5.5296,-5.465,-5.4169,-5.3965,-5.3222,-5.2577,-5.2365,-5.2395,-5.2087,-5.1904,-5.1645,-5.1471,-5.1318,-5.0702,-5.0462,-5.0462,-5.0231,-4.999,-5.0202,-5.024,-5.0337,-5.0385,-5.0142,-5.0047,-5.0729,-5.1749,-5.3137,-5.4531,-5.5449,-5.5781,-5.6094,-5.6426,-5.6562,-5.6582,-5.6517,-5.6508,-5.6558,-5.646,-5.6414,-5.6601,-5.6621,-5.6621,-5.6621,-5.6601,-5.6523,-5.6448,-5.6358,-5.6232,-5.5996,-5.5899,-5.5833,-5.5728,-5.5684,-5.5684,-5.5684,-5.5684,-5.5684,-5.5684,-5.5684,-5.5684,-5.6621,-5.6621,-5.6621,-5.6621,-5.6621,-5.6621,-5.6621,-5.6621,-5.6621,-5.6621,-5.6621,-5.6621,-5.6621,-5.6621,-5.6621,-5.6621,-5.6621,-5.6621,-5.6621,-5.6621,-5.6621,-5.5996,-5.4922,-5.4277,-5.3379,-5.2422,-5.2012,-5.1816,-5.1875,-5.2109,-5.2539,-5.3125,-5.373,-5.4433,-5.5254,-5.5898,-5.6269,-5.6523,-5.6621,-5.6621,-5.6621,-5.6621,-5.6621,-5.6621,-5.6621,-5.6621,-5.6621,-5.6621,-5.6537,-5.6416,-5.6313,-5.6156,-5.5936,-5.5904,-5.5833,-5.5661,-5.5258,-5.4987,-5.4802,-5.4087,-5.3491,-5.3135,-5.2846,-5.2635,-5.2645,-5.201,-5.1702,-5.1645,-5.1183,-5.0683,-5.0596,-5.0192,-5.0183,-5.0952,-5.1337,-5.1568,-5.1827,-5.1375,-5.1565,-5.2341,-5.3346,-5.4764,-5.6161,-5.6465,-5.6543,-5.6601,-5.6581,-5.6537,-5.6515,-5.6424,-5.6365,-5.6448,-5.6324,-5.6309,-5.6416,-5.6465,-5.6504,-5.6504,-5.6484,-5.6426,-5.6342,-5.6293,-5.6173,-5.5936,-5.5844,-5.5789,-5.5739,-5.5724,-5.5742,-5.5761,-5.5684,-5.5684,-5.5684,-5.5684,-5.5684,-5.6621,-5.6621,-5.6621,-5.6621,-5.6621,-5.6621,-5.6621,-5.6621,-5.6621,-5.6621,-5.6621,-5.6621,-5.6621,-5.6621,-5.6621,-5.6621,-5.6621,-5.6621,-5.6621,-5.6621,-5.6621,-5.5683,-5.416,-5.4043,-5.3183,-5.1777,-5.2344,-5.2695,-5.2734,-5.3379,-5.3828,-5.3984,-5.4062,-5.4609,-5.5351,-5.5566,-5.5859,-5.6426,-5.6621,-5.6621,-5.6621,-5.6621,-5.6621,-5.6621,-5.6621,-5.6621,-5.6621,-5.6621,-5.6539,-5.6445,-5.6408,-5.6236,-5.5988,-5.5912,-5.5842,-5.5748,-5.5658,-5.5656,-5.5579,-5.4914,-5.4799,-5.4799,-5.3414,-5.2991,-5.3664,-5.2395,-5.1491,-5.1972,-5.1375,-5.0789,-5.0808,-5.0837,-5.1068,-5.1808,-5.2414,-5.2645,-5.225,-5.2,-5.23,-5.3302,-5.4231,-5.5258,-5.609,-5.651,-5.6582,-5.6562,-5.6488,-5.6419,-5.6386,-5.6292,-5.6207,-5.6212,-5.6164,-5.6127,-5.6203,-5.6289,-5.6348,-5.6367,-5.6328,-5.6284,-5.6119,-5.6039,-5.5996,-5.5836,-5.6107,-5.6094,-5.6209,-5.6203,-5.6338,-5.6338,-5.6088,-5.5934,-5.5983,-5.6022,-5.5742,-5.6621,-5.6621,-5.6621,-5.6621,-5.6621,-5.6621,-5.6621,-5.6621,-5.6621,-5.6621,-5.6621,-5.6621,-5.6621,-5.6621,-5.6621,-5.6621,-5.6621,-5.6621,-5.6621,-5.6621,-5.6601,-5.5664,-5.4258,-5.3984,-5.3398,-5.2617,-5.3183,-5.3594,-5.3633,-5.3906,-5.4277,-5.4765,-5.4902,-5.5351,-5.6113,-5.6191,-5.6387,-5.6562,-5.6621,-5.6621,-5.6621,-5.6621,-5.6621,-5.6621,-5.6621,-5.6621,-5.6621,-5.6621,-5.6582,-5.6543,-5.6452,-5.6297,-5.6127,-5.5974,-5.5891,-5.5833,-5.5739,-5.5684,-5.5665,-5.5472,-5.5145,-5.4953,-5.4549,-5.4472,-5.4472,-5.3741,-5.3299,-5.3472,-5.2414,-5.1529,-5.1606,-5.2106,-5.2164,-5.1942,-5.2654,-5.3433,-5.3453,-5.3549,-5.387,-5.4188,-5.4578,-5.5238,-5.6078,-5.6434,-5.6458,-5.6458,-5.6397,-5.6348,-5.6256,-5.6109,-5.6071,-5.6158,-5.605,-5.5967,-5.6058,-5.6097,-5.6065,-5.6136,-5.615,-5.6116,-5.5963,-5.5877,-5.5808,-5.6,-5.6265,-5.6522,-5.6637,-5.6838,-5.7011,-5.7069,-5.6973,-5.678,-5.6599,-5.6272,-5.5857,-5.6621,-5.6621,-5.6621,-5.6621,-5.6621,-5.6621,-5.6621,-5.6621,-5.6621,-5.6621,-5.6621,-5.6621,-5.6621,-5.6621,-5.6621,-5.6621,-5.6621,-5.6621,-5.6621,-5.6523,-5.6211,-5.5332,-5.4062,-5.3633,-5.3496,-5.3418,-5.4062,-5.4473,-5.4492,-5.4824,-5.5254,-5.5703,-5.5781,-5.6015,-5.6562,-5.6621,-5.6621,-5.6621,-5.6621,-5.6621,-5.6621,-5.6621,-5.6621,-5.6621,-5.6621,-5.6621,-5.6621,-5.6621,-5.6621,-5.6601,-5.6533,-5.6416,-5.6269,-5.6115,-5.5981,-5.5872,-5.577,-5.5684,-5.5684,-5.5665,-5.5511,-5.5126,-5.5145,-5.5222,-5.4838,-5.4549,-5.4107,-5.4222,-5.2895,-5.1904,-5.1962,-5.201,-5.201,-5.1548,-5.3145,-5.3953,-5.4184,-5.403,-5.3802,-5.3769,-5.4199,-5.497,-5.5555,-5.6196,-5.6281,-5.632,-5.6249,-5.6188,-5.6078,-5.5939,-5.5963,-5.5975,-5.5852,-5.5863,-5.5951,-5.591,-5.5816,-5.5874,-5.5971,-5.5927,-5.5825,-5.5817,-5.5798,-5.6316,-5.6676,-5.7099,-5.728,-5.7665,-5.7915,-5.7877,-5.778,-5.7157,-5.6695,-5.6126,-5.5761,-5.6621,-5.6621,-5.6621,-5.6621,-5.6621,-5.6621,-5.6621,-5.6621,-5.6621,-5.6621,-5.6621,-5.6621,-5.6621,-5.6621,-5.6621,-5.6621,-5.6621,-5.6621,-5.6621,-5.6328,-5.5723,-5.4785,-5.4199,-5.3457,-5.3457,-5.4141,-5.4961,-5.5351,-5.539,-5.5996,-5.6582,-5.6484,-5.6484,-5.6582,-5.6621,-5.6621,-5.6621,-5.6621,-5.6621,-5.6621,-5.6621,-5.6621,-5.6621,-5.6621,-5.6621,-5.6621,-5.6621,-5.6621,-5.6621,-5.6621,-5.6582,-5.6515,-5.6408,-5.6284,-5.609,-5.5932,-5.5779,-5.5716,-5.5684,-5.5684,-5.5665,-5.5549,-5.5107,-5.4857,-5.5318,-5.4549,-5.4087,-5.4549,-5.3222,-5.2173,-5.2,-5.1645,-5.127,-5.1404,-5.3472,-5.4395,-5.3606,-5.3491,-5.3415,-5.3013,-5.3692,-5.477,-5.5016,-5.5747,-5.6067,-5.6144,-5.6032,-5.5954,-5.5891,-5.5817,-5.5728,-5.5705,-5.5717,-5.5739,-5.5844,-5.5834,-5.576,-5.5779,-5.5834,-5.5798,-5.5885,-5.5932,-5.6085,-5.6601,-5.7291,-5.7665,-5.8107,-5.8569,-5.8838,-5.8896,-5.8377,-5.7445,-5.6838,-5.6472,-5.5857,-5.6621,-5.6621,-5.6621,-5.6621,-5.6621,-5.6621,-5.6621,-5.6621,-5.6621,-5.6621,-5.6621,-5.6621,-5.6621,-5.6621,-5.6621,-5.6621,-5.6621,-5.6621,-5.6621,-5.6348,-5.5,-5.4726,-5.4707,-5.4101,-5.4121,-5.498,-5.5742,-5.6269,-5.6269,-5.6465,-5.6621,-5.6621,-5.6621,-5.6621,-5.6621,-5.6621,-5.6621,-5.6621,-5.6621,-5.6621,-5.6621,-5.6621,-5.6621,-5.6621,-5.6621,-5.6621,-5.6621,-5.6621,-5.6621,-5.6621,-5.6621,-5.6523,-5.6414,-5.626,-5.609,-5.5912,-5.577,-5.5684,-5.5684,-5.5684,-5.5684,-5.5684,-5.5472,-5.5472,-5.5645,-5.5318,-5.5145,-5.5203,-5.4376,-5.3491,-5.2972,-5.2549,-5.2683,-5.3395,-5.3799,-5.4241,-5.4664,-5.453,-5.4241,-5.4636,-5.4573,-5.4842,-5.5321,-5.5723,-5.5962,-5.5974,-5.5939,-5.5857,-5.5789,-5.5759,-5.5684,-5.5684,-5.5705,-5.5695,-5.5726,-5.5729,-5.5719,-5.5707,-5.5738,-5.5748,-5.5957,-5.6265,-5.6533,-5.6964,-5.8069,-5.8665,-5.9184,-5.9704,-5.98,-5.9781,-5.9108,-5.8261,-5.7761,-5.73,-5.6338,-5.6621,-5.6621,-5.6621,-5.6621,-5.6621,-5.6621,-5.6621,-5.6621,-5.6621,-5.6621,-5.6621,-5.6621,-5.6621,-5.6621,-5.6621,-5.6621,-5.6621,-5.6621,-5.6562,-5.623,-5.4746,-5.4297,-5.4551,-5.4473,-5.5,-5.582,-5.6348,-5.6562,-5.6582,-5.6621,-5.6621,-5.6621,-5.6621,-5.6621,-5.6621,-5.6621,-5.6621,-5.6621,-5.6621,-5.6621,-5.6621,-5.6621,-5.6621,-5.6621,-5.6621,-5.6621,-5.6621,-5.6621,-5.6621,-5.6601,-5.6562,-5.6483,-5.6405,-5.6168,-5.6024,-5.5888,-5.5779,-5.5684,-5.5684,-5.5684,-5.5684,-5.5684,-5.5684,-5.5684,-5.5684,-5.5684,-5.5684,-5.5588,-5.4934,-5.4145,-5.3299,-5.2626,-5.2626,-5.3049,-5.328,-5.3741,-5.5068,-5.4703,-5.453,-5.4626,-5.4617,-5.4667,-5.5305,-5.5584,-5.5777,-5.5816,-5.5835,-5.5769,-5.5737,-5.5705,-5.5684,-5.5684,-5.5684,-5.5684,-5.5684,-5.5716,-5.5707,-5.5695,-5.5684,-5.5684,-5.6107,-5.6541,-5.7049,-5.7627,-5.8742,-5.9627,-6.0031,-6.0358,-6.0416,-6.0204,-5.9665,-5.8973,-5.83,-5.7453,-5.6569,-5.6621,-5.6621,-5.6621,-5.6621,-5.6621,-5.6621,-5.6621,-5.6621,-5.6621,-5.6621,-5.6621,-5.6621,-5.6621,-5.6621,-5.6621,-5.6621,-5.6621,-5.6621,-5.6269,-5.5751,-5.4801,-5.435,-5.4121,-5.4629,-5.543,-5.6328,-5.6582,-5.6621,-5.6621,-5.6621,-5.6621,-5.6621,-5.6621,-5.6621,-5.6621,-5.6621,-5.6621,-5.6621,-5.6621,-5.6621,-5.6621,-5.6621,-5.6621,-5.6621,-5.6621,-5.6621,-5.6621,-5.6601,-5.6582,-5.6582,-5.6477,-5.6386,-5.6331,-5.6039,-5.5904,-5.5868,-5.576,-5.5684,-5.5684,-5.5684,-5.5684,-5.5684,-5.5684,-5.5684,-5.5684,-5.5684,-5.5684,-5.5684,-5.5049,-5.4299,-5.3183,-5.1779,-5.1548,-5.2299,-5.2914,-5.3568,-5.4337,-5.4549,-5.4222,-5.3606,-5.4203,-5.4414,-5.478,-5.5184,-5.5705,-5.5759,-5.5739,-5.5728,-5.5705,-5.5695,-5.5684,-5.5684,-5.5684,-5.5684,-5.5684,-5.5695,-5.5695,-5.5684,-5.5684,-5.5799,-5.631,-5.681,-5.7473,-5.8261,-5.9242,-5.9973,-6.0492,-6.0723,-6.08,-6.0454,-5.9838,-5.905,-5.8223,-5.7261,-5.6349,-5.6621,-5.6621,-5.6621,-5.6621,-5.6621,-5.6621,-5.6621,-5.6621,-5.6621,-5.6621,-5.6621,-5.6621,-5.6621,-5.6621,-5.6621,-5.6621,-5.6601,-5.6523,-5.5859,-5.455,-5.5611,-5.4914,-5.42,-5.4238,-5.5156,-5.623,-5.6621,-5.6621,-5.6621,-5.6621,-5.6621,-5.6621,-5.6621,-5.6621,-5.6621,-5.6621,-5.6621,-5.6621,-5.6621,-5.6621,-5.6621,-5.6621,-5.6621,-5.6621,-5.6621,-5.6621,-5.6621,-5.6621,-5.6562,-5.6477,-5.6411,-5.627,-5.6077,-5.5959,-5.5859,-5.5769,-5.5728,-5.5684,-5.5684,-5.5684,-5.5684,-5.5684,-5.5684,-5.5684,-5.5684,-5.5684,-5.5684,-5.5684,-5.5491,-5.4626,-5.3203,-5.1645,-5.1471,-5.2299,-5.2991,-5.3741,-5.4914,-5.4876,-5.4703,-5.4895,-5.4722,-5.4722,-5.5318,-5.5453,-5.5684,-5.5684,-5.5684,-5.5684,-5.5684,-5.5684,-5.5684,-5.5684,-5.5684,-5.5684,-5.5684,-5.5684,-5.5684,-5.5684,-5.5684,-5.6018,-5.6519,-5.7184,-5.7896,-5.8723,-5.9627,-6.0262,-6.0742,-6.08,-6.08,-6.0377,-5.9954,-5.9165,-5.828,-5.7223,-5.6329,-5.6621,-5.6621,-5.6621,-5.6621,-5.6621,-5.6621,-5.6621,-5.6621,-5.6621,-5.6621,-5.6621,-5.6621,-5.6621,-5.6621,-5.6621,-5.6621,-5.6582,-5.6497,-5.5526,-5.435,-5.4752,-5.4596,-5.4105,-5.4082,-5.4883,-5.6367,-5.6621,-5.6621,-5.6621,-5.6621,-5.6621,-5.6621,-5.6621,-5.6621,-5.6621,-5.6621,-5.6621,-5.6621,-5.6621,-5.6621,-5.6621,-5.6621,-5.6621,-5.6621,-5.6621,-5.6621,-5.6621,-5.6621,-5.6504,-5.6368,-5.6285,-5.6168,-5.5924,-5.5842,-5.5769,-5.5726,-5.5684,-5.5684,-5.5684,-5.5684,-5.5684,-5.5684,-5.5684,-5.5684,-5.5684,-5.5684,-5.5684,-5.5607,-5.5222,-5.4414,-5.2779,-5.1548,-5.1414,-5.1837,-5.2779,-5.3606,-5.4357,-5.4799,-5.5184,-5.553,-5.5318,-5.5338,-5.5549,-5.5665,-5.5684,-5.5684,-5.5684,-5.5684,-5.5684,-5.5684,-5.5684,-5.5684,-5.5684,-5.5684,-5.5684,-5.5684,-5.5684,-5.5684,-5.5684,-5.6222,-5.684,-5.7581,-5.8357,-5.9169,-5.9922,-6.0377,-6.08,-6.08,-6.0762,-6.0531,-6.0069,-5.9281,-5.8415,-5.7415,-5.6541,-5.6621,-5.6621,-5.6621,-5.6621,-5.6621,-5.6621,-5.6621,-5.6621,-5.6621,-5.6621,-5.6621,-5.6621,-5.6621,-5.6621,-5.6621,-5.6621,-5.6504,-5.6096,-5.512,-5.3988,-5.3901,-5.394,-5.3813,-5.4238,-5.5078,-5.6484,-5.6621,-5.6621,-5.6621,-5.6621,-5.6621,-5.6621,-5.6621,-5.6621,-5.6621,-5.6621,-5.6621,-5.6621,-5.6621,-5.6621,-5.6621,-5.6621,-5.6621,-5.6621,-5.6621,-5.6621,-5.6601,-5.6562,-5.6456,-5.6217,-5.6169,-5.6051,-5.5891,-5.576,-5.5684,-5.5684,-5.5684,-5.5684,-5.5684,-5.5684,-5.5684,-5.5684,-5.5684,-5.5684,-5.5684,-5.5684,-5.5684,-5.5357,-5.4857,-5.3683,-5.2096,-5.1202,-5.0875,-5.126,-5.2375,-5.3126,-5.3645,-5.478,-5.5511,-5.5665,-5.5588,-5.5588,-5.5626,-5.5684,-5.5684,-5.5684,-5.5684,-5.5684,-5.5684,-5.5684,-5.5684,-5.5684,-5.5684,-5.5684,-5.5684,-5.5695,-5.5695,-5.5729,-5.5728,-5.6445,-5.7142,-5.7844,-5.8604,-5.94,-6.0063,-6.055,-6.0793,-6.08,-6.0742,-6.0646,-6.0108,-5.9281,-5.8434,-5.7607,-5.6761,-5.6621,-5.6621,-5.6621,-5.6621,-5.6621,-5.6621,-5.6621,-5.6621,-5.6621,-5.6621,-5.6621,-5.6621,-5.6621,-5.6621,-5.6621,-5.6601,-5.6328,-5.5714,-5.4675,-5.3716,-5.3611,-5.3669,-5.3813,-5.4551,-5.5547,-5.6328,-5.6621,-5.6621,-5.6621,-5.6621,-5.6621,-5.6621,-5.6621,-5.6621,-5.6621,-5.6621,-5.6621,-5.6621,-5.6621,-5.6621,-5.6621,-5.6621,-5.6621,-5.6601,-5.6582,-5.6582,-5.6562,-5.6484,-5.6368,-5.6202,-5.6045,-5.5902,-5.5779,-5.5707,-5.5695,-5.5684,-5.5684,-5.5684,-5.5684,-5.5684,-5.5684,-5.5684,-5.5684,-5.5684,-5.5684,-5.5675,-5.559,-5.5178,-5.4282,-5.3041,-5.2029,-5.1174,-5.1126,-5.1654,-5.2491,-5.3414,-5.4126,-5.4972,-5.5645,-5.5684,-5.5684,-5.5684,-5.5684,-5.5684,-5.5684,-5.5684,-5.5684,-5.5684,-5.5684,-5.5684,-5.5684,-5.5684,-5.5684,-5.5684,-5.5684,-5.5705,-5.5726,-5.5789,-5.5991,-5.6733,-5.7422,-5.8097,-5.8846,-5.9804,-6.0344,-6.0702,-6.0842,-6.0853,-6.0847,-6.0836,-6.0096,-5.9323,-5.8528,-5.7752,-5.683,-5.6621,-5.6621,-5.6621,-5.6621,-5.6621,-5.6621,-5.6621,-5.6621,-5.6621,-5.6621,-5.6621,-5.6621,-5.6621,-5.6621,-5.6621,-5.6387,-5.582,-5.5433,-5.4329,-5.3407,-5.3463,-5.3697,-5.3798,-5.4738,-5.5683,-5.6367,-5.6621,-5.6621,-5.6621,-5.6621,-5.6621,-5.6621,-5.6621,-5.6621,-5.6621,-5.6621,-5.6621,-5.6621,-5.6621,-5.6621,-5.6621,-5.6601,-5.6601,-5.6582,-5.6517,-5.649,-5.6462,-5.6371,-5.6227,-5.6045,-5.5939,-5.5843,-5.5739,-5.5684,-5.5684,-5.5684,-5.5684,-5.5684,-5.5684,-5.5684,-5.5684,-5.5684,-5.5684,-5.5684,-5.5684,-5.5637,-5.5363,-5.4563,-5.4138,-5.2872,-5.162,-5.1075,-5.1048,-5.1457,-5.2454,-5.3329,-5.3982,-5.5012,-5.5495,-5.5717,-5.5716,-5.5716,-5.5684,-5.5684,-5.5684,-5.5684,-5.5695,-5.5705,-5.5716,-5.5707,-5.5728,-5.5684,-5.5684,-5.5684,-5.5684,-5.5695,-5.5738,-5.5798,-5.6087,-5.6839,-5.7666,-5.8311,-5.9378,-6.0471,-6.0829,-6.0954,-6.1046,-6.1112,-6.107,-6.1019,-6.0548,-5.993,-5.8818,-5.7862,-5.7026,-5.6621,-5.6621,-5.6621,-5.6621,-5.6621,-5.6621,-5.6621,-5.6621,-5.6621,-5.6621,-5.6621,-5.6621,-5.6621,-5.6621,-5.6504,-5.6152,-5.5332,-5.5135,-5.4102,-5.3218,-5.2969,-5.3306,-5.3974,-5.4559,-5.543,-5.6484,-5.6621,-5.6621,-5.6621,-5.6621,-5.6621,-5.6621,-5.6621,-5.6621,-5.6621,-5.6621,-5.6621,-5.6621,-5.6621,-5.6621,-5.6621,-5.6581,-5.6541,-5.6539,-5.6445,-5.6345,-5.6338,-5.6222,-5.6084,-5.5951,-5.5866,-5.5817,-5.5717,-5.5684,-5.5684,-5.5684,-5.5684,-5.5684,-5.5684,-5.5684,-5.5684,-5.5684,-5.5684,-5.5716,-5.5682,-5.5479,-5.4972,-5.38,-5.3229,-5.2697,-5.1439,-5.1017,-5.1075,-5.1525,-5.2484,-5.3473,-5.4059,-5.4849,-5.5706,-5.5844,-5.5779,-5.5738,-5.5728,-5.5684,-5.5684,-5.5738,-5.5748,-5.5779,-5.5789,-5.5789,-5.5769,-5.5707,-5.5684,-5.5684,-5.5684,-5.5684,-5.5739,-5.5816,-5.6112,-5.668,-5.7622,-5.8532,-5.9659,-6.0721,-6.1083,-6.1194,-6.1289,-6.1309,-6.1226,-6.1147,-6.1081,-6.0502,-5.9377,-5.8403,-5.7544,-5.6621,-5.6621,-5.6621,-5.6621,-5.6621,-5.6621,-5.6621,-5.6621,-5.6621,-5.6621,-5.6621,-5.6621,-5.6621,-5.6621,-5.6621,-5.6113,-5.5312,-5.458,-5.4058,-5.3442,-5.2689,-5.2923,-5.3715,-5.3959,-5.5308,-5.6406,-5.6621,-5.6621,-5.6621,-5.6621,-5.6621,-5.6621,-5.6621,-5.6621,-5.6621,-5.6621,-5.6621,-5.6621,-5.6621,-5.6621,-5.6582,-5.6488,-5.6432,-5.6391,-5.6289,-5.6217,-5.6177,-5.6051,-5.5912,-5.5904,-5.5789,-5.5728,-5.5684,-5.5684,-5.5684,-5.5684,-5.5684,-5.5684,-5.5684,-5.5684,-5.5684,-5.5684,-5.5684,-5.5779,-5.5706,-5.5324,-5.4678,-5.3716,-5.3006,-5.2212,-5.1408,-5.1108,-5.1424,-5.205,-5.2846,-5.3818,-5.453,-5.5101,-5.5911,-5.6001,-5.5939,-5.5844,-5.5789,-5.5738,-5.5695,-5.5758,-5.5798,-5.5842,-5.5857,-5.5859,-5.5834,-5.5779,-5.5705,-5.5684,-5.5684,-5.5684,-5.5738,-5.5798,-5.607,-5.6564,-5.7676,-5.8704,-5.9702,-6.0594,-6.1028,-6.1368,-6.1392,-6.1393,-6.1337,-6.1289,-6.1226,-6.0672,-5.9902,-5.8974,-5.817,-5.6621,-5.6621,-5.6621,-5.6621,-5.6621,-5.6621,-5.6621,-5.6621,-5.6621,-5.6621,-5.6621,-5.6621,-5.6621,-5.6562,-5.6621,-5.6113,-5.5351,-5.4805,-5.4336,-5.4121,-5.3526,-5.3778,-5.4595,-5.5123,-5.6003,-5.6289,-5.6601,-5.6621,-5.6601,-5.6601,-5.6621,-5.6621,-5.6621,-5.6621,-5.6621,-5.6621,-5.6621,-5.6621,-5.6621,-5.6621,-5.6562,-5.6483,-5.6389,-5.6383,-5.6167,-5.6058,-5.5988,-5.5877,-5.5833,-5.5857,-5.5824,-5.5816,-5.5816,-5.5798,-5.5789,-5.5684,-5.5684,-5.5684,-5.5684,-5.5684,-5.5684,-5.5695,-5.5705,-5.5769,-5.573,-5.5308,-5.4609,-5.3795,-5.3005,-5.2168,-5.1445,-5.1235,-5.1665,-5.2313,-5.3147,-5.3978,-5.4826,-5.5633,-5.6178,-5.6152,-5.6121,-5.6037,-5.5943,-5.5894,-5.5879,-5.5879,-5.5967,-5.6057,-5.601,-5.5955,-5.5899,-5.5842,-5.576,-5.5684,-5.5684,-5.5684,-5.5724,-5.5759,-5.576,-5.6463,-5.7793,-5.8873,-5.9754,-6.0629,-6.1277,-6.1481,-6.1504,-6.1445,-6.1387,-6.1387,-6.1389,-6.0808,-6.0229,-5.9852,-5.8925,-5.6621,-5.6621,-5.6621,-5.6621,-5.6621,-5.6621,-5.6621,-5.6621,-5.6621,-5.6621,-5.6621,-5.6582,-5.6484,-5.6387,-5.6406,-5.6133,-5.5312,-5.5293,-5.4922,-5.4687,-5.4639,-5.4854,-5.519,-5.579,-5.6136,-5.654,-5.6523,-5.6543,-5.6543,-5.6562,-5.6562,-5.6601,-5.6621,-5.6621,-5.6621,-5.6621,-5.6621,-5.6621,-5.6621,-5.6621,-5.6582,-5.6406,-5.6368,-5.6256,-5.6071,-5.584,-5.5833,-5.5816,-5.5815,-5.5874,-5.5966,-5.5981,-5.6001,-5.5924,-5.584,-5.5769,-5.5748,-5.5684,-5.5684,-5.5684,-5.5684,-5.5705,-5.5643,-5.5602,-5.5116,-5.4911,-5.4431,-5.3481,-5.2703,-5.2031,-5.1582,-5.1308,-5.1756,-5.2442,-5.3262,-5.407,-5.4902,-5.5781,-5.6328,-5.6342,-5.6324,-5.6251,-5.6167,-5.609,-5.6045,-5.6024,-5.6097,-5.6222,-5.6197,-5.6103,-5.6051,-5.5984,-5.5939,-5.5863,-5.577,-5.5769,-5.5749,-5.5758,-5.5749,-5.6413,-5.7805,-5.8773,-5.9562,-6.0444,-6.133,-6.1601,-6.1621,-6.1523,-6.1426,-6.1406,-6.1322,-6.1033,-6.0605,-6.0287,-5.9663,-5.6621,-5.6621,-5.6621,-5.6621,-5.6621,-5.6621,-5.6621,-5.6621,-5.6621,-5.6621,-5.6621,-5.6582,-5.6172,-5.584,-5.623,-5.6152,-5.5351,-5.5312,-5.5293,-5.5,-5.459,-5.4902,-5.5332,-5.5703,-5.589,-5.6358,-5.6454,-5.643,-5.6424,-5.6456,-5.6511,-5.6582,-5.6601,-5.6621,-5.6621,-5.6621,-5.6621,-5.6621,-5.6621,-5.6621,-5.6543,-5.6408,-5.6242,-5.6164,-5.5919,-5.5716,-5.5737,-5.5798,-5.5891,-5.5928,-5.6058,-5.5994,-5.5938,-5.5818,-5.5696,-5.5425,-5.5325,-5.532,-5.5434,-5.5607,-5.5665,-5.5719,-5.5547,-5.5052,-5.4259,-5.397,-5.3479,-5.2904,-5.2225,-5.1699,-5.1445,-5.1465,-5.1797,-5.2754,-5.3613,-5.4414,-5.5215,-5.5996,-5.6484,-5.6523,-5.6507,-5.6416,-5.6383,-5.6312,-5.6222,-5.6188,-5.6262,-5.6383,-5.6374,-5.6297,-5.6251,-5.6193,-5.6169,-5.6084,-5.5936,-5.5924,-5.5951,-5.593,-5.5885,-5.6724,-5.7871,-5.8672,-5.9021,-6.0297,-6.1133,-6.1426,-6.1601,-6.125,-6.1094,-6.1289,-6.1243,-6.0936,-6.0773,-6.0531,-5.9891,-5.6621,-5.6621,-5.6621,-5.6621,-5.6621,-5.6621,-5.6621,-5.6621,-5.6621,-5.6621,-5.6621,-5.6582,-5.6426,-5.6269,-5.6328,-5.6445,-5.6113,-5.6113,-5.6074,-5.6035,-5.584,-5.584,-5.6094,-5.6074,-5.6288,-5.6451,-5.6454,-5.6456,-5.6535,-5.6428,-5.6488,-5.6562,-5.6601,-5.6621,-5.6621,-5.6621,-5.6621,-5.6621,-5.6621,-5.6621,-5.6582,-5.6448,-5.6292,-5.6189,-5.5986,-5.5789,-5.5728,-5.5749,-5.5885,-5.6038,-5.6144,-5.5955,-5.5637,-5.5439,-5.5047,-5.4599,-5.442,-5.457,-5.5088,-5.5338,-5.5472,-5.49,-5.4589,-5.4091,-5.334,-5.3221,-5.2933,-5.2404,-5.1855,-5.1426,-5.1387,-5.1465,-5.1855,-5.3047,-5.3965,-5.4687,-5.5469,-5.6191,-5.6543,-5.6582,-5.6582,-5.6536,-5.6535,-5.6514,-5.6426,-5.6348,-5.6454,-5.6514,-5.6488,-5.6477,-5.6389,-5.6338,-5.6309,-5.6252,-5.6096,-5.6115,-5.6172,-5.6091,-5.6029,-5.6798,-5.7583,-5.7598,-5.8169,-5.9599,-6.073,-6.0918,-6.0937,-6.0723,-6.0859,-6.1308,-6.1191,-6.0836,-6.0721,-6.0729,-6.0252,-5.6621,-5.6621,-5.6621,-5.6621,-5.6621,-5.6621,-5.6621,-5.6621,-5.6621,-5.6621,-5.6621,-5.6621,-5.6621,-5.6621,-5.6601,-5.6601,-5.6523,-5.6543,-5.6582,-5.6523,-5.6484,-5.6621,-5.6621,-5.6562,-5.6483,-5.6537,-5.6462,-5.6456,-5.6511,-5.6448,-5.6507,-5.6562,-5.6621,-5.6621,-5.6621,-5.6621,-5.6621,-5.6621,-5.6621,-5.6621,-5.6601,-5.6421,-5.6309,-5.6181,-5.5996,-5.5885,-5.5852,-5.5899,-5.6065,-5.6183,-5.6171,-5.5825,-5.5354,-5.484,-5.4304,-5.3708,-5.3367,-5.3598,-5.4395,-5.4857,-5.4934,-5.4195,-5.3783,-5.3249,-5.2724,-5.247,-5.2448,-5.2052,-5.1621,-5.1387,-5.1387,-5.1445,-5.1894,-5.2949,-5.3711,-5.4473,-5.5449,-5.6211,-5.6445,-5.6601,-5.6601,-5.6601,-5.6582,-5.6582,-5.6543,-5.6465,-5.6523,-5.6562,-5.654,-5.6535,-5.6488,-5.6454,-5.6419,-5.6338,-5.626,-5.632,-5.6331,-5.6158,-5.6175,-5.6512,-5.7005,-5.7044,-5.7569,-5.8974,-5.9884,-6.0251,-6.0254,-6.0019,-6.0664,-6.1504,-6.1289,-6.1074,-6.0994,-6.1002,-6.085,-5.6621,-5.6621,-5.6621,-5.6621,-5.6621,-5.6621,-5.6621,-5.6621,-5.6621,-5.6621,-5.6621,-5.6621,-5.6621,-5.6621,-5.6621,-5.6621,-5.6621,-5.6621,-5.6621,-5.6621,-5.6621,-5.6621,-5.6621,-5.6601,-5.656,-5.6428,-5.6394,-5.6397,-5.645,-5.6416,-5.6484,-5.6562,-5.6621,-5.6621,-5.6621,-5.6621,-5.6621,-5.6621,-5.6621,-5.6582,-5.6406,-5.6263,-5.6241,-5.5956,-5.5952,-5.5883,-5.5868,-5.6003,-5.6086,-5.6013,-5.6059,-5.5576,-5.4762,-5.4469,-5.395,-5.3201,-5.3117,-5.354,-5.4357,-5.4472,-5.3972,-5.3318,-5.2888,-5.2404,-5.1583,-5.1597,-5.1959,-5.1514,-5.1348,-5.1348,-5.1387,-5.1465,-5.2031,-5.2734,-5.3496,-5.4355,-5.5332,-5.623,-5.6484,-5.6621,-5.6621,-5.6601,-5.6601,-5.6601,-5.6601,-5.6582,-5.6601,-5.6601,-5.6582,-5.6582,-5.6543,-5.6543,-5.6504,-5.6462,-5.6424,-5.6493,-5.6488,-5.6293,-5.6283,-5.6549,-5.6764,-5.6919,-5.7622,-5.8578,-5.8987,-5.9317,-5.9355,-5.9316,-6.0254,-6.1152,-6.1582,-6.1523,-6.1406,-6.1269,-6.1152,-5.6621,-5.6621,-5.6621,-5.6621,-5.6621,-5.6621,-5.6621,-5.6621,-5.6621,-5.6621,-5.6621,-5.6621,-5.6621,-5.6621,-5.6621,-5.6621,-5.6621,-5.6621,-5.6621,-5.6621,-5.6621,-5.6621,-5.6621,-5.6601,-5.6582,-5.6515,-5.6462,-5.6458,-5.6558,-5.6452,-5.6484,-5.6562,-5.6601,-5.6621,-5.6621,-5.6621,-5.6621,-5.6621,-5.6543,-5.6367,-5.5879,-5.6031,-5.5976,-5.5408,-5.5615,-5.5777,-5.574,-5.5896,-5.5858,-5.5503,-5.5441,-5.4776,-5.372,-5.3223,-5.2705,-5.2148,-5.2028,-5.2741,-5.3203,-5.3203,-5.2673,-5.2269,-5.1905,-5.1482,-5.0889,-5.1087,-5.1134,-5.1137,-5.1208,-5.1242,-5.1269,-5.1367,-5.1875,-5.2656,-5.3476,-5.4336,-5.5254,-5.6094,-5.6621,-5.6621,-5.6621,-5.6621,-5.6621,-5.6621,-5.6621,-5.6621,-5.6621,-5.6621,-5.6601,-5.6601,-5.6582,-5.6582,-5.6582,-5.6562,-5.6562,-5.6582,-5.6601,-5.6462,-5.6374,-5.6418,-5.6628,-5.6773,-5.7166,-5.7849,-5.8128,-5.8359,-5.8769,-5.9238,-6.0,-6.0703,-6.1113,-6.1543,-6.1562,-6.1523,-6.1523,-5.6621,-5.6621,-5.6621,-5.6621,-5.6621,-5.6621,-5.6621,-5.6621,-5.6621,-5.6621,-5.6621,-5.6621,-5.6621,-5.6621,-5.6621,-5.6621,-5.6621,-5.6621,-5.6621,-5.6621,-5.6621,-5.6621,-5.6621,-5.6621,-5.6601,-5.6582,-5.6523,-5.6512,-5.651,-5.6428,-5.6452,-5.651,-5.6537,-5.6562,-5.6582,-5.6621,-5.6621,-5.6621,-5.6543,-5.6211,-5.5742,-5.5509,-5.5353,-5.493,-5.4989,-5.5421,-5.5468,-5.5497,-5.5526,-5.4982,-5.4488,-5.3887,-5.2738,-5.2029,-5.1625,-5.1282,-5.1528,-5.2029,-5.2068,-5.2346,-5.1923,-5.151,-5.0952,-5.075,-5.0712,-5.0893,-5.0952,-5.0991,-5.1085,-5.1154,-5.123,-5.1328,-5.1797,-5.2598,-5.3398,-5.4258,-5.5117,-5.5976,-5.6562,-5.6582,-5.6621,-5.6621,-5.6621,-5.6621,-5.6621,-5.6621,-5.6621,-5.6621,-5.6621,-5.6621,-5.6621,-5.6621,-5.6621,-5.6582,-5.6582,-5.6601,-5.6601,-5.6601,-5.6534,-5.6424,-5.6419,-5.6574,-5.6849,-5.7069,-5.7321,-5.7734,-5.8574,-5.9219,-5.9668,-6.0137,-6.0605,-6.1074,-6.1543,-6.1387,-6.1094,-5.6621,-5.6621,-5.6621,-5.6621,-5.6621,-5.6621,-5.6621,-5.6621,-5.6621,-5.6621,-5.6621,-5.6621,-5.6621,-5.6621,-5.6621,-5.6621,-5.6621,-5.6621,-5.6621,-5.6621,-5.6621,-5.6621,-5.6621,-5.6621,-5.6621,-5.6621,-5.6582,-5.6515,-5.6426,-5.6394,-5.6416,-5.6419,-5.6428,-5.651,-5.6562,-5.6621,-5.6621,-5.6621,-5.6308,-5.582,-5.5215,-5.4905,-5.4411,-5.4099,-5.4333,-5.4752,-5.5056,-5.5444,-5.5423,-5.5081,-5.4612,-5.3553,-5.2655,-5.198,-5.1385,-5.1221,-5.1587,-5.1356,-5.1375,-5.1692,-5.1414,-5.101,-5.0779,-5.0683,-5.0721,-5.078,-5.0819,-5.0912,-5.104,-5.1117,-5.1211,-5.1445,-5.1699,-5.248,-5.3262,-5.4121,-5.5,-5.5723,-5.6308,-5.6523,-5.6601,-5.6621,-5.6621,-5.6621,-5.6621,-5.6621,-5.6621,-5.6621,-5.6621,-5.6621,-5.6621,-5.6621,-5.6621,-5.6621,-5.6621,-5.6621,-5.6621,-5.6621,-5.6543,-5.6456,-5.6441,-5.6426,-5.6645,-5.6777,-5.6655,-5.7051,-5.7773,-5.8437,-5.9023,-5.9492,-5.9863,-6.0312,-6.0723,-6.0176,-5.9883,-5.6621,-5.6621,-5.6621,-5.6621,-5.6621,-5.6621,-5.6621,-5.6621,-5.6621,-5.6621,-5.6621,-5.6621,-5.6621,-5.6621,-5.6621,-5.6621,-5.6621,-5.6621,-5.6621,-5.6621,-5.6621,-5.6621,-5.6621,-5.6621,-5.6621,-5.6621,-5.6601,-5.6581,-5.6515,-5.6456,-5.638,-5.6411,-5.638,-5.646,-5.6543,-5.6601,-5.6582,-5.6406,-5.6015,-5.5312,-5.459,-5.4141,-5.3482,-5.3182,-5.389,-5.4311,-5.4678,-5.5372,-5.5329,-5.4715,-5.3994,-5.2993,-5.2146,-5.1453,-5.0933,-5.1529,-5.1414,-5.1106,-5.1414,-5.1241,-5.0952,-5.0779,-5.0683,-5.0683,-5.0712,-5.074,-5.0764,-5.0844,-5.099,-5.1074,-5.1164,-5.1367,-5.1543,-5.2031,-5.2793,-5.3574,-5.4414,-5.5058,-5.5664,-5.6094,-5.6172,-5.6367,-5.6406,-5.6621,-5.6621,-5.6621,-5.6621,-5.6621,-5.6621,-5.6621,-5.6621,-5.6621,-5.6621,-5.6621,-5.6621,-5.6621,-5.6621,-5.6601,-5.6543,-5.6523,-5.6523,-5.6543,-5.6543,-5.6562,-5.6582,-5.666,-5.6894,-5.7617,-5.8496,-5.8594,-5.8926,-5.9414,-5.9707,-5.9238,-5.9004,-5.6621,-5.6621,-5.6621,-5.6621,-5.6621,-5.6621,-5.6621,-5.6621,-5.6621,-5.6621,-5.6621,-5.6621,-5.6621,-5.6621,-5.6621,-5.6621,-5.6621,-5.6621,-5.6621,-5.6621,-5.6621,-5.6621,-5.6621,-5.6621,-5.6621,-5.6621,-5.6601,-5.656,-5.649,-5.6319,-5.6193,-5.6313,-5.632,-5.643,-5.6543,-5.6582,-5.6348,-5.6015,-5.5508,-5.4785,-5.4097,-5.3357,-5.2582,-5.2305,-5.3308,-5.3888,-5.4241,-5.503,-5.5068,-5.4222,-5.3356,-5.2606,-5.1741,-5.0962,-5.0808,-5.1221,-5.1048,-5.0971,-5.1144,-5.0952,-5.076,-5.0683,-5.0683,-5.0683,-5.0683,-5.0712,-5.0702,-5.0738,-5.0903,-5.1042,-5.1133,-5.123,-5.1328,-5.1445,-5.2168,-5.291,-5.3613,-5.4297,-5.4844,-5.539,-5.5683,-5.5937,-5.6152,-5.6406,-5.6621,-5.6621,-5.6621,-5.6621,-5.6621,-5.6621,-5.6621,-5.6621,-5.6621,-5.6621,-5.6621,-5.6621,-5.6621,-5.6621,-5.6601,-5.6582,-5.6621,-5.6601,-5.6582,-5.6582,-5.6601,-5.666,-5.6719,-5.7324,-5.8027,-5.8027,-5.7988,-5.832,-5.8594,-5.8496,-5.8418,-5.6621,-5.6621,-5.6621,-5.6621,-5.6621,-5.6621,-5.6621,-5.6621,-5.6621,-5.6621,-5.6621,-5.6621,-5.6621,-5.6621,-5.6621,-5.6621,-5.6621,-5.6621,-5.6621,-5.6621,-5.6621,-5.6621,-5.6621,-5.6621,-5.6621,-5.6621,-5.6601,-5.6539,-5.6355,-5.6193,-5.615,-5.6222,-5.6227,-5.6361,-5.6582,-5.6348,-5.6015,-5.5547,-5.4941,-5.4255,-5.3555,-5.2723,-5.1905,-5.1543,-5.2383,-5.3356,-5.3799,-5.4376,-5.5011,-5.3991,-5.3049,-5.2433,-5.1347,-5.077,-5.077,-5.077,-5.075,-5.0789,-5.0856,-5.076,-5.0721,-5.0683,-5.0683,-5.0683,-5.0683,-5.0683,-5.0683,-5.0712,-5.0856,-5.1004,-5.1113,-5.1193,-5.1286,-5.1426,-5.1914,-5.2519,-5.3066,-5.373,-5.4336,-5.4765,-5.4941,-5.5234,-5.5703,-5.5957,-5.6328,-5.6465,-5.6621,-5.6621,-5.6582,-5.6582,-5.6621,-5.6621,-5.6621,-5.6621,-5.6621,-5.6621,-5.6621,-5.6621,-5.6601,-5.6621,-5.6621,-5.6621,-5.6621,-5.6621,-5.6621,-5.6621,-5.6758,-5.7226,-5.7383,-5.7207,-5.7207,-5.7265,-5.7402,-5.7598,-5.7656,-5.6621,-5.6621,-5.6621,-5.6621,-5.6621,-5.6621,-5.6621,-5.6621,-5.6621,-5.6621,-5.6621,-5.6621,-5.6621,-5.6621,-5.6621,-5.6621,-5.6621,-5.6621,-5.6621,-5.6621,-5.6621,-5.6621,-5.6621,-5.6621,-5.6621,-5.6621,-5.6582,-5.6536,-5.6383,-5.6227,-5.6183,-5.6317,-5.6273,-5.6345,-5.6406,-5.6055,-5.5508,-5.4941,-5.4199,-5.3564,-5.291,-5.2145,-5.1394,-5.183,-5.2751,-5.3531,-5.4145,-5.4972,-5.5376,-5.5049,-5.376,-5.2433,-5.0866,-5.0741,-5.0683,-5.0683,-5.0683,-5.0683,-5.0683,-5.0683,-5.0683,-5.0683,-5.0683,-5.0683,-5.0683,-5.0683,-5.0693,-5.0739,-5.0814,-5.0952,-5.1074,-5.117,-5.1269,-5.1465,-5.1641,-5.2109,-5.2578,-5.3164,-5.3789,-5.3984,-5.4141,-5.4551,-5.5039,-5.5508,-5.5957,-5.625,-5.6504,-5.6601,-5.6543,-5.6523,-5.6601,-5.6621,-5.6621,-5.6621,-5.6601,-5.6562,-5.6543,-5.6562,-5.6562,-5.6582,-5.6601,-5.6621,-5.6621,-5.6621,-5.6621,-5.6621,-5.6621,-5.6699,-5.6758,-5.668,-5.6719,-5.6914,-5.6894,-5.7031,-5.6953,-5.6621,-5.6621,-5.6621,-5.6621,-5.6621,-5.6621,-5.6621,-5.6621,-5.6621,-5.6621,-5.6621,-5.6621,-5.6621,-5.6621,-5.6621,-5.6621,-5.6621,-5.6621,-5.6621,-5.6621,-5.6621,-5.6621,-5.6621,-5.6621,-5.6621,-5.6601,-5.6601,-5.6536,-5.6397,-5.6342,-5.6331,-5.6383,-5.6308,-5.6152,-5.6055,-5.5488,-5.4844,-5.4121,-5.3359,-5.2938,-5.2451,-5.176,-5.1464,-5.2061,-5.281,-5.3645,-5.4453,-5.5184,-5.5318,-5.4818,-5.3433,-5.2164,-5.0991,-5.0702,-5.0683,-5.0683,-5.0683,-5.0683,-5.0683,-5.0683,-5.0683,-5.0683,-5.0683,-5.0683,-5.0683,-5.0683,-5.0683,-5.0721,-5.073,-5.0863,-5.1039,-5.1141,-5.1252,-5.1406,-5.1484,-5.1738,-5.1933,-5.2226,-5.2519,-5.2578,-5.291,-5.3476,-5.3965,-5.4453,-5.4863,-5.5137,-5.5527,-5.6035,-5.6094,-5.6387,-5.6484,-5.6601,-5.6601,-5.6543,-5.6504,-5.6465,-5.6445,-5.6465,-5.6545,-5.6543,-5.6562,-5.6601,-5.6621,-5.6621,-5.6621,-5.6621,-5.6621,-5.6621,-5.6621,-5.664,-5.664,-5.666,-5.6621,-5.6621,-5.666,-5.6621,-5.6621,-5.6621,-5.6621,-5.6621,-5.6621,-5.6621,-5.6621,-5.6621,-5.6621,-5.6621,-5.6621,-5.6621,-5.6621,-5.6621,-5.6621,-5.6621,-5.6621,-5.6621,-5.6621,-5.6621,-5.6621,-5.6621,-5.6621,-5.6621,-5.6621,-5.6601,-5.6543,-5.6454,-5.6391,-5.638,-5.6394,-5.6172,-5.5918,-5.543,-5.4863,-5.4219,-5.3476,-5.2971,-5.2981,-5.2381,-5.1797,-5.2027,-5.2432,-5.2972,-5.3799,-5.4626,-5.5088,-5.5203,-5.4434,-5.3299,-5.1952,-5.1068,-5.0683,-5.0683,-5.0683,-5.0683,-5.0683,-5.0683,-5.0683,-5.0683,-5.0683,-5.0683,-5.0683,-5.0683,-5.0683,-5.0683,-5.0693,-5.0721,-5.0816,-5.0991,-5.1102,-5.123,-5.1348,-5.1387,-5.1426,-5.1484,-5.1523,-5.1543,-5.1543,-5.1973,-5.2558,-5.3066,-5.3535,-5.3808,-5.4062,-5.4453,-5.4922,-5.539,-5.5859,-5.6172,-5.6406,-5.6543,-5.6504,-5.6441,-5.6405,-5.638,-5.6565,-5.6657,-5.6571,-5.6523,-5.6562,-5.6601,-5.6621,-5.6621,-5.6621,-5.6621,-5.6621,-5.6621,-5.6621,-5.6621,-5.6621,-5.6621,-5.6621,-5.6621,-5.6621,-5.6621,-5.6621,-5.6621,-5.6621,-5.6621,-5.6621,-5.6621,-5.6621,-5.6621,-5.6621,-5.6621,-5.6621,-5.6621,-5.6621,-5.6621,-5.6621,-5.6621,-5.6621,-5.6621,-5.6621,-5.6621,-5.6621,-5.6621,-5.6621,-5.6621,-5.6621,-5.6582,-5.6523,-5.6454,-5.6456,-5.6538,-5.5606,-5.5293,-5.5117,-5.4375,-5.3359,-5.2891,-5.2919,-5.2953,-5.2907,-5.279,-5.3423,-5.3793,-5.4164,-5.4761,-5.5299,-5.5588,-5.5588,-5.5011,-5.3799,-5.2241,-5.1221,-5.0683,-5.0683,-5.0683,-5.0683,-5.0683,-5.0683,-5.0683,-5.0683,-5.0683,-5.0683,-5.0683,-5.0683,-5.0683,-5.0683,-5.0683,-5.074,-5.0844,-5.0997,-5.1069,-5.1172,-5.1308,-5.1406,-5.1406,-5.1426,-5.1445,-5.1445,-5.1445,-5.1582,-5.2129,-5.2637,-5.2969,-5.3164,-5.3457,-5.3848,-5.4316,-5.4824,-5.5312,-5.582,-5.6152,-5.6426,-5.6456,-5.6408,-5.6358,-5.6375,-5.6597,-5.6777,-5.6748,-5.6688,-5.6558,-5.6562,-5.6601,-5.6601,-5.6621,-5.6621,-5.6621,-5.6621,-5.6621,-5.6621,-5.6621,-5.6601,-5.6621,-5.6621]},{"header":{"parameterUnit":"m.s-1","parameterCategory":1,"la1":31.0,"la2":29.5877,"lo1":-88.7671,"lo2":-86.6584,"dx":0.0162,"dy":0.0185,"nx":115,"ny":88,"refTime":"2022-12-05T18:00:00:Z","depth":0,"parameterNumber":3,"parameterNumberName":"V-component_of_WINDS"},"data":[0.0,0.0,0.0,0.0,0.0,0.0,0.0,0.0,0.0,0.0,0.0,0.0,0.0,0.0,0.0,0.0,0.0,0.0,0.0,0.0,0.0,0.0,0.0,0.0,0.0,0.0,0.0,0.0,0.0,0.0,0.0,0.0,0.0,0.0,0.0,0.0,0.0,0.0,0.0,0.0,0.0,0.0,0.0,0.0,0.0,0.0,0.0,0.0,0.0,0.0,0.0,0.0,0.0,0.0,0.0,0.0,0.0,0.0,0.0,0.0,0.0,0.0,0.0,0.0,0.0,0.0,0.0,0.0,0.0,0.0,0.0,0.0,0.0,0.0,0.0,0.0,0.0,0.0,0.0,0.0,0.0,0.0,0.0,0.0,0.0,0.0,0.0,0.0,0.0,0.0,0.0,0.0,0.0,0.0,0.0,0.0,0.0,0.0,0.0,0.0,0.0,0.0,0.0,0.0,0.0,0.0,0.0,0.0,0.0,0.0,0.0,0.0,0.0,0.0,0.0,0.0,0.0,0.0,0.0,0.0,0.0,0.0,0.0,0.0,0.0,0.0,0.0,0.0,0.0,0.0,0.0,0.0,0.0,0.0,0.0,0.0,0.0,0.0,0.0,0.0,0.0,0.0,0.0,0.0,0.0,0.0,0.0,0.0,0.0,0.0,0.0,0.0,0.0,0.0,0.0,0.0,0.0,0.0,0.0,0.0,0.0,0.0,0.0,0.0,0.0,0.0,0.0,0.0,0.0,0.0,0.0,0.0,0.0,0.0,0.0,0.0,0.0,0.0,0.0,0.0,0.0,0.0,0.0,0.0,0.0,0.0,0.0,0.0,0.0,0.0,0.0,0.0,0.0,0.0,0.0,0.0,0.0,0.0,0.0,0.0,0.0,0.0,0.0,0.0,0.0,0.0,0.0,0.0,0.0,0.0,0.0,0.0,0.0,0.0,0.0,0.0,0.0,0.0,0.0,0.0,0.0,0.0,0.0,0.0,0.0,0.0,0.0,0.0,0.0,0.0,0.0,0.0,0.0,0.0,0.0,0.0,0.0,0.0,0.0,0.0,0.0,0.0,0.0,0.0,0.0,0.0,0.0,0.0,0.0,0.0,0.0,0.0,0.0,0.0,0.0,0.0,0.0,0.0,0.0,0.0,0.0,0.0,0.0,0.0,0.0,0.0,0.0,0.0,0.0,0.0,0.0,0.0,0.0,0.0,0.0,0.0,0.0,0.0,0.0,0.0,0.0,0.0,0.0,0.0,0.0,0.0,0.0,0.0,0.0,0.0,0.0,0.0,0.0,0.0,0.0,0.0,0.0,0.0,0.0,0.0,0.0,0.0,0.0,0.0,0.0,0.0,0.0,0.0,0.0,0.0,0.0,0.0,0.0,0.0,0.0,0.0,0.0,0.0,0.0,0.0,0.0,0.0,0.0,0.0,0.0,0.0,0.0,0.0,0.0,0.0,0.0,0.0,0.0,0.0,0.0,0.0,0.0,0.0,0.0,0.0,0.0,0.0,0.0,0.0,0.0,0.0,0.0,0.0,0.0,0.0,0.0,0.0,0.0,0.0,0.0,0.0,0.0,0.0,0.0,0.0,0.0,0.0,0.0,0.0,0.0,0.0,0.0,0.0,0.0,0.0,0.0,0.0,0.0,0.0,0.0,0.0,0.0,0.0,0.0,0.0,0.0,0.0,0.0,0.0,0.0,0.0,0.0,0.0,0.0,0.0,0.0,0.0,0.0,0.0,0.0,0.0,0.0,0.0,0.0,0.0,0.0,0.0,0.0,0.0,0.0,0.0,0.0,0.0,0.0,0.0,0.0,0.0,0.0,0.0,0.0,0.0,0.0,0.0,0.0,0.0,0.0,0.0,0.0,0.0,0.0,0.0,0.0,0.0,0.0,0.0,0.0,0.0,0.0,0.0,0.0,0.0,0.0,0.0,0.0,0.0,0.0,0.0,0.0,0.0,0.0,0.0,0.0,0.0,0.0,0.0,0.0,0.0,0.0,0.0,0.0,0.0,0.0,0.0,0.0,0.0,0.0,0.0,0.0,0.0,0.0,0.0,0.0,0.0,0.0,0.0,0.0,0.0,0.0,0.0,0.0,0.0,0.0,0.0,0.0,0.0,0.0,0.0,0.0,0.0,0.0,0.0,0.0,0.0,0.0,0.0,0.0,0.0,0.0,0.0,0.0,0.0,0.0,0.0,0.0,0.0,0.0,0.0,0.0,0.0,0.0,0.0,0.0,0.0,0.0,0.0,0.0,0.0,0.0,0.0,0.0,0.0,0.0,0.0,0.0,0.0,0.0,0.0,0.0,0.0,0.0,0.0,0.0,0.0,0.0,0.0,0.0,0.0,0.0,0.0,0.0,0.0,0.0,0.0,0.0,0.0,0.0,0.0,0.0,0.0,0.0,0.0,0.0,0.0,0.0,0.0,0.0,0.0,0.0,0.0,0.0,0.0,0.0,0.0,0.0,0.0,0.0,0.0,0.0,0.0,0.0,0.0,0.0,0.0,0.0,0.0,0.0,0.0,0.0,0.0,0.0,0.0,0.0,0.0,0.0,0.0,0.0,0.0,0.0,0.0,0.0,0.0,0.0,0.0,0.0,0.0,0.0,0.0,0.0,0.0,0.0,0.0,0.0,0.0,0.0,0.0,0.0,0.0,0.0,0.0,0.0,0.0,0.0,0.0,0.0,0.0,0.0,0.0,0.0,0.0,0.0,0.0,0.0,0.0,0.0,0.0,0.0,0.0,0.0,0.0,0.0,0.0,0.0,0.0,0.0,0.0,0.0,0.0,0.0,0.0,0.0,0.0,0.0,0.0,0.0,0.0,0.0,0.0,0.0,0.0,0.0,0.0,0.0,0.0,0.0,0.0,0.0,0.0,0.0,0.0,0.0,0.0,0.0,0.0,0.0,0.0,0.0,0.0,0.0,0.0,0.0,0.0,0.0,0.0,0.0,0.0,0.0,0.0,0.0,0.0,0.0,0.0,0.0,0.0,0.0,0.0,0.0,0.0,0.0,0.0,0.0,0.0,0.0,0.0,0.0,0.0,0.0,0.0,0.0,0.0,0.0,0.0,0.0,0.0,0.0,0.0,0.0,0.0,0.0,0.0,0.0,0.0,0.0,0.0,0.0,0.0,0.0,0.0,0.0,0.0,0.0,0.0,0.0,0.0,0.0,0.0,0.0,0.0,0.0,0.0,0.0,0.0,0.0,0.0,0.0,0.0,0.0,0.0,0.0,0.0,0.0,0.0,0.0,0.0,0.0,0.0,0.0,0.0,0.0,0.0,0.0,0.0,0.0,0.0,0.0,0.0,0.0,0.0,0.0,0.0,0.0,0.0,0.0,0.0,0.0,0.0,0.0,0.0,0.0,0.0,0.0,0.0,0.0,0.0,0.0,0.0,0.0,0.0,0.0,0.0,0.0,0.0,0.0,0.0,0.0,0.0,0.0,0.0,0.0,0.0,0.0,0.0,0.0,0.0,0.0,0.0,0.0,0.0,0.0,0.0,0.0,0.0,0.0,0.0,0.0,0.0,0.0,0.0,0.0,0.0,0.0,0.0,0.0,0.0,0.0,0.0,0.0,0.0,0.0,0.0,0.0,0.0,0.0,0.0,0.0,0.0,0.0,0.0,0.0,0.0,0.0,0.0,0.0,0.0,0.0,0.0,0.0,0.0,0.0,0.0,0.0,0.0,0.0,0.0,0.0,0.0,0.0,0.0,0.0,0.0,0.0,0.0,0.0,0.0,0.0,0.0,0.0,0.0,0.0,0.0,0.0,0.0,0.0,0.0,0.0,0.0,0.0,0.0,0.0,0.0,0.0,0.0,0.0,0.0,0.0,0.0,0.0,0.0,0.0,0.0,0.0,0.0,0.0,0.0,0.0,0.0,0.0,0.0,0.0,0.0,0.0,0.0,0.0,0.0,0.0,0.0,0.0,0.0,0.0,0.0,0.0,0.0,0.0,0.0,0.0,0.0,0.0,0.0,0.0,0.0,0.0,0.0,0.0,0.0,0.0,0.0,0.0,0.0,0.0,0.0,0.0,0.0,0.0,0.0,0.0,0.0,0.0,0.0,0.0,0.0,0.0,0.0,0.0,0.0,0.0,0.0,0.0,0.0,0.0,0.0,0.0,0.0,0.0,0.0,0.0,0.0,0.0,0.0,0.0,0.0,0.0,0.0,0.0,0.0,0.0,0.0,0.0,0.0,0.0,0.0,0.0,0.0,0.0,0.0,0.0,0.0,0.0,0.0,0.3933,0.0,0.0,0.0,0.3239,0.0,0.0,0.0,0.0,0.0,0.0,0.0,0.0,0.0,0.0,0.0,0.0,0.0,0.0,0.0,0.0,0.0,0.0,0.0,0.0,0.0,0.0,0.0,0.0,0.0,0.0,0.0,0.0,0.0,0.0,0.0,0.0,0.0,0.0,0.0,0.0,0.0,0.0,0.0,0.0,0.0,0.0,0.0,0.0,0.0,0.0,0.0,0.0,0.0,0.0,0.0,0.0,0.0,0.0,0.0,0.0,0.0,0.0,0.0,0.0,0.0,0.0,0.0,0.0,0.0,0.0,0.0,0.0,0.0,0.0,0.0,0.0,0.0,0.0,0.0,0.0,0.0,0.0,0.0,0.0,0.0,0.0,0.0,0.0,0.0,0.0,0.0,0.0,0.0,0.0,0.0,0.0,0.0,0.0,0.0,0.0,0.0,0.0,0.0,0.0,0.0,0.0,0.0,0.0,0.0,0.0,0.0,0.0,0.0,0.0,0.4011,0.3628,0.3979,0.3832,0.3154,0.0,0.0,0.0,0.0,0.0,0.0,0.0,0.0,0.0,0.0,0.0,0.0,0.0,0.0,0.0,0.0,0.0,0.0,0.0,0.0,0.0,0.0,0.0,0.0,0.0,0.0,0.0,0.0,0.0,0.0,0.0,0.0,0.0,0.0,0.0,0.0,0.0,0.0,0.0,0.0,0.0,0.0,0.0,0.0,0.0,0.0,0.0,0.0,0.0,0.0,0.0,0.0,0.0,0.0,0.0,0.0,0.0,0.0,0.0,0.0,0.0,0.0,0.0,0.0,0.0,0.0,0.0,0.0,0.0,0.0,0.0,0.0,0.0,0.0,0.0,0.0,0.0,0.0,0.0,0.0,0.0,0.0,0.0,0.0,0.0,0.0,0.0,0.0,0.0,0.0,0.0,0.0,0.0,0.0,0.0,0.0,0.0,0.0,0.0,0.0,0.0,0.0,0.0,0.0,0.0,0.0,0.0,0.0,0.0,0.0,0.0,0.0,0.3953,0.4059,0.3605,0.0,0.0,0.0,0.0,0.0,0.0,0.0,0.0,0.0,0.0,0.0,0.0,0.0,0.0,0.0,0.0,0.0,0.0,0.0,0.0,0.0,0.0,0.0,0.0,0.0,0.0,0.0,0.0,0.0,0.0,0.0,0.0,0.0,0.0,0.0,0.0,0.0,0.0,0.0,0.0,0.0,0.0,0.0,0.0,0.0,0.0,0.0,0.0,0.0,0.0,0.0,0.0,0.0,0.0,0.0,0.0,0.0,0.0,0.0,0.0,0.0,0.0,0.0,0.0,0.0,0.0,0.0,0.0,0.0,0.0,0.0,0.0,0.0,0.0,0.0,0.0,0.0,0.0,0.0,0.0,0.0,0.0,0.0,0.0,0.0,0.0,0.0,0.0,0.0,0.0,0.0,0.0,0.0,0.0,0.0,0.0,0.0,0.0,0.0,0.0,0.0,0.0,0.0,0.0,0.0,0.0,0.0,0.0,0.0,0.0,0.3006,0.2643,0.3301,0.0,0.4902,0.0,0.0,0.0,0.0,0.0,0.0,0.0,0.0,0.0,0.0,0.0,0.0,0.0,0.0,0.0,0.0,0.0,0.0,0.0,0.0,0.0,0.0,0.0,0.0,0.0,0.0,0.0,0.0,0.0,0.0,0.0,0.0,0.0,0.0,0.0,0.0,0.0,0.0,0.0,0.0,0.0,0.0,0.0,0.0,0.0,0.0,0.0,0.0,0.0,0.0,0.0,0.0,0.0,0.0,0.0,0.0,0.0,0.0,0.0,0.0,0.0,0.0,0.0,0.0,0.0,0.0,0.0,0.0,0.0,0.0,0.0,0.0,0.0,0.0,0.0,0.0,0.0,0.0,0.0,0.0,0.0,0.0,0.0,0.0,0.0,0.0,0.0,0.0,0.0,0.0,0.0,0.0,0.0,0.0,0.0,0.0,0.0,0.0,0.0,0.0,0.0,0.0,0.0,0.0,0.0,0.0,0.0,0.0,0.0,0.0,0.2827,0.3036,0.3482,0.4156,0.0,0.0,0.0,0.0,0.0,0.0,0.0,0.0,0.0,0.0,0.0,0.0,0.0,0.0,0.0,0.0,0.0,0.0,0.0,0.0,0.0,0.0,0.0,0.0,0.0,0.0,0.0,0.0,0.0,0.0,0.0,0.0,0.0,0.0,0.0,0.0,0.0,0.0,0.0,0.0,0.0,0.0,0.0,0.0,0.0,0.0,0.0,0.0,0.0,0.0,0.0,0.0,0.0,0.0,0.0,0.0,0.0,0.0,0.0,0.0,0.0,0.0,0.0,0.0,0.0,0.0,0.0,0.0,0.0,0.0,0.0,0.0,0.0,0.0,0.0,0.0,0.0,0.0,0.0,0.0,0.0,0.0,0.0,0.0,0.0,0.0,0.0,0.0,0.0,0.0,0.0,0.0,0.0,0.0,0.0,0.0,0.0,0.0,0.0,0.0,0.0,0.0,0.0,0.0,0.0,0.0,0.0,0.0,0.0,0.0,0.2291,0.2642,0.3201,0.4094,0.4704,0.4955,0.0,0.0,0.0,0.0,0.0,0.0,0.0,0.0,0.0,0.0,0.0,0.0,0.0,0.0,0.0,0.0,0.0,0.0,0.0,0.0,0.0,0.0,0.0,0.0,0.0,0.0,0.0,0.0,0.0,0.0,0.0,0.0,0.0,0.0,0.0,0.0,0.0,0.0,0.0,0.0,0.0,0.0,0.0,0.0,0.0,0.0,0.0,0.0,0.0,0.0,0.0,0.0,0.0,0.0,0.0,0.0,0.0,0.0,0.0,0.0,0.0,0.0,0.0,0.0,0.0,0.0,0.0,0.0,0.0,0.0,0.0,0.0,0.0,0.0,0.0,0.0,0.0,0.0,0.0,0.0,0.0,0.0,0.0,0.0,0.0,0.0,0.0,0.0,0.0,0.0,0.0,0.0,0.0,0.0,0.0,0.0,0.0,0.0,0.0,0.0,0.0,0.0,0.0,0.0,0.0,0.0,0.0,0.0,0.1438,0.1822,0.2274,0.2794,0.516,0.5904,0.0,0.0,0.0,0.0,0.0,0.0,0.0,0.0,0.0,0.0,0.0,0.0,0.0,0.0,0.0,0.0,0.0,0.0,0.0,0.0,0.0,0.0,0.0,0.0,0.0,0.0,0.0,0.0,0.0,0.0,0.0,0.0,0.0,0.0,0.0,0.0,0.0,0.0,0.0,0.0,0.0,0.0,0.0,0.0,0.0,0.0,0.0,0.0,0.0,0.0,0.0,0.0,0.0,0.0,0.0,0.0,0.0,0.0,0.0,0.0,0.0,0.0,0.0,0.0,0.0,0.0,0.0,0.0,0.0,0.0,0.0,0.0,0.0,0.0,0.0,0.0,0.0,0.0,0.0,0.0,0.0,0.0,0.0,0.0,0.0,0.0,0.0,0.0,0.0,0.0,0.0,0.0,0.0,0.0,0.0,0.0,0.0,0.0,0.0,0.0,0.0,0.0,0.0,0.0,0.0,0.0,0.0,0.0,0.0,0.1799,0.2394,0.3058,0.3783,0.4717,0.5495,0.0,0.0,0.0,0.0,0.0,0.0,0.0,0.0,0.0,0.0,0.0,0.0,0.0,0.0,0.0,0.0,0.0,0.0,0.0,0.0,0.0,0.0,0.0,0.0,0.0,0.0,0.0,0.0,0.0,0.0,0.0,0.0,0.0,0.0,0.0,0.0,0.0,0.0,0.0,0.0,0.0,0.0,0.0,0.0,0.0,0.0,0.0,0.0,0.0,0.0,0.0,0.0,0.0,0.0,0.0,0.0,0.0,0.0,0.0,0.0,0.0,0.0,0.0,0.0,0.0,0.0,0.0,0.0,0.0,0.0,0.0,0.0,0.0,0.0,0.0,0.0,0.0,0.0,0.0,0.0,0.0,0.0,0.0,0.0,0.0,0.0,0.0,0.0,0.0,0.0,0.0,0.0,0.0,0.0,0.0,0.0,0.0,0.0,0.0,0.0,0.0,0.0,0.0,0.0,0.0,0.0,0.0,0.0,0.0,0.2326,0.2967,0.3531,0.3953,0.4575,0.5202,0.0,0.0,0.0,0.0,0.0,0.0,0.0,0.0,0.0,0.0,0.0,0.0,0.0,0.0,0.0,0.0,0.0,0.0,0.0,0.0,0.0,0.0,0.0,0.0,0.0,0.0,0.0,0.0,0.0,0.0,0.0,0.0,0.0,0.0,0.0,0.0,0.0,0.0,0.0,0.0,0.0,0.0,0.0,0.0,0.0,0.0,0.0,0.0,0.0,0.0,0.0,0.0,0.0,0.0,0.0,0.0,0.0,0.0,0.0,0.0,0.0,0.0,0.0,0.0,0.0,0.0,0.0,0.0,0.0,0.0,0.0,0.0,0.0,0.0,0.0,0.0,0.0,0.0,0.0,0.0,0.0,0.0,0.0,0.0,0.0,0.0,0.0,0.0,0.0,0.0,0.0,0.0,0.0,0.0,0.0,0.0,0.0,0.0,0.0,0.0,0.0,0.0,0.0,0.0,0.0,0.0,0.0,0.0,0.2739,0.2907,0.3455,0.3617,0.3204,0.4853,0.5125,0.0,0.0,0.0,0.0,0.0,0.0,0.0,0.0,0.0,0.0,0.0,0.0,0.0,0.0,0.0,0.0,0.0,0.0,0.0,0.0,0.0,0.0,0.0,0.0,0.0,0.0,0.0,0.0,0.0,0.0,0.0,0.0,0.0,0.0,0.0,0.0,0.0,0.0,0.0,0.0,0.0,0.0,0.0,0.0,0.0,0.0,0.0,0.0,0.0,0.0,0.0,0.0,0.0,0.0,0.0,0.0,0.0,0.0,0.0,0.0,0.0,0.0,0.0,0.0,0.0,0.0,0.0,0.0,0.0,0.0,0.0,0.0,0.0,0.0,0.0,0.0,0.0,0.0,0.0,0.0,0.0,0.0,0.0,0.0,0.0,0.0,0.0,0.0,0.0,0.0,0.0,0.0,0.0,0.0,0.0,0.0,0.0,0.0,0.0,0.0,0.0,0.0,0.0,0.0,0.0,0.0,0.0,0.0,0.0,0.2413,0.314,0.4125,0.5298,0.5241,0.5431,0.0,0.0,0.0,0.0,0.0,0.0,0.0,0.0,0.0,0.0,0.0,0.0,0.0,0.0,0.0,0.0,0.0,0.0,0.0,0.0,0.0,0.0,0.0,0.0,0.0,0.0,0.0,0.0,0.0,0.0,0.0,0.0,0.0,0.0,0.0,0.0,0.0,0.0,0.0,0.0,0.0,0.0,0.0,0.0,0.0,0.0,0.0,0.0,0.0,0.0,0.0,0.0,0.0,0.0,0.0,0.0,0.0,0.0,0.0,0.0,0.0,0.0,0.0,0.0,0.0,0.0,0.0,0.0,0.0,0.0,0.0,0.0,0.0,0.0,0.0,0.0,0.0,0.0,0.0,0.0,0.0,0.0,0.0,0.0,0.0,0.0,0.0,0.0,0.0,0.0,0.0,0.0,0.0,0.0,0.0,0.0,0.0,0.0,0.0,0.0,0.0,0.0,0.0,0.0,0.0,0.0,0.0,0.0,0.0,0.2647,0.3506,0.4697,0.6216,0.5436,0.5301,0.5969,0.0,0.0,0.0,0.0,0.0,0.0,0.0,0.0,0.0,0.0,0.0,0.0,0.0,0.0,0.0,0.0,0.0,0.0,0.0,0.0,0.0,0.0,0.0,0.0,0.0,0.0,0.0,0.0,0.0,0.0,0.0,0.0,0.0,0.0,0.0,0.0,0.0,0.0,0.0,0.0,0.0,0.0,0.0,0.0,0.0,0.0,0.0,0.0,0.0,0.0,0.0,0.0,0.0,0.0,0.0,0.0,0.0,0.0,0.0,0.0,0.0,0.0,0.0,0.0,0.0,0.0,0.0,0.0,0.0,0.0,0.0,0.0,0.0,0.0,0.0,0.0,0.0,0.0,0.0,0.0,0.0,0.0,0.0,0.0,0.0,0.0,0.0,0.0,0.0,0.0,0.0,0.0,0.0,0.0,0.0,0.0,0.0,0.0,0.0,0.0,0.0,0.0,0.0,0.0,0.0,0.0,0.0,0.0,0.3492,0.4449,0.5289,0.6054,0.5433,0.4854,0.0,0.0,0.0,0.0,0.0,0.0,0.0,0.0,0.0,0.0,0.0,0.0,0.0,0.0,0.0,0.0,0.0,0.0,0.0,0.0,0.0,0.0,0.0,0.0,0.0,0.0,0.0,0.0,0.0,0.0,0.0,0.0,0.0,0.0,0.0,0.0,0.0,0.0,0.0,0.0,0.0,0.0,0.0,0.0,0.0,0.0,0.0,0.0,0.0,0.0,0.0,0.0,0.0,0.0,0.0,0.0,0.0,0.0,0.0,0.0,0.0,0.0,0.0,0.0,0.0,0.0,0.0,0.0,0.0,0.0,0.0,0.0,0.0,0.0,0.0,0.0,0.0,0.0,0.0,0.0,0.0,0.0,0.0,0.0,0.0,0.0,0.0,0.0,0.0,0.0,0.0,0.0,0.0,0.0,0.0,0.0,0.0,0.0,0.0,0.0,0.0,0.0,0.0,0.0,0.0,0.0,0.0,0.0,0.0,0.4785,0.5156,0.5709,0.6599,0.5789,0.5262,0.0,0.0,0.0,0.0,0.0,0.0,0.0,0.0,0.0,0.0,0.0,0.0,0.0,0.0,0.0,0.0,0.0,0.0,0.0,0.0,0.0,0.0,0.0,0.0,0.0,0.0,0.0,0.0,0.0,0.0,0.0,0.0,0.0,0.0,0.0,0.0,0.0,0.0,0.0,0.0,0.0,0.0,0.0,0.0,0.0,0.0,0.0,0.0,0.0,0.0,0.0,0.0,0.0,0.0,0.0,0.0,0.0,0.0,0.0,0.0,0.0,0.0,0.0,0.0,0.0,0.0,0.0,0.0,0.0,0.0,0.0,0.0,0.0,0.0,0.0,0.0,0.0,0.0,0.0,0.0,0.0,0.0,0.0,0.0,0.0,0.0,0.0,0.0,0.0,0.0,0.0,0.0,0.0,0.0,0.0,0.0,0.0,0.0,0.0,0.0,0.0,0.0,0.0,0.0,0.0,0.0,0.0,0.0,0.3358,0.5408,0.5474,0.5986,0.7115,0.6224,0.5682,0.0,0.0,0.0,0.0,0.0,0.0,0.0,0.0,0.0,0.0,0.0,0.0,0.0,0.0,0.0,0.0,0.0,0.0,0.0,0.0,0.0,0.0,0.0,0.0,0.0,0.0,0.0,0.0,0.0,0.0,0.0,0.0,0.0,0.0,0.0,0.0,0.0,0.0,0.0,0.0,0.0,0.0,0.0,0.0,0.0,0.0,0.0,0.0,0.0,0.0,0.0,0.0,0.0,0.0,0.0,0.0,0.0,0.0,0.0,0.0,0.0,0.0,0.0,0.0,0.0,0.0,0.0,0.0,0.0,0.0,0.0,0.0,0.0,0.0,0.0,0.0,0.0,0.0,0.0,0.0,0.0,0.0,0.0,0.0,0.0,0.0,0.0,0.0,0.0,0.0,0.0,0.0,0.0,0.0,0.0,0.0,0.0,0.0,0.0,0.0,0.0,0.0,0.0,0.0,0.0,0.0,0.0,0.0,0.4151,0.5769,0.581,0.6331,0.7373,0.6712,0.6108,0.0,0.0,0.0,0.0,0.0,0.0,0.0,0.0,0.0,0.0,0.0,0.0,0.0,0.0,0.0,0.0,0.0,0.0,0.0,0.0,0.0,0.0,0.0,0.0,0.0,0.0,0.0,0.0,0.0,0.0,0.0,0.0,0.0,0.0,0.0,0.0,0.0,0.0,0.0,0.0,0.0,0.0,0.0,0.0,0.0,0.0,0.0,0.0,0.0,0.0,0.0,0.0,0.0,0.0,0.0,0.0,0.0,0.0,0.0,0.0,0.0,0.0,0.0,0.0,0.0,0.0,0.0,0.0,0.0,0.0,0.0,0.0,0.0,0.0,0.0,0.0,0.0,0.0,0.0,0.0,0.0,0.0,0.0,0.0,0.0,0.0,0.0,0.0,0.0,0.0,0.0,0.0,0.0,0.0,0.0,0.0,0.0,0.0,0.0,0.0,0.0,0.0,0.0,0.0,0.0,0.0,0.0,0.0,0.5724,0.6989,0.7098,0.7313,0.755,0.682,0.6217,0.0,0.0,0.0,0.0,0.0,0.0,0.0,0.0,0.0,0.0,0.0,0.0,0.0,0.0,0.0,0.0,0.0,0.0,0.0,0.0,0.0,0.0,0.0,0.0,0.0,0.0,0.0,0.0,0.0,0.0,0.0,0.0,0.0,0.0,0.0,0.0,0.0,0.0,0.0,0.0,0.0,0.0,0.0,0.0,0.0,0.0,0.0,0.0,0.4389,0.0,0.0,0.0,0.0,0.0,0.0,0.0,0.0,0.0,0.0,0.0,0.0,0.0,0.0,0.0,0.0,0.0,0.0,0.0,0.0,0.0,0.0,0.0,0.0,0.0,0.0,0.0,0.0,0.0,0.0,0.0,0.0,0.0,0.0,0.0,0.0,0.0,0.0,0.0,0.0,0.0,0.0,0.0,0.0,0.0,0.0,0.0,0.0,0.0,0.0,0.0,0.0,0.0,0.0,0.0,0.0,0.0,0.0,0.0,0.6629,0.7465,0.7624,0.7699,0.7682,0.7248,0.6658,0.0,0.0,0.0,0.0,0.0,0.0,0.0,0.0,0.0,0.0,0.0,0.0,0.0,0.0,0.0,0.0,0.0,0.0,0.0,0.0,0.0,0.0,0.0,0.0,0.0,0.0,0.0,0.0,0.0,0.0,0.0,0.0,0.0,0.0,0.0,0.0,0.0,0.0,0.0,0.0,0.0,0.0,0.0,0.0,0.0,0.0,0.0,0.0,0.0,0.0,0.0,0.0,0.0,0.0,0.0,0.0,0.0,0.0,0.0,0.0,0.0,0.0,0.0,0.0,0.0,0.0,0.0,0.0,0.0,0.0,0.0,0.0,0.0,0.0,0.0,0.0,0.0,0.0,0.0,0.0,0.0,0.0,0.0,0.0,0.0,0.0,0.0,0.0,0.0,0.0,0.0,0.0,0.0,0.0,0.0,0.0,0.0,0.0,0.0,0.0,0.0,0.0,0.0,0.0,0.0,0.0,0.0,0.6454,0.7156,0.7614,0.7773,0.7796,0.7845,0.7685,0.7105,0.6033,0.0,0.0,0.0,0.0,0.0,0.0,0.0,0.0,0.0,0.0,0.0,0.0,0.0,0.0,0.0,0.0,0.0,0.0,0.0,0.0,0.0,0.0,0.0,0.0,0.0,0.0,0.0,0.0,0.0,0.0,0.0,0.0,0.0,0.0,0.0,0.0,0.0,0.0,0.311,0.3734,0.0,0.0,0.0,0.0,0.0,0.0,0.0,0.0,0.4729,0.0,0.0,0.0,0.0,0.0,0.0,0.0,0.0,0.0,0.0,0.0,0.0,0.0,0.0,0.0,0.0,0.0,0.0,0.0,0.0,0.0,0.0,0.0,0.0,0.0,0.0,0.0,0.0,0.0,0.0,0.0,0.0,0.0,0.0,0.0,0.0,0.0,0.0,0.0,0.0,0.0,0.0,0.0,0.0,0.0,0.0,0.0,0.0,0.0,0.0,0.0,0.0,0.0,0.0,0.0,0.0,0.6313,0.6712,0.7204,0.776,0.7874,0.7951,0.7944,0.7743,0.7109,0.6043,0.0,0.0,0.0,0.0,0.0,0.0,0.0,0.0,0.0,0.0,0.0,0.0,0.0,0.0,0.0,0.0,0.0,0.0,0.0,0.0,0.0,0.0,0.0,0.0,0.0,0.0,0.0,0.0,0.0,0.0,0.0,0.0,0.0,0.0,0.0,0.0,0.0,0.0,0.0,0.4535,0.4695,0.0,0.0,0.0,0.0,0.0,0.0,0.0,0.0,0.3997,0.0,0.0,0.0,0.0,0.0,0.0,0.0,0.0,0.0,0.0,0.0,0.0,0.0,0.0,0.0,0.0,0.0,0.0,0.0,0.0,0.0,0.0,0.0,0.0,0.0,0.0,0.0,0.0,0.0,0.0,0.0,0.0,0.0,0.0,0.0,0.0,0.0,0.0,0.0,0.0,0.0,0.0,0.0,0.0,0.0,0.0,0.0,0.0,0.0,0.0,0.0,0.0,0.0,0.0,0.0,0.6118,0.6807,0.737,0.7794,0.7837,0.7957,0.7978,0.7756,0.7146,0.0,0.0,0.0,0.0,0.0,0.0,0.0,0.0,0.0,0.0,0.0,0.0,0.0,0.0,0.0,0.0,0.0,0.0,0.0,0.0,0.0,0.0,0.0,0.0,0.0,0.0,0.0,0.0,0.0,0.0,0.0,0.0,0.0,0.0,0.0,0.0,0.0,0.0,0.0,0.0,0.4417,0.4731,0.5282,0.0,0.0,0.0,0.0,0.0,0.0,0.4021,0.3856,0.0,0.0,0.0,0.0,0.0,0.0,0.0,0.0,0.0,0.0,0.0,0.0,0.0,0.0,0.0,0.0,0.0,0.0,0.0,0.0,0.0,0.0,0.0,0.0,0.0,0.0,0.0,0.0,0.0,0.0,0.0,0.0,0.0,0.0,0.0,0.0,0.0,0.0,0.0,0.0,0.0,0.0,0.0,0.0,0.0,0.0,0.0,0.0,0.0,0.0,0.0,0.0,0.0,0.0,0.0,0.5905,0.678,0.7424,0.7787,0.7784,0.7828,0.7894,0.7695,0.7119,0.0,0.0,0.0,0.0,0.0,0.0,0.0,0.0,0.0,0.0,0.0,0.0,0.0,0.0,0.0,0.0,0.0,0.0,0.0,0.0,0.0,0.0,0.0,0.0,0.0,0.0,0.0,0.0,0.0,0.0,0.0,0.0,0.0,0.0,0.0,0.0,0.0,0.0,0.0,0.0,0.0,0.4509,0.5729,0.5169,0.0,0.0,0.0,0.0,0.4532,0.4429,0.0,0.0,0.0,0.0,0.0,0.0,0.0,0.0,0.0,0.0,0.0,0.0,0.0,0.0,0.0,0.0,0.0,0.0,0.0,0.0,0.0,0.0,0.0,0.0,0.0,0.0,0.0,0.0,0.0,0.0,0.0,0.0,0.0,0.0,0.0,0.0,0.0,0.0,0.0,0.0,0.0,0.0,0.0,0.0,0.0,0.0,0.0,0.0,0.0,0.0,0.0,0.0,0.0,0.0,0.0,0.0,0.6218,0.658,0.7112,0.7767,0.7689,0.7634,0.7648,0.7531,0.6912,0.0,0.0,0.0,0.0,0.0,0.0,0.0,0.0,0.0,0.0,0.0,0.0,0.0,0.0,0.0,0.0,0.0,0.0,0.0,0.0,0.0,0.0,0.0,0.0,0.0,0.0,0.0,0.0,0.0,0.0,0.0,0.0,0.0,0.0,0.0,0.0,0.0,0.0,0.0,0.0,0.0,0.4021,0.5454,0.4566,0.4143,0.0,0.0,0.5184,0.5706,0.5589,0.0,0.0,0.0,0.0,0.0,0.0,0.0,0.0,0.0,0.0,0.0,0.0,0.0,0.0,0.0,0.0,0.0,0.0,0.0,0.0,0.0,0.0,0.0,0.0,0.0,0.0,0.0,0.0,0.0,0.0,0.0,0.0,0.0,0.0,0.0,0.0,0.0,0.0,0.0,0.0,0.0,0.0,0.0,0.0,0.0,0.0,0.0,0.0,0.0,0.0,0.0,0.0,0.0,0.0,0.0,0.5508,0.6125,0.6756,0.7282,0.7668,0.7546,0.7512,0.7597,0.7451,0.6878,0.0,0.0,0.0,0.0,0.0,0.0,0.0,0.0,0.0,0.0,0.0,0.0,0.0,0.0,0.0,0.0,0.0,0.0,0.0,0.0,0.0,0.0,0.0,0.0,0.0,0.0,0.0,0.0,0.0,0.0,0.0,0.0,0.0,0.0,0.0,0.0,0.0,0.0,0.0,0.0,0.0,0.0,0.5905,0.4846,0.0,0.0,0.0,0.4331,0.3926,0.0,0.0,0.0,0.0,0.0,0.0,0.0,0.0,0.0,0.0,0.0,0.0,0.0,0.0,0.0,0.0,0.0,0.0,0.0,0.0,0.0,0.0,0.0,0.0,0.0,0.0,0.0,0.0,0.0,0.0,0.0,0.0,0.0,0.0,0.0,0.0,0.0,0.0,0.0,0.0,0.0,0.0,0.0,0.0,0.0,0.0,0.0,0.0,0.0,0.0,0.0,0.0,0.0,0.0,0.0,0.0,0.0,0.6091,0.6932,0.7424,0.7533,0.7394,0.737,0.7478,0.737,0.0,0.0,0.0,0.0,0.0,0.0,0.0,0.0,0.0,0.0,0.0,0.0,0.0,0.0,0.0,0.0,0.0,0.0,0.0,0.0,0.0,0.0,0.0,0.0,0.0,0.0,0.0,0.2079,0.0,0.0,0.0,0.0,0.0,0.0,0.0,0.0,0.0,0.0,0.0,0.0,0.0,0.0,0.3794,0.6299,0.5268,0.439,0.0,0.0,0.3781,0.2736,0.3502,0.4019,0.0,0.0,0.0,0.0,0.0,0.0,0.0,0.0,0.0,0.0,0.0,0.0,0.0,0.0,0.0,0.0,0.0,0.0,0.0,0.0,0.0,0.0,0.0,0.0,0.0,0.0,0.0,0.0,0.0,0.0,0.0,0.0,0.0,0.0,0.0,0.0,0.0,0.0,0.0,0.0,0.0,0.0,0.0,0.0,0.0,0.0,0.0,0.0,0.0,0.0,0.0,0.0,0.0,0.0,0.5806,0.6289,0.703,0.738,0.7429,0.7234,0.7115,0.7125,0.7119,0.663,0.0,0.0,0.0,0.0,0.0,0.0,0.0,0.0,0.0,0.0,0.0,0.0,0.0,0.0,0.0,0.0,0.0,0.0,0.0,0.0,0.0,0.0,0.0,0.0,0.0,0.0,0.0,0.0,0.0,0.0,0.0,0.0,0.0,0.0,0.0,0.0,0.0,0.0,0.0,0.0,0.0,0.3772,0.6162,0.5551,0.494,0.0,0.0,0.4375,0.3605,0.4264,0.4515,0.3548,0.0,0.0,0.0,0.0,0.0,0.0,0.0,0.0,0.0,0.0,0.0,0.0,0.0,0.0,0.0,0.0,0.0,0.0,0.0,0.0,0.0,0.0,0.0,0.0,0.0,0.0,0.0,0.0,0.0,0.0,0.0,0.0,0.0,0.0,0.0,0.0,0.0,0.0,0.0,0.0,0.0,0.0,0.0,0.0,0.0,0.0,0.0,0.0,0.0,0.0,0.0,0.0,0.0,0.501,0.6087,0.6319,0.6705,0.7334,0.7407,0.738,0.7282,0.7285,0.6922,0.0,0.0,0.0,0.0,0.0,0.0,0.0,0.0,0.0,0.0,0.0,0.0,0.0,0.0,0.0,0.0,0.0,0.0,0.0,0.0,0.0,0.0,0.0,0.0,0.0,0.0,0.0,0.0,0.3351,0.3364,0.3125,0.0,0.0,0.0,0.0,0.0,0.0,0.0,0.0,0.0,0.0,0.4394,0.5515,0.4687,0.0,0.0,0.2855,0.2309,0.1521,0.2596,0.339,0.3026,0.4081,0.0,0.0,0.0,0.0,0.0,0.0,0.0,0.0,0.0,0.0,0.0,0.0,0.0,0.0,0.0,0.0,0.0,0.0,0.0,0.0,0.0,0.0,0.0,0.0,0.0,0.0,0.0,0.0,0.0,0.0,0.0,0.0,0.0,0.0,0.0,0.0,0.0,0.0,0.0,0.0,0.0,0.0,0.0,0.0,0.0,0.0,0.0,0.0,0.0,0.0,0.0,0.0,0.4554,0.6124,0.5944,0.6356,0.7444,0.7546,0.755,0.7491,0.7394,0.7136,0.0,0.0,0.0,0.0,0.0,0.0,0.0,0.0,0.0,0.0,0.0,0.0,0.0,0.0,0.0,0.0,0.0,0.0,0.0,0.0,0.0,0.0,0.0,0.0,0.0,0.0,0.0,0.0,0.3568,0.3432,0.3035,0.0,0.0,0.0,0.0,0.0,0.0,0.0,0.0,0.0,0.0,0.4878,0.521,0.4259,0.3095,0.1956,0.1607,0.1097,0.014,0.1648,0.2898,0.2721,0.0,0.0,0.0,0.0,0.0,0.0,0.0,0.0,0.0,0.0,0.0,0.0,0.0,0.0,0.0,0.0,0.0,0.0,0.0,0.0,0.0,0.0,0.0,0.0,0.0,0.0,0.0,0.0,0.0,0.0,0.0,0.0,0.0,0.0,0.0,0.0,0.0,0.0,0.0,0.0,0.0,0.0,0.0,0.0,0.0,0.0,0.0,0.0,0.0,0.0,0.0,0.0,0.0,0.4627,0.6418,0.5953,0.6317,0.75,0.76,0.7604,0.7594,0.7455,0.7136,0.6495,0.0,0.0,0.0,0.0,0.0,0.0,0.0,0.0,0.0,0.0,0.0,0.0,0.0,0.0,0.0,0.0,0.0,0.0,0.0,0.0,0.0,0.0,0.0,0.0,0.0,0.0,0.2956,0.3044,0.3035,0.0,0.0,0.0,0.0,0.0,0.0,0.0,0.0,0.0,0.0,0.4712,0.5034,0.5482,0.4515,0.3252,0.1936,0.1765,0.1383,0.0213,0.2003,0.3354,0.0,0.0,0.0,0.0,0.0,0.0,0.0,0.0,0.0,0.0,0.0,0.0,0.0,0.0,0.0,0.0,0.0,0.0,0.0,0.0,0.0,0.0,0.0,0.0,0.0,0.0,0.0,0.0,0.0,0.0,0.0,0.0,0.0,0.0,0.0,0.0,0.0,0.0,0.0,0.0,0.48,0.5128,0.0,0.0,0.0,0.0,0.0,0.0,0.0,0.0,0.0,0.0,0.0,0.0,0.2676,0.4183,0.4471,0.5189,0.6387,0.7349,0.7845,0.7743,0.7689,0.7336,0.6647,0.0,0.0,0.0,0.0,0.0,0.0,0.0,0.0,0.0,0.0,0.0,0.0,0.0,0.0,0.0,0.0,0.0,0.0,0.0,0.0,0.0,0.0,0.0,0.0,0.0,0.3409,0.0,0.0,0.0,0.0,0.0,0.0,0.0,0.0,0.0,0.0,0.0,0.3996,0.339,0.3727,0.385,0.3269,0.2865,0.2143,0.0,0.0,0.0,0.0,0.0,0.0,0.0,0.0,0.0,0.0,0.0,0.0,0.0,0.0,0.5915,0.5325,0.5091,0.502,0.515,0.0,0.0,0.0,0.0,0.0,0.0,0.0,0.0,0.0,0.0,0.0,0.0,0.0,0.0,0.0,0.0,0.0,0.0,0.0,0.0,0.0,0.0,0.0,0.0,0.0,0.5306,0.5082,0.4199,0.4614,0.3733,0.0,0.2199,0.1985,0.0,0.0,0.0,0.0,0.0,0.0,0.0,0.0,0.1632,0.3105,0.3721,0.4613,0.5873,0.7239,0.7968,0.797,0.797,0.7716,0.718,0.7018,0.6749,0.0,0.0,0.0,0.0,0.0,0.0,0.0,0.0,0.0,0.0,0.0,0.0,0.0,0.0,0.0,0.0,0.0,0.0,0.0,0.0,0.0,0.0,0.0,0.3832,0.0,0.0,0.0,0.0,0.0,0.0,0.0,0.0,0.0,0.1597,0.2799,0.3376,0.2573,0.28,0.2769,0.208,0.0,0.0,0.0,0.0,0.0,0.0,0.0,0.2641,0.3521,0.471,0.5463,0.5387,0.5383,0.5318,0.5112,0.0,0.0,0.5875,0.5698,0.5658,0.5764,0.5825,0.5876,0.5895,0.636,0.711,0.0,0.0,0.0,0.0,0.0,0.0,0.0,0.0,0.0122,0.0,0.0,0.0,0.0,0.0,0.0,0.0,0.0,0.4977,0.0,0.0,0.527,0.4875,0.3643,0.3611,0.2989,0.1852,0.1812,0.1207,0.0126,0.0603,0.0,0.0,0.0,0.0,0.0,0.0,0.165,0.3111,0.3631,0.4542,0.5822,0.7188,0.8069,0.8265,0.8275,0.8197,0.7988,0.7446,0.7065,0.6889,0.5791,0.0,0.0,0.0,0.0,0.0,0.0,0.0,0.0,0.0,0.0,0.0,0.0,0.0,0.0,0.0,0.0,0.0,0.0,0.0,0.0,0.421,0.0,0.0,0.0,0.0,0.0,0.0,0.0,0.0,0.0,0.0,0.0991,0.1914,0.2513,0.1981,0.0,0.0,0.0,0.0,0.0,0.0,0.0,0.0,0.0088,0.1164,0.196,0.1945,0.0,0.0,0.4605,0.4017,0.3483,0.2889,0.4286,0.5654,0.6476,0.6291,0.6176,0.647,0.6443,0.6461,0.6854,0.7122,0.7812,0.6552,0.0,0.0,0.0,0.0,0.4485,0.3504,0.2685,0.1914,0.0967,0.0045,0.1111,0.0,0.0,0.0,0.0,0.0,0.0,0.4387,0.3513,0.4813,0.4795,0.3602,0.3621,0.2992,0.1808,0.1798,0.1179,0.0047,0.0183,0.0241,0.0249,0.0,0.0,0.0,0.0,0.0486,0.0996,0.2014,0.2751,0.3167,0.5542,0.7334,0.8414,0.8421,0.8401,0.8353,0.8089,0.7729,0.7258,0.6715,0.0,0.0,0.0,0.0,0.0,0.0,0.0,0.0,0.0,0.0,0.0,0.0,0.0,0.0,0.0,0.0,0.0,0.0,0.0,0.3849,0.4599,0.4917,0.0,0.0,0.0,0.0,0.0,0.0,0.0,0.0,0.0,0.0338,0.1307,0.1674,0.0,0.0,0.0578,0.0556,0.0254,0.0,0.0,0.0,0.0,0.0,0.1414,0.1875,0.2895,0.3691,0.4103,0.3901,0.3719,0.3519,0.3342,0.4543,0.5616,0.5869,0.6396,0.6859,0.7068,0.7207,0.7285,0.7512,0.7716,0.8205,0.7849,0.609,0.5944,0.6221,0.6694,0.5634,0.4394,0.3149,0.2492,0.1388,0.0051,0.0949,0.1328,0.1401,0.2668,0.0,0.0,0.0,0.3497,0.2562,0.3555,0.3387,0.2225,0.2169,0.1814,0.1121,0.1064,0.0682,0.0,0.0,0.0,0.0,0.0,0.0,0.0,0.0,0.0,0.0,0.1299,0.2013,0.2064,0.4274,0.5889,0.6741,0.7443,0.7767,0.7712,0.8171,0.8248,0.7876,0.736,0.6869,0.0,0.0,0.0,0.0,0.0,0.0,0.0,0.0,0.0,0.0,0.0,0.3409,0.2856,0.0,0.0,0.0,0.4219,0.4467,0.4853,0.5409,0.0,0.0,0.0,0.0,0.0,0.0,0.0,0.1767,0.0695,0.0,0.0,0.0639,0.081,0.0,0.0,0.0,0.0,0.0,0.0,0.0,0.0,0.0256,0.0956,0.0892,0.1272,0.2672,0.2462,0.2396,0.2805,0.2517,0.2186,0.2375,0.3652,0.4896,0.4936,0.6254,0.7431,0.7529,0.7668,0.7818,0.7963,0.8069,0.8358,0.8233,0.6874,0.6534,0.6449,0.6396,0.5202,0.386,0.2406,0.2239,0.14,0.0,0.011,0.0265,0.0395,0.1056,0.0,0.2076,0.2939,0.2765,0.1876,0.1958,0.1309,0.0,0.0,0.0,0.0,0.0,0.0,0.0,0.0,0.0,0.0,0.0,0.0,0.0,0.0,0.0,0.0,0.1221,0.192,0.2028,0.3346,0.4128,0.4254,0.5817,0.6649,0.6549,0.7951,0.8638,0.8469,0.7866,0.7373,0.7149,0.0,0.0,0.0,0.0,0.0,0.0,0.0,0.0,0.0,0.0,0.0,0.0,0.0,0.0,0.5143,0.6023,0.0,0.6484,0.6381,0.0,0.0,0.0,0.542,0.5406,0.3808,0.2705,0.2662,0.0,0.0,0.0,0.0,0.0,0.0,0.0,0.0,0.0,0.0,0.0,0.0,0.0,0.0,0.0,0.0,0.0418,0.1418,0.0747,0.0539,0.1349,0.0863,0.0096,0.0,0.2105,0.3897,0.4015,0.6149,0.7882,0.7896,0.7938,0.8119,0.8269,0.833,0.8473,0.6498,0.7258,0.6993,0.757,0.853,0.7015,0.5463,0.4039,0.2732,0.1359,0.0056,0.117,0.2314,0.3358,0.242,0.2053,0.2155,0.2405,0.1778,0.0605,0.1634,0.1396,0.0,0.0,0.0,0.0,0.0,0.0,0.0,0.0,0.0,0.0,0.0,0.0,0.0,0.0,0.0,0.0,0.0308,0.1044,0.2141,0.2482,0.3222,0.4387,0.5906,0.6687,0.6661,0.8001,0.8642,0.8486,0.8258,0.7987,0.7773,0.6441,0.0,0.0,0.0,0.0,0.0,0.0,0.0,0.0,0.0,0.485,0.4043,0.0,0.5044,0.0,0.6743,0.6921,0.6165,0.6308,0.0,0.0,0.5924,0.5563,0.5515,0.3946,0.2673,0.2233,0.0912,0.0,0.0,0.0,0.0,0.0,0.0,0.0,0.0,0.0,0.0,0.0,0.0,0.0,0.0,0.0,0.0,0.0362,0.0,0.0102,0.0,0.0199,0.0,0.0,0.2262,0.3901,0.4124,0.6505,0.8318,0.8489,0.8435,0.8421,0.8574,0.8693,0.874,0.5039,0.5276,0.5841,0.6635,0.7414,0.7838,0.6761,0.4627,0.3703,0.2075,0.0057,0.0852,0.169,0.2404,0.1608,0.1221,0.123,0.122,0.0778,0.0056,0.0832,0.0822,0.0,0.0,0.0,0.0,0.0,0.0,0.0,0.0,0.0,0.0,0.0,0.0,0.0,0.0,0.0,0.0,0.0,0.0373,0.1147,0.1203,0.1851,0.3191,0.486,0.5891,0.6305,0.7894,0.8618,0.8208,0.8106,0.7967,0.774,0.6814,0.6342,0.0,0.0,0.0,0.0,0.0,0.0,0.0,0.0,0.0,0.0,0.0,0.5847,0.6269,0.704,0.7187,0.6455,0.6695,0.6898,0.6966,0.6134,0.5602,0.5593,0.3714,0.2269,0.1965,0.0793,0.0,0.0,0.0,0.0,0.0,0.0,0.0,0.0,0.0,0.0,0.0,0.0,0.0,0.0,0.0,0.0,0.0,0.0,0.0,0.0,0.0,0.0,0.0,0.2288,0.4243,0.4437,0.6704,0.8669,0.8784,0.8747,0.8723,0.8794,0.8828,0.8937,0.3568,0.2648,0.3996,0.4732,0.5091,0.7697,0.7123,0.441,0.4177,0.2529,0.0,0.0,0.0,0.0,0.0,0.0,0.0,0.0,0.0,0.0,0.0,0.0,0.0,0.0,0.0,0.0,0.0,0.0,0.0,0.0,0.0,0.0,0.0,0.0,0.0,0.0,0.0,0.0,0.0,0.0,0.0,0.0,0.043,0.1407,0.3208,0.4658,0.5613,0.7532,0.8355,0.7919,0.7872,0.7746,0.7468,0.7238,0.6842,0.0,0.6293,0.0,0.0,0.0,0.0,0.0,0.0,0.0,0.0,0.6909,0.6926,0.6487,0.7163,0.7495,0.7065,0.7272,0.7405,0.7339,0.6308,0.5549,0.5325,0.3241,0.1783,0.1821,0.0754,0.0,0.0,0.0,0.0,0.0,0.0,0.0,0.0,0.0,0.0,0.0,0.0,0.0,0.0,0.0,0.0,0.0,0.0,0.0,0.0,0.0,0.0,0.0,0.2499,0.4336,0.4738,0.6999,0.8716,0.8974,0.9001,0.8981,0.894,0.8875,0.8944,0.154,0.2524,0.2831,0.3689,0.4914,0.5494,0.4658,0.2814,0.1439,0.0536,0.0,0.0,0.0,0.0,0.0,0.0,0.0,0.0,0.0,0.0,0.0,0.0,0.0,0.0,0.0,0.0,0.0,0.0,0.0,0.0,0.0,0.0,0.0,0.0,0.0,0.0,0.0,0.0,0.0,0.0,0.0,0.0,0.0107,0.0318,0.1842,0.0,0.4459,0.6054,0.7343,0.815,0.8184,0.0,0.0,0.0,0.0,0.0,0.0,0.0,0.0,0.0,0.0,0.0,0.6936,0.6997,0.7034,0.7729,0.7902,0.7251,0.7648,0.7874,0.7786,0.7658,0.7135,0.6111,0.5735,0.5246,0.4264,0.2726,0.1826,0.1939,0.0782,0.0,0.0,0.0,0.0,0.0,0.0,0.0,0.0,0.0,0.0,0.0,0.0,0.0,0.0,0.0,0.0,0.0,0.0,0.0,0.0,0.0,0.0,0.1494,0.3224,0.4907,0.6148,0.7911,0.9163,0.9262,0.9289,0.9225,0.8991,0.8885,0.8974,0.0494,0.0,0.1233,0.1725,0.0,0.2463,0.2024,0.1279,0.1279,0.0785,0.0,0.0,0.0,0.0,0.0,0.0,0.0,0.0,0.0,0.0,0.0,0.0,0.0,0.0,0.0,0.0,0.0,0.0,0.0,0.0,0.0,0.0,0.0,0.0,0.0,0.0,0.0,0.0,0.0,0.0,0.0,0.0,0.0271,0.08,0.0,0.0,0.0,0.0,0.0,0.0,0.0,0.0,0.0,0.0,0.0,0.7241,0.6902,0.6692,0.6695,0.6785,0.7102,0.7503,0.7862,0.8001,0.7919,0.8265,0.8357,0.8069,0.8113,0.8184,0.8241,0.7994,0.7547,0.692,0.564,0.4555,0.381,0.2102,0.0965,0.0983,0.0425,0.0,0.0,0.0,0.0,0.0,0.0,0.0,0.0,0.0,0.0,0.0,0.0,0.0,0.0,0.0,0.0,0.0,0.0,0.0,0.0,0.0,0.0499,0.2065,0.3601,0.5102,0.6732,0.8232,0.9289,0.9361,0.9381,0.9344,0.9184,0.9157,0.9174,0.0,0.0,0.0,0.0,0.0,0.0,0.0,0.0123,0.0,0.0,0.0,0.0,0.0,0.0,0.0,0.0,0.0,0.0,0.0,0.0,0.0,0.0,0.0,0.0,0.0,0.0,0.0,0.0,0.0,0.0,0.0,0.0,0.0,0.0,0.0,0.0,0.0,0.0,0.0,0.0,0.0,0.0,0.0551,0.1717,0.288,0.4146,0.5698,0.7027,0.7636,0.7536,0.7611,0.7563,0.7274,0.7024,0.7132,0.7604,0.7434,0.7438,0.7634,0.7811,0.797,0.8093,0.8523,0.875,0.875,0.8635,0.8615,0.874,0.8506,0.8397,0.8506,0.8258,0.8029,0.7942,0.5585,0.3964,0.3518,0.1531,0.0,0.0,0.0,0.0,0.0,0.0,0.0,0.0,0.0,0.0,0.0,0.0,0.0,0.0,0.0,0.0,0.0,0.0,0.0,0.0,0.0,0.0,0.0,0.0,0.0,0.268,0.3929,0.5391,0.7168,0.8592,0.937,0.9456,0.9462,0.9459,0.9459,0.9459,0.9452,0.0,0.0,0.0,0.0,0.0,0.0,0.0,0.0,0.0,0.0,0.0,0.0,0.0,0.0,0.0,0.0,0.0,0.0,0.0,0.0,0.0,0.0,0.0,0.0,0.0,0.0,0.0,0.0,0.0,0.0,0.0,0.0,0.0,0.0,0.0,0.0,0.0,0.0,0.0,0.0,0.0,0.0,0.0772,0.222,0.1226,0.248,0.6175,0.5296,0.5674,0.776,0.7914,0.7904,0.7818,0.6761,0.6692,0.7773,0.688,0.6732,0.7829,0.8119,0.8323,0.8591,0.8743,0.8851,0.8906,0.8889,0.8828,0.8841,0.8737,0.8655,0.8662,0.8414,0.7837,0.6748,0.5075,0.3565,0.2564,0.0,0.0,0.0,0.0,0.0,0.0,0.0,0.0,0.0,0.0,0.0,0.0,0.0,0.0,0.0,0.0,0.0,0.0,0.0,0.0,0.0,0.0,0.0,0.0,0.0,0.0,0.3815,0.4529,0.5844,0.847,0.9397,0.9615,0.9696,0.972,0.973,0.9724,0.973,0.9703,0.0,0.0,0.0,0.0,0.0,0.0,0.0,0.0,0.0,0.0,0.0,0.0,0.0,0.0,0.0,0.0,0.0,0.0,0.0,0.0,0.0,0.0,0.0,0.0,0.0,0.0,0.0,0.0,0.0,0.0,0.0,0.0,0.0,0.0,0.0,0.0,0.0,0.0,0.0,0.0,0.0,0.0915,0.1319,0.1165,0.1875,0.2883,0.4032,0.4738,0.563,0.6886,0.759,0.7988,0.7939,0.6734,0.6282,0.6833,0.5675,0.5525,0.683,0.7843,0.8516,0.8808,0.8841,0.8937,0.8937,0.8937,0.8937,0.8937,0.8817,0.8798,0.872,0.8587,0.818,0.75,0.609,0.4669,0.323,0.1899,0.0831,0.0,0.0,0.0,0.0,0.0,0.0,0.0,0.0,0.0,0.0,0.0,0.0,0.0,0.0,0.0,0.0,0.0,0.0,0.0,0.0,0.0,0.0,0.0,0.0,0.4032,0.4811,0.6148,0.9106,0.9724,0.9758,0.9788,0.9819,0.9819,0.9819,0.9819,0.9795,0.0,0.0,0.0,0.0,0.0,0.0,0.0,0.0,0.0,0.0,0.0,0.0,0.0,0.0,0.0,0.0,0.0,0.0,0.0,0.0,0.0,0.0,0.0,0.0,0.0,0.0,0.0,0.0,0.0,0.0,0.0,0.0,0.0,0.0,0.0,0.0,0.0,0.0,0.0,0.0,0.0,0.1309,0.1489,0.0845,0.2386,0.3161,0.2662,0.4183,0.5426,0.6047,0.7083,0.7746,0.8035,0.6497,0.5732,0.5938,0.4808,0.4798,0.6473,0.7755,0.8635,0.8811,0.8865,0.8937,0.8937,0.8937,0.8937,0.8937,0.8933,0.8831,0.8784,0.8723,0.8604,0.8302,0.7138,0.578,0.4547,0.3044,0.162,0.0622,0.0212,0.0,0.0,0.0,0.0,0.0,0.0,0.0,0.0,0.0,0.0,0.0,0.0,0.0,0.0,0.0,0.0,0.0,0.0,0.0,0.0,0.0,0.0,0.3988,0.4909,0.625,0.8952,0.9815,0.9815,0.9819,0.9819,0.9819,0.9819,0.9819,0.9819,0.0,0.0,0.0,0.0,0.0,0.0,0.0,0.0,0.0,0.0,0.0,0.0,0.0,0.0,0.0,0.0,0.0,0.0,0.0,0.0,0.0,0.0,0.0,0.0,0.0,0.0,0.0,0.0,0.0,0.0,0.0,0.0,0.0,0.0,0.0,0.0,0.0,0.0,0.0,0.0,0.0,0.012,0.0909,0.221,0.1027,0.1662,0.3834,0.3052,0.3578,0.6002,0.6381,0.7118,0.8188,0.5941,0.5024,0.6209,0.502,0.5367,0.7886,0.8544,0.8699,0.8737,0.8811,0.8937,0.8937,0.8937,0.8937,0.8881,0.8881,0.8858,0.8858,0.8788,0.8635,0.8396,0.724,0.6146,0.556,0.3528,0.1921,0.1868,0.077,0.0,0.0,0.0,0.0,0.0,0.0,0.0,0.0,0.0,0.0,0.0,0.0,0.0,0.0,0.0,0.0,0.0,0.0,0.0,0.0,0.0,0.1048,0.3997,0.4918,0.6143,0.8532,0.9819,0.9819,0.9819,0.9819,0.9819,0.9819,0.9819,0.9819,0.0,0.0,0.0,0.0,0.0,0.0,0.0,0.0,0.0,0.0,0.0,0.0,0.0,0.0,0.0,0.0,0.0,0.0,0.0,0.0,0.0,0.0,0.0,0.0,0.0,0.0,0.0,0.0,0.0,0.0,0.0,0.0,0.0,0.0,0.0,0.0,0.0,0.0,0.0,0.0,0.0,0.0978,0.1286,0.1046,0.1275,0.1435,0.1821,0.1897,0.2986,0.5092,0.598,0.713,0.8729,0.6903,0.5634,0.5359,0.4653,0.5176,0.7428,0.8288,0.875,0.8838,0.8848,0.8937,0.8937,0.8937,0.8937,0.8871,0.8804,0.8801,0.8801,0.8747,0.8615,0.8362,0.7898,0.7234,0.6241,0.5203,0.4047,0.2446,0.1643,0.0908,0.0,0.0,0.0,0.0,0.0,0.0,0.0,0.0,0.0,0.0,0.0,0.0,0.0,0.0,0.0,0.0,0.0,0.0,0.0,0.0,0.0,0.0,0.4916,0.6265,0.9204,0.9697,0.9819,0.9819,0.9819,0.9819,0.9819,0.9819,0.9819,0.0,0.0,0.0,0.0,0.0,0.0,0.0,0.0,0.0,0.0,0.0,0.0,0.0,0.0,0.0,0.0,0.0,0.0,0.0,0.0,0.0,0.0,0.0,0.0,0.0,0.0,0.0,0.0,0.0,0.0,0.0,0.0,0.0,0.0,0.0,0.0,0.0,0.0,0.0,0.0,0.0,0.1171,0.1233,0.0247,0.1158,0.1206,0.0119,0.094,0.2429,0.4452,0.5505,0.6973,0.8891,0.7746,0.6433,0.535,0.5106,0.5753,0.7455,0.8355,0.8896,0.9028,0.8939,0.8902,0.8925,0.8908,0.8885,0.8871,0.8801,0.8726,0.8771,0.8774,0.8659,0.8438,0.8489,0.8052,0.7093,0.6683,0.5558,0.3725,0.2709,0.1612,0.0,0.0,0.0,0.0,0.0,0.0,0.0,0.0,0.0,0.0,0.0,0.0,0.0,0.0,0.0,0.0,0.0,0.0,0.0494,0.0,0.0,0.5159,0.5345,0.6446,0.8961,0.9758,0.9819,0.9819,0.9819,0.9819,0.9819,0.9819,0.9819,0.0,0.0,0.0,0.0,0.0,0.0,0.0,0.0,0.0,0.0,0.0,0.0,0.0,0.0,0.0,0.0,0.0,0.0,0.0,0.0,0.0,0.0,0.0,0.0,0.0,0.0,0.0,0.0,0.0,0.0,0.0,0.0,0.0,0.0,0.0,0.0,0.0,0.0,0.0,0.0,0.0,0.0,0.0,0.0,0.0,0.0,0.0,0.0,0.15,0.4548,0.4776,0.6239,0.8953,0.7949,0.7042,0.6976,0.6945,0.7586,0.8923,0.9148,0.9234,0.9279,0.9103,0.9001,0.9156,0.9022,0.896,0.8888,0.8818,0.8777,0.8886,0.8828,0.8835,0.8706,0.8689,0.8521,0.8397,0.7293,0.6577,0.576,0.3752,0.1732,0.0,0.0,0.0,0.0,0.0,0.0,0.0,0.0,0.0,0.0,0.0,0.0,0.0,0.0,0.0,0.0,0.0,0.0,0.1602,0.0,0.4424,0.5892,0.6505,0.7548,0.9143,0.9819,0.9819,0.9819,0.9819,0.9819,0.9819,0.9819,0.9819,0.0,0.0,0.0,0.0,0.0,0.0,0.0,0.0,0.0,0.0,0.0,0.0,0.0,0.0,0.0,0.0,0.0,0.0,0.0,0.0,0.0,0.0,0.0,0.0,0.0,0.0,0.0,0.0,0.0,0.0,0.0,0.0,0.0,0.0,0.0,0.0,0.0,0.0,0.0,0.0,0.0,0.0,0.0,0.0,0.0,0.0,0.0,0.0,0.1039,0.3233,0.4243,0.5873,0.7845,0.7667,0.779,0.8573,0.7741,0.7794,0.9212,0.9384,0.933,0.9292,0.9239,0.9184,0.921,0.9106,0.9076,0.9049,0.894,0.8841,0.8841,0.8801,0.8815,0.8852,0.8859,0.8876,0.8828,0.8391,0.7759,0.6566,0.413,0.1682,0.0,0.0,0.0,0.0,0.0,0.0,0.0,0.0863,0.1295,0.0679,0.1663,0.2401,0.0,0.0,0.0,0.0,0.0,0.0,0.2033,0.2769,0.4179,0.6628,0.7545,0.8158,0.9451,0.9819,0.9819,0.9819,0.9819,0.9819,0.9819,0.9819,0.9819,0.0,0.0,0.0,0.0,0.0,0.0,0.0,0.0,0.0,0.0,0.0,0.0,0.0,0.0,0.0,0.0,0.0,0.0,0.0,0.0,0.0,0.0,0.0,0.0,0.0,0.0,0.0,0.0,0.0,0.0,0.0,0.0,0.0,0.0,0.0,0.0,0.0,0.0,0.0,0.0,0.0,0.0,0.0,0.0,0.0,0.0,0.0,0.0,0.0802,0.234,0.3568,0.5098,0.7116,0.736,0.8158,0.9377,0.869,0.8402,0.9417,0.9537,0.9432,0.9429,0.9378,0.934,0.9283,0.9171,0.9117,0.9106,0.9025,0.8937,0.8865,0.8794,0.8849,0.8984,0.9052,0.9093,0.9197,0.9059,0.8283,0.6891,0.4726,0.2571,0.1103,0.0,0.0,0.0,0.037,0.0802,0.0986,0.2155,0.3016,0.2033,0.3383,0.3629,0.234,0.0,0.0,0.0,0.0,0.0,0.3076,0.3566,0.4668,0.7116,0.8346,0.8836,0.9265,0.97,0.9829,0.9832,0.9819,0.9819,0.9819,0.9819,0.9819,0.0,0.0,0.0,0.0,0.0,0.0,0.0,0.0,0.0,0.0,0.0,0.0,0.0,0.0,0.0,0.0,0.0,0.0,0.0,0.0,0.0,0.0,0.0,0.0,0.0,0.0,0.0,0.0,0.0,0.0,0.0,0.0,0.0,0.0,0.0,0.0,0.0,0.0,0.0,0.0,0.0,0.0,0.0,0.0,0.0,0.0,0.0,0.0,0.0678,0.2094,0.2524,0.4117,0.6689,0.7299,0.8097,0.9329,0.9626,0.9751,0.9738,0.9683,0.9663,0.9663,0.9418,0.9344,0.9462,0.9239,0.9079,0.9164,0.9059,0.8898,0.8902,0.8964,0.9005,0.9193,0.9242,0.9283,0.9272,0.9228,0.8635,0.7076,0.5521,0.4106,0.2633,0.1233,0.0,0.0,0.1356,0.2278,0.2585,0.3875,0.4732,0.4671,0.5223,0.5404,0.4547,0.0,0.0,0.0,0.0,0.3997,0.528,0.6075,0.6628,0.8532,0.9075,0.9513,0.9532,0.991,0.9934,0.9934,0.989,0.9863,0.9808,0.9815,0.9829,0.0,0.0,0.0,0.0,0.0,0.0,0.0,0.0,0.0,0.0,0.0,0.0,0.0,0.0,0.0,0.0,0.0,0.0,0.0,0.0,0.0,0.0,0.0,0.0,0.0,0.0,0.0,0.0,0.0,0.0,0.0,0.0,0.0,0.0,0.0,0.0,0.0,0.0,0.0,0.0,0.0,0.0,0.0,0.0,0.0,0.0,0.0,0.0,0.0,0.0,0.191,0.3505,0.5404,0.6811,0.7606,0.8158,0.9265,0.9819,0.9815,0.9781,0.9724,0.969,0.9618,0.9605,0.9605,0.9476,0.9398,0.9429,0.9242,0.9086,0.91,0.9188,0.9198,0.9217,0.9344,0.9422,0.9425,0.9442,0.8713,0.7375,0.6641,0.5258,0.3246,0.1847,0.1725,0.1725,0.2339,0.2953,0.4119,0.5588,0.5955,0.5284,0.6324,0.7182,0.6077,0.571,0.5831,0.5096,0.5159,0.5712,0.7057,0.7853,0.859,0.912,0.9668,0.9903,0.9923,1.0022,1.0053,1.0063,1.0046,1.0012,0.9916,0.9859,0.9849,0.0,0.0,0.0,0.0,0.0,0.0,0.0,0.0,0.0,0.0,0.0,0.0,0.0,0.0,0.0,0.0,0.0,0.0,0.0,0.0,0.0,0.0,0.0,0.0,0.0,0.0,0.0,0.0,0.0,0.0,0.0,0.0,0.0,0.0,0.0,0.0,0.0,0.0,0.0,0.0,0.0,0.0,0.0,0.0,0.0,0.0,0.0,0.0,0.0,0.0,0.1048,0.234,0.3935,0.5527,0.675,0.7604,0.8833,0.9819,0.9819,0.9815,0.9788,0.972,0.9724,0.9737,0.9669,0.9618,0.954,0.9561,0.9327,0.921,0.9221,0.9171,0.9171,0.9089,0.9371,0.9513,0.9554,0.9527,0.9124,0.8096,0.7436,0.6142,0.4799,0.356,0.3442,0.3445,0.3933,0.4484,0.5894,0.724,0.7057,0.7121,0.816,0.8224,0.7304,0.7609,0.8404,0.7728,0.6996,0.7487,0.8343,0.8653,0.915,0.9487,0.993,1.0004,1.01,1.0168,1.0212,1.0205,1.0188,1.0014,0.9933,0.9897,0.9832,0.0,0.0,0.0,0.0,0.0,0.0,0.0,0.0,0.0,0.0,0.0,0.0,0.0,0.0,0.0,0.0,0.0,0.0,0.0,0.0,0.0,0.0,0.0,0.0,0.0,0.0,0.0,0.0,0.0,0.0,0.0,0.0,0.0,0.0,0.0,0.0,0.0,0.0,0.0,0.0,0.0,0.0,0.0,0.0,0.0,0.0,0.0,0.0,0.0,0.0,0.0,0.0986,0.2524,0.3997,0.5772,0.7301,0.8897,0.9636,0.9819,0.9819,0.9815,0.9795,0.9717,0.9673,0.9754,0.9618,0.9537,0.9618,0.9384,0.9258,0.9228,0.9106,0.8983,0.9006,0.9429,0.9591,0.9452,0.9432,0.9298,0.899,0.8084,0.715,0.6755,0.5675,0.5213,0.5221,0.6137,0.6808,0.7606,0.8529,0.9451,0.9697,0.9511,0.9265,0.8346,0.8282,0.9019,0.8897,0.8282,0.865,0.9101,0.9297,0.9448,0.9789,1.0038,1.0168,1.0246,1.0327,1.0375,1.0385,1.0293,1.0065,1.0022,0.9958,0.9849,0.0,0.0,0.0,0.0,0.0,0.0,0.0,0.0,0.0,0.0,0.0,0.0,0.0,0.0,0.0,0.0,0.0,0.0,0.0,0.0,0.0,0.0,0.0,0.0,0.0,0.0,0.0,0.0,0.0,0.0,0.0,0.0,0.0,0.0,0.0,0.0,0.0,0.0,0.0,0.0,0.0,0.0,0.0,0.0,0.0,0.0,0.0,0.0,0.0,0.0,0.0,0.0,0.2401,0.4057,0.5772,0.7299,0.8833,0.9819,0.9819,0.9819,0.9819,0.9819,0.9781,0.9781,0.9812,0.9754,0.9724,0.9734,0.9588,0.9432,0.934,0.9266,0.9289,0.9415,0.9486,0.9564,0.9639,0.9615,0.9564,0.9572,0.9132,0.8441,0.759,0.7089,0.6747,0.6811,0.724,0.785,0.8711,0.9143,0.9819,0.9819,0.9697,0.9758,0.9576,0.9326,0.9387,0.9572,0.939,0.9329,0.9615,0.9668,0.9841,0.998,1.0239,1.0344,1.0436,1.0527,1.0544,1.0541,1.0422,1.0273,1.0185,1.0103,0.9934,0.0,0.0,0.0,0.0,0.0,0.0,0.0,0.0,0.0,0.0,0.0,0.0,0.0,0.0,0.0,0.0,0.0,0.0,0.0,0.0,0.0,0.0,0.0,0.0,0.0,0.0,0.0,0.0,0.0,0.0,0.0,0.0,0.0,0.0,0.0,0.0,0.0,0.0,0.0,0.0,0.0,0.0,0.0,0.0,0.0,0.0,0.0,0.0,0.0,0.0,0.0,0.1541,0.2586,0.4729,0.6383,0.7482,0.8897,0.9819,0.9819,0.9819,0.9819,0.9819,0.9819,0.9819,0.9819,0.9819,0.9819,0.9802,0.9686,0.9547,0.9398,0.9279,0.9279,0.9354,0.9395,0.9476,0.971,0.9646,0.9615,0.9632,0.9569,0.9394,0.8389,0.8369,0.8398,0.8404,0.8407,0.8958,0.9515,0.9697,0.9819,0.9819,0.9819,0.9819,0.9819,0.9636,0.9572,0.9758,0.9819,0.9819,0.9893,0.9906,1.0059,1.0161,1.0358,1.0514,1.0585,1.0643,1.0653,1.0616,1.0521,1.0399,1.028,1.0131,0.9975,0.0,0.0,0.0,0.0,0.0,0.0,0.0,0.0,0.0,0.0,0.0,0.0,0.0,0.0,0.0,0.0,0.0,0.0,0.0,0.1825,0.2153,0.1661,0.0,0.0,0.0,0.0,0.0,0.0,0.0,0.0,0.0,0.0,0.0,0.0,0.0,0.0,0.0,0.0,0.0,0.0,0.0,0.0,0.0,0.0,0.0,0.0,0.0,0.0,0.0,0.0,0.1726,0.2585,0.326,0.6075,0.736,0.7914,0.9019,0.9819,0.9819,0.9819,0.9819,0.9819,0.9819,0.9819,0.9819,0.9819,0.9819,0.9819,0.9707,0.9574,0.9378,0.913,0.9089,0.9222,0.933,0.9445,0.9581,0.9618,0.9561,0.9452,0.9557,0.9595,0.9659,0.973,0.9697,0.9143,0.9265,0.9451,0.9697,0.9758,0.9819,0.9819,0.9819,0.9819,0.9819,0.9758,0.9758,0.9819,0.9819,0.9839,0.9866,0.9953,1.0134,1.0273,1.0446,1.0575,1.0666,1.0707,1.0721,1.066,1.0551,1.0412,1.0266,1.0097,0.9872,0.0,0.0,0.0,0.0,0.0,0.0,0.0,0.0,0.0,0.0,0.0,0.0,0.0,0.0,0.0,0.0,0.0,0.0,0.0,0.2084,0.2428,0.2278,0.1419,0.0,0.0,0.0,0.0,0.0,0.0,0.0,0.0,0.0,0.0,0.0,0.0,0.0,0.0,0.0,0.0,0.0,0.0,0.0,0.0,0.0,0.0,0.0,0.0,0.0,0.0,0.1726,0.2463,0.3626,0.5708,0.6933,0.7975,0.8958,0.9451,0.9819,0.9819,0.9819,0.9819,0.9819,0.9819,0.9819,0.9819,0.9819,0.9819,0.9819,0.9785,0.9632,0.9381,0.9106,0.9076,0.9222,0.9344,0.9476,0.9683,0.9676,0.9646,0.968,0.9649,0.9649,0.9754,0.9778,0.9819,0.9819,0.9819,0.9819,0.9819,0.9819,0.9819,0.9819,0.9819,0.9819,0.9819,0.9819,0.9819,0.9819,0.9819,0.9374,0.9458,1.0083,1.0209,1.0354,1.0514,1.0626,1.0711,1.0721,1.0721,1.0646,1.0571,1.0432,1.0276,1.009,0.9869,0.0,0.0,0.0,0.0,0.0,0.0,0.0,0.0,0.0,0.0,0.0,0.0,0.0,0.0,0.0,0.0,0.0,0.0863,0.1515,0.2195,0.2391,0.2384,0.1948,0.0,0.0,0.0,0.0,0.0,0.0,0.0,0.0,0.0,0.0,0.0,0.0,0.0,0.0,0.0,0.0,0.0,0.0,0.0,0.0,0.0,0.0,0.0,0.0,0.0,0.0,0.2954,0.3689,0.4729,0.7052,0.8097,0.8958,0.9576,0.9819,0.9819,0.9819,0.9819,0.9819,0.9819,0.9819,0.9819,0.9819,0.9819,0.9819,0.9805,0.9737,0.9595,0.9306,0.9089,0.9066,0.914,0.9306,0.9452,0.9585,0.9663,0.973,0.9791,0.9754,0.9758,0.9795,0.9815,0.9819,0.9819,0.9819,0.9819,0.9819,0.9819,0.9819,0.9819,0.9819,0.9819,0.9819,0.9819,0.9819,0.9819,0.9819,0.9093,0.8558,0.9378,1.029,1.03,1.0297,1.0646,1.0721,1.0721,1.0714,1.0673,1.0592,1.0453,1.03,1.0124,0.9906,0.0,0.0,0.0,0.0,0.0,0.0,0.0,0.0,0.0,0.0,0.0,0.0,0.0,0.0,0.0,0.0,0.0,0.202,0.2889,0.2829,0.3002,0.3004,0.2408,0.0,0.0,0.0,0.0,0.0,0.0,0.0,0.0,0.0,0.0,0.0,0.0,0.0,0.0,0.0,0.0,0.0,0.0,0.0,0.0,0.0,0.0,0.0,0.0,0.0,0.1787,0.461,0.5161,0.6139,0.7606,0.8894,0.9819,0.9819,0.9819,0.9819,0.9819,0.9819,0.9819,0.9819,0.9819,0.9819,0.9819,0.9819,0.9819,0.9761,0.9673,0.9466,0.9245,0.9028,0.8971,0.9039,0.9235,0.9367,0.9459,0.9659,0.9788,0.9815,0.9802,0.9802,0.9808,0.9819,0.9819,0.9819,0.9819,0.9819,0.9819,0.9819,0.9819,0.9819,0.9819,0.9819,0.9819,0.9758,0.9758,0.9326,0.9451,0.8814,0.7967,0.858,0.9413,0.9874,1.0051,1.0336,1.0651,1.0721,1.0711,1.0694,1.0599,1.0453,1.0304,1.0158,1.0008,0.0,0.0,0.0,0.0,0.0,0.0,0.0,0.0,0.0,0.0,0.0,0.0,0.0,0.0,0.0,0.0,0.0,0.2311,0.3763,0.3756,0.3866,0.3871,0.3173,0.0,0.0,0.0,0.0,0.0,0.0,0.0,0.0,0.0,0.0,0.0,0.0,0.0,0.0,0.0,0.0,0.0,0.0,0.0,0.0,0.0,0.0,0.0,0.0,0.1479,0.2954,0.4794,0.62,0.767,0.8897,0.9572,0.9758,0.9819,0.9819,0.9819,0.9819,0.9819,0.9819,0.9819,0.9819,0.9819,0.9819,0.9754,0.9677,0.9419,0.9327,0.9174,0.9174,0.8736,0.89,0.905,0.9256,0.9418,0.9544,0.9693,0.9812,0.9819,0.9819,0.9819,0.9819,0.9819,0.9819,0.9819,0.9819,0.9819,0.9819,0.9819,0.9819,0.9819,0.9819,0.9819,0.9819,0.9697,0.9576,0.8711,0.8555,0.8479,0.7942,0.7907,0.8336,0.8538,0.9288,1.0022,1.025,1.0183,0.9978,0.9431,0.9855,1.0327,0.9991,0.9664,0.9957,0.0,0.0,0.0,0.0,0.0,0.0,0.0,0.0,0.0,0.0,0.0,0.0,0.0,0.0,0.0,0.0,0.0,0.1331,0.2669,0.3091,0.3446,0.3461,0.3408,0.1732,0.0,0.0,0.0,0.0,0.0,0.0,0.0,0.0,0.0,0.0,0.0,0.0,0.0,0.0,0.0,0.0,0.0,0.0,0.0,0.0,0.0863,0.1233,0.1602,0.2893,0.4487,0.6014,0.693,0.8221,0.9265,0.9819,0.9819,0.9819,0.9819,0.9819,0.9819,0.9819,0.9819,0.9819,0.9819,0.9819,0.9819,0.9748,0.9265,0.8459,0.7308,0.6902,0.6681,0.7349,0.78,0.8093,0.866,0.9224,0.9458,0.9576,0.9536,0.9511,0.9636,0.9636,0.9819,0.9819,0.9819,0.9819,0.9758,0.9697,0.9636,0.9572,0.9451,0.9819,0.9819,0.9819,0.9819,0.9758,0.939,0.8526,0.7758,0.7735,0.7592,0.7483,0.6962,0.6689,0.7806,0.877,0.8105,0.7436,0.7769,0.8304,0.8712,0.9023,0.9184,0.9229,0.9735,0.0,0.0,0.0,0.0,0.0,0.0,0.0,0.0,0.0,0.0,0.0,0.0,0.0,0.0,0.0,0.0,0.0,0.0361,0.1417,0.2149,0.2486,0.2386,0.2298,0.1846,0.0,0.0,0.0,0.0,0.0,0.0,0.0,0.0,0.0,0.0,0.0,0.0,0.0,0.0,0.0,0.0,0.0,0.0309,0.0493,0.0678,0.2094,0.3015,0.3137,0.4548,0.5833,0.6994,0.7789,0.8529,0.9511,0.9819,0.9819,0.9819,0.9819,0.9819,0.9819,0.9819,0.9819,0.9819,0.9819,0.9636,0.9006,0.8539,0.7971,0.6725,0.5712,0.4958,0.518,0.5644,0.6158,0.6498,0.7434,0.835,0.8139,0.8136,0.8077,0.8346,0.9022,0.939,0.9451,0.9819,0.9819,0.939,0.9329,0.8772,0.8711,0.8836,0.8958,0.9572,0.9819,0.9819,0.9819,0.9819,0.9265,0.8404,0.7574,0.7148,0.7011,0.6798,0.6205,0.5579,0.5478,0.6162,0.5362,0.5364,0.6233,0.6967,0.7365,0.7898,0.8345,0.9185,0.9952,0.0,0.0,0.0,0.0,0.0,0.0,0.0,0.0,0.0,0.0,0.0,0.0,0.0,0.0,0.0,0.0,0.0,0.1012,0.1593,0.1925,0.2185,0.2195,0.1934,0.0765,0.0664,0.0,0.0,0.0,0.0,0.0,0.0,0.0,0.0,0.0,0.0,0.0,0.0,0.0,0.0,0.0,0.0,0.1356,0.1909,0.2462,0.3628,0.461,0.4853,0.6139,0.7299,0.736,0.8711,0.9451,0.9819,0.9819,0.9819,0.9819,0.9819,0.9819,0.9819,0.9819,0.9819,0.9819,0.9819,0.9022,0.8077,0.6487,0.5566,0.5172,0.4579,0.4224,0.3989,0.4528,0.4725,0.4955,0.5438,0.5716,0.5671,0.6705,0.6679,0.6752,0.724,0.8346,0.8961,0.939,0.9758,0.9268,0.8775,0.8097,0.785,0.7975,0.8282,0.8897,0.9697,0.9819,0.9819,0.9819,0.939,0.8526,0.788,0.7133,0.7209,0.7013,0.5354,0.4769,0.4468,0.4089,0.4024,0.4293,0.5029,0.5362,0.5626,0.6645,0.782,0.8814,0.9408,0.0,0.0,0.0,0.0,0.0,0.0,0.0,0.0,0.0,0.0,0.0,0.0,0.0,0.0,0.0,0.0,0.0,0.0,0.0,0.0,0.1752,0.1819,0.1251,0.1203,0.1161,0.0,0.0,0.0,0.0,0.0,0.0,0.0,0.0,0.0,0.0,0.0,0.0,0.0,0.0,0.0,0.0,0.1541,0.2524,0.2647,0.4976,0.6077,0.6689,0.7853,0.8158,0.785,0.8218,0.8404,0.8404,0.8526,0.8711,0.9819,0.9819,0.9819,0.9819,0.9819,0.9819,0.9758,0.9697,0.9083,0.7337,0.5143,0.3579,0.3467,0.2546,0.0,0.0,0.2741,0.3103,0.3371,0.3775,0.4189,0.4375,0.4806,0.5286,0.5345,0.5466,0.6446,0.7365,0.7731,0.7978,0.7978,0.7182,0.6263,0.6505,0.7118,0.7545,0.8097,0.9019,0.9819,0.9819,0.9819,0.97,0.9143,0.9019,0.8438,0.8251,0.7555,0.5425,0.3708,0.2943,0.2752,0.0,0.0,0.0,0.0,0.3755,0.4786,0.5799,0.6423,0.6974,0.0,0.0,0.0,0.0,0.0,0.0,0.0,0.0,0.0,0.0,0.0,0.0,0.0,0.0,0.0,0.0,0.0,0.0,0.0,0.0,0.1013,0.1017,0.0722,0.1096,0.1347,0.0555,0.0,0.0,0.0,0.0,0.0,0.0,0.0,0.0,0.0,0.0,0.0,0.0,0.0,0.0,0.0,0.0,0.2954,0.4119,0.5955,0.7972,0.8158,0.8404,0.8279,0.7728,0.6872,0.675,0.6752,0.7362,0.7972,0.8958,0.9329,0.9819,0.9819,0.9819,0.9819,0.9697,0.9124,0.8248,0.6584,0.402,0.2139,0.1926,0.1092,0.0,0.0,0.0,0.1468,0.2003,0.25,0.3129,0.0,0.0,0.0,0.3076,0.3383,0.418,0.4976,0.5586,0.6014,0.6383,0.571,0.4548,0.4855,0.5649,0.6139,0.6564,0.724,0.8224,0.8833,0.8958,0.9204,0.9268,0.9204,0.9377,0.8962,0.7086,0.4688,0.3168,0.2142,0.0,0.0,0.0,0.0,0.0,0.2342,0.2731,0.3441,0.415,0.4892,0.0,0.0,0.0,0.0,0.0,0.0,0.0,0.0,0.0,0.0,0.0,0.0,0.0,0.0,0.0,0.0,0.0,0.0,0.0,0.0,0.0,0.0,0.0,0.0,0.0976,0.1783,0.1848,0.1971,0.2155,0.1787,0.1171,0.0,0.0,0.0,0.0,0.0,0.0,0.0,0.0,0.0,0.0,0.2524,0.4303,0.5223,0.7548,0.9636,0.9515,0.865,0.7606,0.7177,0.6077,0.5145,0.5325,0.6298,0.7147,0.7975,0.9134,0.963,0.9774,0.9805,0.9815,0.9387,0.8487,0.7248,0.5823,0.3774,0.1984,0.0808,0.0399,0.0,0.0,0.0,0.0,0.0,0.0,0.0,0.0,0.0,0.0,0.0,0.1356,0.234,0.2647,0.3259,0.4301,0.4731,0.3749,0.2647,0.2831,0.3505,0.418,0.4669,0.5161,0.6018,0.7116,0.7362,0.7304,0.7612,0.7792,0.8667,0.9295,0.6944,0.4839,0.3688,0.0,0.0,0.0,0.0,0.0,0.0,0.0935,0.1596,0.2388,0.3371,0.3925,0.0,0.0,0.0,0.0,0.0,0.0,0.0,0.0,0.0,0.0,0.0,0.0,0.0,0.0,0.0,0.0,0.0,0.0,0.0,0.0,0.0,0.0,0.0,0.0,0.0368,0.1232,0.1848,0.1787,0.0925,0.2032,0.1356,0.0,0.0,0.0,0.0,0.0,0.0,0.0,0.0,0.0,0.0,0.2033,0.3875,0.5163,0.6874,0.8836,0.9451,0.9204,0.7792,0.6261,0.5221,0.4465,0.4012,0.5216,0.6333,0.7249,0.8741,0.9499,0.9713,0.9758,0.9781,0.931,0.8158,0.6761,0.5783,0.3838,0.2427,0.1372,0.0,0.0,0.0,0.0,0.0,0.0,0.0,0.0,0.0,0.0,0.0,0.0,0.0,0.0863,0.0925,0.1048,0.2094,0.2953,0.1848,0.1048,0.1356,0.1726,0.2524,0.3137,0.3629,0.4427,0.5525,0.5527,0.5347,0.5957,0.6508,0.7604,0.8606,0.8095,0.6178,0.4952,0.3316,0.0,0.0,0.0,0.0,0.0,0.0,0.0664,0.159,0.2519,0.2697,0.0,0.0,0.0,0.0,0.0,0.0,0.0,0.0,0.0,0.0,0.0,0.0,0.0,0.0,0.0,0.0,0.0,0.0,0.0,0.0,0.0,0.0,0.0,0.0,0.037,0.0802,0.1602,0.1787,0.1171,0.2033,0.1356,0.0,0.0,0.0,0.0,0.0,0.0,0.0,0.0,0.0,0.0,0.2217,0.3629,0.5039,0.6628,0.7792,0.816,0.7545,0.6016,0.4792,0.3928,0.3537,0.3567,0.4196,0.5767,0.713,0.8393,0.939,0.9591,0.9673,0.9686,0.9373,0.8639,0.7602,0.6357,0.4418,0.3093,0.1988,0.0,0.0,0.0,0.0,0.0,0.0,0.0,0.0,0.0,0.0,0.0,0.0,0.0,0.0,0.0,0.0,0.0,0.0,0.0,0.0,0.0555,0.0925,0.1356,0.1848,0.2278,0.3137,0.4057,0.3445,0.326,0.5284,0.5904,0.6751,0.7378,0.7067,0.6623,0.516,0.34,0.1643,0.0,0.0,0.0,0.0,0.0,0.0,0.0466,0.1265,0.1062,0.0,0.0,0.0,0.0,0.0,0.0,0.0,0.0,0.0,0.0,0.0,0.0,0.0,0.0,0.0,0.0,0.0,0.0,0.0,0.0,0.0,0.0,0.0,0.0,0.0494,0.2032,0.2401,0.2339,0.1971,0.234,0.1479,0.0,0.0,0.0,0.0,0.0,0.0,0.0,0.0,0.0,0.0,0.2703,0.4056,0.5142,0.6499,0.7667,0.7914,0.6566,0.5215,0.4224,0.3859,0.346,0.299,0.5305,0.6624,0.6945,0.8472,0.938,0.9585,0.9605,0.9517,0.9401,0.8791,0.8359,0.6963,0.5366,0.4203,0.332,0.0,0.0,0.0,0.0,0.0,0.0,0.0,0.0,0.0,0.0,0.0,0.0,0.0,0.0,0.0,0.0,0.0,0.0,0.0,0.0,0.0,0.0,0.0,0.0,0.0,0.1602,0.2155,0.1109,0.1356,0.3566,0.4986,0.5507,0.5904,0.592,0.5358,0.4739,0.335,0.1489,0.0,0.0,0.0,0.0,0.0,0.0,0.0,0.0,0.0,0.0,0.0,0.0,0.0,0.0,0.0,0.0,0.0,0.0,0.0,0.0,0.0,0.0,0.0,0.0,0.0,0.0,0.0,0.0,0.0,0.0,0.0,0.0,0.0,0.0,0.0986,0.1602,0.1725,0.074,0.191,0.1479,0.0,0.0,0.0,0.0,0.0,0.0,0.0,0.0,0.0,0.0,0.2201,0.3914,0.4908,0.6521,0.7715,0.8517,0.6801,0.5932,0.5161,0.4972,0.4732,0.4228,0.6123,0.6822,0.7155,0.8357,0.93,0.9381,0.9381,0.9347,0.9275,0.9094,0.8788,0.806,0.6839,0.5826,0.4643,0.2516,0.1677,0.0,0.0,0.0,0.0,0.0,0.0,0.0,0.0,0.0,0.0,0.0,0.0,0.0,0.0,0.0,0.0,0.0,0.0,0.0,0.0,0.0,0.0,0.0,0.0,0.0,0.0,0.0,0.1602,0.2831,0.3451,0.3836,0.453,0.4248,0.3728,0.2538,0.0,0.0,0.0,0.0,0.0,0.0,0.0,0.0,0.0,0.0,0.0,0.0,0.0,0.0,0.0,0.0,0.0,0.0,0.0,0.0,0.0,0.0,0.0,0.0,0.0,0.0,0.0,0.0,0.0,0.0,0.0,0.0,0.0,0.0,0.0,0.0,0.0,0.111,0.1233,0.2032,0.191,0.1233,0.0802,0.0,0.0,0.0,0.0,0.0,0.0,0.0,0.0,0.206,0.3871,0.4987,0.6326,0.7727,0.8352,0.8294,0.768,0.6873,0.657,0.6497,0.6067,0.6561,0.737,0.795,0.8392,0.9174,0.9181,0.9289,0.9214,0.9083,0.8984,0.8892,0.8657,0.7379,0.6821,0.5697,0.3852,0.2793,0.2013,0.0,0.0,0.0,0.0,0.0,0.0,0.0,0.0,0.0,0.0,0.0,0.0,0.0,0.0,0.0,0.0,0.0,0.0,0.0,0.0,0.0,0.0,0.0,0.0,0.0,0.0,0.0,0.0987,0.2155,0.271,0.346,0.3104,0.2616,0.1626,0.0,0.0,0.0,0.0,0.0,0.0,0.0,0.0,0.0,0.0,0.0,0.0,0.0,0.0,0.0,0.0,0.0,0.0,0.0,0.0,0.0,0.0,0.0,0.0,0.0,0.0,0.0,0.0,0.0,0.0,0.0,0.0,0.0,0.0,0.0,0.0,0.0,0.0986,0.2094,0.2401,0.234,0.2278,0.2032,0.1233,0.0,0.0,0.0,0.0,0.0,0.0,0.0,0.2877,0.4163,0.5269,0.6551,0.7573,0.7799,0.7115,0.6315,0.6032,0.6524,0.6813,0.7342,0.8291,0.8772,0.9032,0.9096,0.9055,0.9059,0.9173,0.9066,0.8994,0.8954,0.8937,0.8602,0.7873,0.7482,0.6364,0.4634,0.3406,0.0,0.0,0.0,0.0,0.0,0.0,0.0,0.0,0.0,0.0,0.0,0.0,0.0,0.0,0.0,0.0,0.0,0.0,0.0,0.0,0.0,0.0,0.0,0.0,0.0,0.0,0.0,0.0,0.0,0.1787,0.2218,0.0,0.1978,0.1487,0.0742,0.0,0.0,0.0,0.0,0.0,0.0,0.0,0.0,0.0,0.0,0.0,0.0,0.0,0.0,0.0,0.0,0.0,0.0,0.0,0.0,0.0,0.0,0.0,0.0,0.0,0.0,0.0,0.0,0.0,0.0,0.0,0.0,0.0,0.0,0.0,0.0,0.0,0.037,0.0986,0.1787,0.2708,0.2463,0.2708,0.1663,0.0,0.0,0.0,0.0,0.0,0.0,0.0,0.0,0.4268,0.5414,0.7394,0.8299,0.8355,0.8337,0.7961,0.8238,0.8431,0.863,0.8609,0.8841,0.8981,0.9086,0.9066,0.9011,0.9066,0.9035,0.8984,0.8954,0.8937,0.8937,0.8771,0.8491,0.8097,0.7033,0.5528,0.4244,0.2961,0.0,0.0,0.0,0.0,0.0,0.0,0.0,0.0,0.0,0.0,0.0,0.0,0.0,0.0,0.0,0.0,0.0,0.0,0.0,0.0,0.0,0.0,0.0,0.0,0.0,0.0,0.0,0.0,0.0,0.0,0.0,0.0,0.0,0.0,0.0,0.0,0.0,0.0,0.0,0.0,0.0,0.0,0.0,0.0,0.0,0.0,0.0,0.0,0.0,0.0,0.0,0.0,0.0,0.0,0.0,0.0,0.0,0.0,0.0,0.0,0.0,0.0,0.0,0.0,0.0,0.0,0.0,0.0,0.0,0.0,0.0,0.0494,0.1233,0.3136,0.4423,0.3568,0.3445,0.1971,0.0,0.0,0.0,0.0,0.0,0.0,0.1594,0.3263,0.4485,0.5902,0.8264,0.9199,0.9564,0.9703,0.971,0.9561,0.9408,0.9276,0.9123,0.8929,0.8902,0.9032,0.9001,0.8988,0.9018,0.8984,0.895,0.8937,0.8937,0.8937,0.8937,0.8771,0.8712,0.8263,0.6589,0.5027,0.3744,0.0,0.0,0.0,0.0,0.0,0.0,0.0,0.0,0.0,0.0,0.0,0.0,0.0,0.0,0.0,0.0,0.0,0.0,0.0,0.0,0.0,0.0,0.0,0.0,0.0,0.0,0.0,0.0,0.0,0.0,0.0,0.0,0.0,0.0,0.0,0.0,0.0,0.0,0.0,0.0,0.0,0.0,0.0,0.0,0.0,0.0,0.0,0.0,0.0,0.0,0.0,0.0,0.0,0.0,0.0,0.0,0.0,0.0,0.0,0.0,0.0,0.0,0.0,0.0,0.0,0.0,0.0,0.0,0.0,0.0,0.0,0.0678,0.283,0.4423,0.5159,0.4795,0.4734,0.3077,0.0,0.0,0.0,0.0,0.0,0.0533,0.2046,0.3687,0.5227,0.6671,0.8238,0.9408,0.9486,0.9588,0.97,0.952,0.9354,0.9245,0.8996,0.8895,0.8895,0.8895,0.8892,0.8898,0.8967,0.895,0.8944,0.8937,0.8937,0.8937,0.8937,0.8937,0.8937,0.8657,0.7091,0.5586,0.4247,0.2795,0.1511,0.0,0.0,0.0,0.0,0.0,0.0,0.0,0.0,0.0,0.0,0.0,0.0,0.0,0.0,0.0,0.0,0.0,0.0,0.0,0.0,0.0,0.0,0.0,0.0,0.0,0.0,0.0,0.0,0.0,0.0,0.0,0.0,0.0,0.0,0.0,0.0,0.0,0.0,0.0,0.0,0.0,0.0,0.0,0.0,0.0,0.0,0.0,0.0,0.0,0.0,0.0,0.0,0.0,0.0,0.0,0.0,0.0,0.0,0.0,0.0,0.0,0.0,0.0,0.0,0.0,0.0,0.0,0.0,0.0,0.0863,0.2647,0.424,0.4792,0.3506,0.3873,0.3015,0.0,0.0,0.0,0.0,0.0,0.1052,0.2484,0.3818,0.5232,0.6881,0.8414,0.9319,0.9547,0.9693,0.9764,0.9707,0.9479,0.9245,0.8912,0.8947,0.8937,0.8937,0.8937,0.8937,0.8937,0.8937,0.8937,0.8937,0.8937,0.8937,0.8937,0.8937,0.8768,0.8377,0.7651,0.62,0.4693,0.3186,0.0,0.0,0.0,0.0,0.0,0.0,0.0,0.0,0.0,0.0,0.0,0.0,0.0,0.0,0.0,0.0,0.0,0.0,0.0,0.0,0.0,0.0,0.0,0.0,0.0,0.0,0.0,0.0,0.0,0.0,0.0,0.0,0.0,0.0,0.0,0.0,0.0,0.0,0.0,0.0,0.0,0.0,0.0,0.0,0.0,0.0,0.0,0.0,0.0,0.0,0.0,0.0,0.0,0.0,0.0,0.0,0.0,0.0,0.0,0.0,0.0,0.0,0.0,0.0,0.0,0.0,0.0,0.0,0.0,0.0,0.0863,0.2339,0.3076,0.326,0.2647,0.3321,0.0,0.0,0.0,0.0,0.0,0.0,0.1791,0.3036,0.4244,0.5864,0.7491,0.8778,0.9459,0.9602,0.973,0.9754,0.9666,0.9422,0.9198,0.8991,0.894,0.8937,0.8937,0.8937,0.8937,0.8937,0.8937,0.8937,0.8937,0.8937,0.8937,0.8937,0.8937,0.8937,0.8602,0.8546,0.7318,0.5252,0.3632,0.1958,0.0,0.0,0.0,0.0,0.0,0.0,0.0,0.0,0.0,0.0,0.0,0.0,0.0,0.0,0.0,0.0,0.0,0.0,0.0,0.0,0.0,0.0,0.0,0.0,0.0,0.1419,0.0,0.0,0.0,0.0,0.0,0.0,0.0,0.0,0.0,0.0,0.0,0.0,0.0,0.0,0.0,0.0,0.0,0.0,0.0,0.0,0.0,0.0,0.0,0.0,0.0,0.0,0.0,0.0,0.0,0.0,0.0,0.0,0.0,0.0,0.0,0.0,0.0,0.0,0.0,0.0,0.0,0.0,0.0,0.0,0.1848,0.2462,0.2708,0.2401,0.2084,0.0,0.0,0.0,0.0,0.0,0.1329,0.3008,0.4065,0.493,0.6734,0.8304,0.934,0.9486,0.9632,0.9713,0.9734,0.9598,0.9398,0.9161,0.9005,0.8937,0.8937,0.8937,0.8937,0.8937,0.8937,0.8937,0.8937,0.8937,0.8937,0.8937,0.8937,0.8937,0.8937,0.8881,0.883,0.7765,0.5697,0.4134,0.2461,0.0,0.0,0.0,0.0,0.0,0.0,0.0,0.0,0.0,0.0,0.0,0.0,0.0,0.0,0.0,0.0,0.0,0.0,0.0,0.0,0.0,0.2218,0.2586,0.2708,0.3274,0.3031,0.1852,0.0,0.0,0.0,0.0,0.0,0.0,0.0,0.0,0.0,0.0,0.0,0.0,0.0,0.0,0.0,0.0,0.0,0.0,0.0,0.0,0.0,0.0,0.0,0.0,0.0,0.0,0.0,0.0,0.0,0.0,0.0,0.0,0.0,0.0,0.0,0.0,0.0,0.0,0.0,0.0,0.0,0.0,0.0,0.0,0.1848,0.1787,0.074,0.2063,0.0,0.0,0.0,0.0,0.0,0.179,0.3471,0.4803,0.5956,0.7627,0.8821,0.9551,0.9656,0.9751,0.9802,0.9802,0.97,0.9486,0.9211,0.9032,0.8937,0.8937,0.8937,0.8937,0.8937,0.8937,0.8937,0.8937,0.8937,0.8937,0.8937,0.8937,0.8937,0.8937,0.8937,0.8491,0.7315,0.5641,0.4749,0.0,0.0,0.0,0.0,0.0,0.0,0.0,0.0,0.0,0.0,0.0,0.0,0.0,0.0,0.0,0.0,0.0,0.0,0.0,0.0,0.0,0.1787,0.2524,0.3139,0.351,0.4268,0.4468,0.316,0.1856,0.0679,0.0,0.0,0.0,0.0,0.0,0.0,0.0,0.0,0.0,0.0,0.0,0.0,0.0]}]]